GFSSW_850_spd_000.txt.gz
Wind_Speed
10 11 11 11 12 12 16 19 20 16 14 17 16 15 15 15 14 16 15 15 15 13 10 17 19 19 12 8 7 6 7 11 14 9 3 2 5 7 9 12 9 9 7 7 13
9 9 11 11 11 12 12 15 17 18 17 18 17 16 15 14 15 20 22 18 16 11 16 8 15 18 18 12 9 13 11 16 9 10 8 4 10 12 9 13 15 11 7 10 12
9 8 9 9 9 10 11 11 12 12 14 16 18 19 19 15 11 17 21 21 17 17 16 12 12 18 25 17 17 14 17 12 11 11 7 9 13 8 13 13 9 15 16 16 17
9 9 8 8 8 9 9 10 11 11 11 12 15 15 15 13 7 4 2 10 18 19 16 17 17 17 20 18 21 14 19 16 13 9 8 12 11 16 19 25 20 20 19 17 11
9 7 5 7 9 9 10 8 9 11 13 12 13 15 15 13 15 6 3 4 3 16 20 21 21 23 20 24 21 21 17 17 16 14 13 12 16 19 24 28 23 21 17 13 15
11 8 7 6 8 9 10 10 10 10 12 12 12 16 15 16 12 18 16 9 4 7 19 23 17 26 19 25 26 17 22 17 16 16 13 14 19 6 28 22 21 15 14 13 15
14 12 11 9 9 9 10 12 11 11 10 11 12 13 14 20 9 8 18 23 27 10 19 24 29 17 21 20 25 24 14 15 18 17 14 9 18 19 21 15 12 8 6 7 9
15 15 12 11 11 10 9 10 12 11 11 10 13 13 10 14 22 18 10 6 17 22 13 20 23 26 20 17 21 21 16 17 18 15 15 9 16 10 3 1 2 2 1 2 1
16 16 15 13 14 14 14 11 13 14 12 11 11 10 8 10 22 22 23 16 6 16 18 11 20 15 18 16 11 17 16 22 17 14 12 12 12 6 7 14 15 7 2 4 5
17 16 13 13 14 14 13 14 13 14 14 12 12 6 14 10 13 18 22 19 12 13 11 15 16 12 12 12 20 13 19 11 17 11 11 11 16 14 11 10 7 6 5 7 7
18 16 15 15 17 15 14 15 9 7 23 12 12 8 3 16 7 13 12 17 13 13 12 23 13 22 32 18 17 18 19 15 13 6 5 13 15 14 18 11 10 8 10 10 9
17 16 15 14 17 17 13 21 18 7 5 27 10 25 5 8 7 14 13 19 15 16 17 15 23 24 14 20 17 19 16 16 12 6 6 13 16 16 14 11 9 13 14 14 13
15 15 13 14 17 20 20 23 26 19 3 10 29 20 15 15 8 14 22 26 14 16 17 22 17 20 18 21 23 17 17 15 9 5 7 9 18 11 5 5 4 12 14 15 16
14 13 12 13 14 15 16 27 19 23 2 6 10 13 21 11 10 20 24 23 9 20 17 19 23 22 15 20 22 18 11 9 8 1 5 3 5 8 8 5 8 15 17 17 17
13 13 13 13 6 6 8 12 23 16 4 10 9 7 14 21 6 22 23 23 14 11 6 14 13 18 22 24 26 11 12 9 3 5 6 9 6 4 3 7 11 16 18 17 16
12 12 12 14 15 14 7 8 15 2 7 8 8 13 15 23 11 14 15 17 9 9 17 13 7 19 14 24 19 16 14 9 4 2 7 10 9 5 4 2 12 17 19 19 18
13 12 15 14 10 10 18 20 3 5 3 6 5 8 16 12 18 10 17 21 7 7 7 9 15 3 17 16 3 16 15 3 6 5 6 3 6 10 4 4 11 19 23 22 20
14 13 14 16 16 10 33 3 7 4 6 4 7 15 10 15 13 13 15 18 18 13 11 7 5 12 12 20 9 16 15 4 5 6 5 4 6 2 5 2 9 21 25 23 22
13 13 17 18 18 23 18 4 4 4 8 7 14 10 9 17 8 14 16 19 13 18 4 9 3 10 13 5 11 4 6 1 3 2 3 5 4 6 3 4 8 17 25 25 23
13 10 13 9 22 32 3 4 4 6 5 18 8 11 12 18 7 15 16 16 11 17 8 11 3 8 9 8 4 10 11 5 2 5 5 4 3 2 4 1 7 15 26 25 22
11 4 5 13 29 13 3 5 5 13 17 16 8 10 11 16 7 17 16 8 20 15 13 5 6 3 13 7 13 12 7 5 3 3 3 3 4 3 3 3 5 13 25 25 24
6 3 11 28 6 5 4 5 4 7 27 14 10 7 13 15 9 8 16 7 28 12 9 8 3 7 4 3 8 11 11 12 7 5 2 3 2 4 2 4 4 12 23 22 23
5 4 15 33 4 8 5 7 8 13 19 14 10 8 6 13 8 16 13 18 24 15 10 11 7 8 5 1 3 6 10 16 9 1 10 8 3 2 3 3 3 13 21 22 21
5 3 8 19 12 3 8 7 7 21 17 11 8 9 15 11 12 15 14 8 21 26 27 3 5 12 12 9 12 14 18 17 17 10 8 11 8 6 5 5 7 13 19 19 19
8 5 6 6 9 14 6 7 12 10 9 3 6 11 14 9 10 9 13 6 16 24 19 5 4 9 2 4 16 18 19 19 20 19 12 14 18 17 10 9 11 14 17 18 17
6 4 5 4 10 13 13 12 15 3 8 4 3 14 16 11 13 14 13 11 10 16 20 11 3 3 3 4 10 13 19 22 22 20 22 18 18 3 5 10 14 13 14 14 15
10 11 3 4 4 6 5 10 17 16 7 7 12 13 17 11 18 21 22 16 10 16 21 12 5 4 3 4 5 8 17 19 18 20 21 18 19 10 8 10 15 13 12 11 10

GFSSW_850_spd_003.txt.gz
Wind_Speed
11 11 13 14 12 10 12 15 16 18 13 17 18 17 16 14 13 13 12 9 8 12 12 9 12 17 17 16 15 11 11 14 19 16 11 5 9 8 8 15 14 13 13 7 8
10 11 12 12 11 11 11 13 17 18 20 17 15 17 16 15 13 17 19 16 14 13 8 10 11 17 24 20 18 15 13 21 16 13 11 12 9 12 11 15 15 15 13 9 8
11 10 11 10 9 10 10 11 14 15 17 18 18 16 16 12 12 17 17 21 19 17 12 12 12 16 27 26 28 22 20 17 20 14 15 15 14 17 13 15 17 11 13 14 14
12 10 10 8 8 9 9 10 10 12 12 11 11 13 15 12 9 2 11 17 22 20 15 14 16 17 22 26 30 24 25 28 23 15 13 15 17 19 19 20 20 19 20 20 16
14 11 9 8 9 9 9 9 9 9 11 9 9 12 12 16 23 6 2 6 3 11 19 20 21 20 21 24 27 24 24 26 25 20 17 16 19 19 25 24 22 20 18 19 17
15 13 11 8 10 10 10 9 8 7 8 11 10 12 13 16 16 19 13 11 7 5 14 20 15 22 18 25 23 16 31 28 20 25 22 17 20 20 23 22 20 18 18 16 15
16 15 14 12 12 10 10 9 9 9 8 10 10 11 16 19 9 13 18 20 16 15 12 15 21 16 16 18 31 31 17 21 25 22 19 17 20 21 25 23 15 14 11 8 10
14 15 14 14 12 13 11 8 8 10 10 10 10 10 14 13 22 14 8 5 10 18 19 15 18 25 25 14 14 23 19 16 20 24 24 14 19 14 5 7 6 4 3 4 5
15 15 15 15 13 13 13 12 10 10 11 10 9 11 11 13 21 23 22 17 9 10 16 16 16 23 18 11 8 15 18 25 20 22 19 19 15 18 11 11 13 14 8 5 3
18 16 15 14 13 14 13 10 12 10 12 10 11 6 17 11 13 16 19 19 21 14 14 21 13 13 15 15 15 19 24 19 24 19 15 18 20 18 16 10 11 11 7 7 6
18 17 15 14 14 15 14 13 9 7 24 14 10 15 3 16 8 9 16 16 18 21 18 25 12 19 27 22 22 21 20 24 17 21 19 17 19 18 19 16 12 10 10 10 9
18 16 15 14 14 16 17 14 13 4 5 29 21 19 11 6 7 14 16 16 21 21 20 18 19 27 29 22 26 19 20 26 11 16 10 14 18 18 14 18 16 16 14 14 13
17 14 14 12 14 18 23 22 22 18 5 8 33 27 25 11 15 16 21 25 19 22 22 24 23 26 25 23 24 28 23 21 14 13 11 11 17 19 21 12 10 14 16 16 16
14 12 12 13 12 17 21 14 22 16 3 6 9 11 21 13 10 26 26 23 13 21 23 20 21 22 29 22 22 26 20 16 12 12 9 13 5 12 14 13 10 15 19 19 18
12 10 12 13 6 8 7 4 11 9 6 11 9 8 15 17 7 22 26 24 20 18 7 13 12 20 24 25 18 17 27 17 15 9 3 13 6 15 14 15 11 15 21 21 19
11 8 11 14 17 13 12 10 18 2 7 8 7 12 13 23 20 6 29 22 20 13 18 21 8 20 18 20 18 3 12 10 11 6 7 13 12 9 12 14 16 17 22 23 22
15 11 9 12 9 17 13 17 3 6 3 5 4 9 18 16 21 13 16 19 11 6 9 12 21 11 10 12 20 18 16 6 6 7 7 6 10 13 8 5 8 17 25 25 23
13 16 11 13 13 11 26 2 8 3 6 4 4 6 9 12 21 16 9 14 23 10 8 10 8 13 10 14 9 19 20 8 9 10 12 7 7 4 7 3 11 23 26 26 24
12 15 15 15 17 19 13 5 5 3 5 6 8 5 5 14 10 17 14 13 20 18 3 7 8 4 15 13 13 10 21 2 6 7 9 8 9 8 6 7 10 20 26 28 25
14 16 22 17 22 31 4 9 6 5 6 9 8 11 11 18 13 15 12 14 19 16 16 5 5 6 10 13 3 7 10 5 2 7 6 7 7 6 10 8 11 15 25 27 25
16 4 5 15 27 15 6 7 6 9 13 14 13 13 13 17 16 18 9 6 20 15 17 8 4 5 4 7 11 3 7 5 4 2 3 6 5 11 6 4 9 14 25 28 27
9 4 13 25 6 4 7 5 4 7 21 15 7 11 11 17 16 16 15 10 21 12 8 9 5 2 4 3 20 14 10 14 6 5 4 5 5 7 7 6 5 13 21 26 25
7 5 15 34 5 7 8 6 8 6 13 12 11 10 11 14 12 12 11 16 15 19 9 13 5 4 4 9 4 6 10 15 12 3 11 7 5 6 7 8 6 11 19 24 24
5 4 7 20 13 4 8 5 6 16 16 15 9 10 10 14 15 15 9 11 12 21 24 3 8 3 5 7 11 12 15 14 13 9 9 10 6 11 7 7 7 12 17 22 24
9 6 7 5 9 14 6 4 8 6 18 22 7 16 16 13 17 5 15 11 13 16 12 3 5 7 2 3 13 11 16 16 17 16 10 11 14 10 7 9 8 13 18 21 23
7 5 5 4 14 15 16 10 13 11 11 9 11 18 17 11 14 11 16 12 9 14 14 9 4 3 3 2 7 12 16 19 21 20 18 16 14 5 7 4 8 12 18 21 20
17 7 2 6 9 9 7 12 15 18 9 13 12 6 15 15 12 6 19 16 5 12 14 7 5 3 3 6 5 9 17 18 18 20 19 18 18 6 7 7 10 11 13 15 15

GFSSW_850_spd_006.txt.gz
Wind_Speed
13 12 13 14 13 12 12 11 12 13 12 19 20 15 13 13 13 14 15 9 10 15 15 10 7 11 16 20 17 12 6 11 15 14 14 11 4 9 4 6 13 16 17 5 2
13 12 12 13 12 10 9 10 12 14 15 16 13 15 17 15 15 17 18 14 19 15 11 8 10 12 21 19 17 16 8 15 11 13 11 11 7 8 10 11 14 15 14 14 10
14 13 13 12 10 8 8 8 9 12 14 16 17 16 14 12 13 23 17 18 18 18 15 10 12 14 18 26 25 22 18 12 19 25 24 12 12 13 10 9 14 15 15 12 8
14 13 12 11 9 7 7 7 8 10 12 13 13 14 13 9 6 5 9 15 18 19 16 13 14 17 10 16 28 20 26 24 25 27 11 5 12 17 20 17 17 19 18 18 18
15 14 13 10 9 8 8 8 6 7 10 11 10 9 12 12 18 5 1 6 6 4 17 16 18 17 16 11 21 23 19 28 27 27 28 14 13 18 22 21 21 23 22 23 18
16 15 14 12 9 8 9 8 8 8 7 10 11 9 12 16 11 16 12 9 4 3 10 17 17 18 22 21 19 13 27 26 27 26 23 18 13 21 22 18 23 24 20 16 17
18 16 16 14 12 9 8 8 9 10 8 9 12 12 13 18 6 13 17 17 14 10 10 11 19 19 10 15 17 25 16 16 25 26 17 24 19 17 25 26 26 26 17 15 11
16 16 15 15 13 11 8 9 9 9 10 11 9 8 10 12 19 12 9 11 21 16 16 16 11 16 23 13 13 7 11 14 19 16 24 16 15 11 26 29 24 12 8 7 8
16 16 15 13 14 12 10 10 11 9 12 11 8 9 9 11 21 22 19 13 9 9 9 15 15 16 13 11 7 10 13 22 15 18 16 15 17 11 31 17 12 11 15 13 9
15 15 17 14 13 13 12 10 9 11 11 7 10 5 16 14 11 15 21 22 18 15 12 11 11 10 11 12 17 12 12 13 18 17 18 22 15 13 24 19 17 13 15 13 11
14 15 17 15 13 13 13 10 8 4 17 13 9 12 2 9 7 12 16 17 17 16 14 16 8 18 21 21 18 18 19 16 16 16 18 18 18 15 19 20 14 15 9 13 12
14 14 16 14 12 14 13 9 9 4 8 30 27 21 24 6 9 15 14 17 20 16 15 14 19 25 17 18 18 20 20 19 16 17 21 19 18 14 12 18 22 16 15 20 16
15 13 15 12 13 16 18 17 16 14 7 8 31 31 22 16 18 15 22 24 14 18 19 19 23 16 19 18 20 21 23 19 17 18 8 8 11 12 14 22 19 25 22 25 20
14 12 12 12 12 15 16 9 17 14 4 5 7 9 27 10 8 25 19 23 13 20 17 15 21 20 19 22 20 21 23 20 18 20 7 10 4 18 22 15 8 13 19 28 25
14 11 12 13 5 11 9 7 3 4 5 8 6 5 7 14 3 11 33 27 18 17 11 10 14 20 23 23 20 22 13 17 22 11 4 10 5 8 14 19 8 10 22 29 27
15 13 12 14 15 9 9 3 7 2 8 5 6 8 8 12 8 9 27 26 21 17 17 15 16 15 15 20 20 21 13 14 17 8 7 12 11 6 9 15 14 11 26 30 29
17 16 15 12 14 18 9 16 2 6 2 5 4 7 13 11 11 8 18 20 9 7 10 6 19 10 3 5 20 20 11 9 7 7 4 15 9 3 6 10 16 15 26 31 29
18 21 17 17 12 14 20 2 6 6 6 3 4 8 8 7 7 15 9 16 18 12 2 10 9 17 12 8 11 21 16 3 4 3 5 14 7 3 7 10 25 27 32 32 31
17 24 22 22 19 19 17 5 5 4 4 5 5 6 5 5 6 14 14 7 11 18 8 5 8 10 12 14 10 5 11 19 6 8 4 4 4 6 8 7 11 21 29 31 31
26 26 27 23 26 23 6 11 6 6 7 5 9 11 8 11 8 12 12 7 16 17 12 2 5 6 8 12 16 9 11 12 7 6 6 6 9 6 9 8 9 15 23 29 31
26 10 12 26 29 16 7 7 7 16 9 8 11 10 11 9 14 12 9 12 13 15 14 6 6 3 2 10 16 7 6 9 3 2 6 5 1 10 9 12 9 13 27 31 33
18 3 21 28 6 4 7 5 4 9 20 10 13 19 12 12 15 10 13 7 18 14 10 11 4 3 8 3 12 5 10 17 2 2 2 5 2 8 9 8 10 14 29 33 33
16 6 25 35 5 6 6 6 7 3 8 8 8 11 7 7 7 14 14 13 19 11 16 11 5 1 5 8 4 6 5 3 5 3 3 3 4 7 8 8 8 15 27 31 31
10 5 8 18 8 6 10 7 6 16 18 16 14 16 7 8 11 1 10 6 13 16 15 2 4 7 4 6 10 5 4 5 5 1 2 3 6 7 8 9 8 15 23 29 32
9 5 9 5 9 10 5 4 7 5 15 18 8 11 9 7 7 11 12 6 7 13 11 5 5 9 6 18 15 12 11 8 5 4 2 2 8 9 11 11 11 19 25 29 28
11 4 10 2 15 16 15 7 9 6 4 6 12 9 17 10 8 11 10 7 6 6 8 6 5 10 9 6 10 9 12 12 9 5 6 6 5 9 12 20 19 19 22 27 30
12 11 2 4 7 7 6 9 10 12 11 21 13 14 11 13 9 15 18 16 8 6 8 5 3 6 4 3 6 3 8 11 8 8 7 8 7 6 6 7 11 17 22 21 23

GFSSW_850_spd_009.txt.gz
Wind_Speed
9 9 10 10 11 10 8 8 8 9 9 9 15 16 14 13 12 13 14 7 6 10 11 13 10 8 10 14 13 14 2 8 8 9 11 21 4 5 3 5 4 8 14 8 5
10 10 10 11 11 10 7 6 7 9 10 13 12 10 12 13 13 18 19 14 14 14 13 8 6 5 10 8 11 8 5 7 5 10 9 19 7 7 4 2 5 12 10 4 10
12 10 10 10 10 8 5 5 5 6 8 10 12 14 11 8 10 21 16 16 17 14 13 11 10 8 6 17 14 6 11 5 7 23 25 18 9 6 2 3 8 11 16 8 7
13 11 11 10 8 6 5 5 5 5 6 7 8 10 11 9 7 3 2 4 7 14 17 13 9 3 3 4 19 13 18 19 19 29 23 10 13 7 9 9 12 17 18 18 15
14 12 11 10 9 7 5 5 5 5 5 6 5 5 7 12 17 4 4 7 7 2 19 17 10 9 5 5 8 12 15 22 28 30 32 26 18 15 14 19 17 21 23 21 21
14 13 12 12 10 7 6 5 5 5 5 4 5 6 10 14 13 19 17 11 4 2 1 16 10 12 13 9 13 12 15 24 31 24 25 22 13 19 21 19 19 24 27 25 23
13 15 13 12 12 9 7 5 6 5 5 5 5 8 14 24 7 7 12 14 12 10 7 9 12 15 5 4 9 11 13 16 21 27 16 21 18 15 25 19 23 31 30 27 18
14 13 12 11 12 10 8 8 6 7 6 6 5 7 11 14 20 12 14 15 19 17 13 9 10 12 7 8 8 4 6 13 9 10 13 15 21 13 31 27 31 33 31 17 16
16 12 11 11 11 11 9 9 8 9 7 7 6 7 11 10 18 24 15 17 9 9 6 10 14 9 6 4 4 3 10 7 7 8 6 15 21 9 23 21 25 28 28 19 16
17 14 11 11 9 12 11 10 8 7 9 7 9 4 14 9 11 17 22 18 13 10 7 10 9 5 3 4 13 11 6 13 9 5 11 16 16 9 21 27 24 25 18 19 19
18 16 13 14 11 14 12 8 7 4 14 11 10 8 3 2 4 8 13 21 19 13 5 11 7 12 12 12 10 9 15 14 12 10 12 20 17 17 20 19 16 24 15 25 21
17 16 14 14 12 14 13 8 8 3 6 20 29 20 18 6 6 13 11 15 17 14 6 6 18 11 11 13 12 15 15 21 15 16 9 13 21 18 14 19 22 25 20 30 23
19 17 14 14 14 17 18 14 14 10 4 8 27 24 31 21 17 15 19 22 9 10 11 17 3 14 13 14 14 17 18 18 16 14 14 7 16 21 11 22 28 28 25 35 30
19 17 15 15 16 18 19 13 11 7 3 4 4 6 11 12 6 27 26 19 8 16 13 13 15 16 11 18 14 18 15 14 17 11 11 4 8 20 19 13 12 21 30 36 30
20 19 16 17 8 21 10 13 9 5 4 6 5 3 0 10 8 11 28 25 17 11 10 8 7 14 18 23 13 16 11 13 13 15 15 18 7 12 14 17 14 9 32 38 35
23 20 18 21 16 15 14 16 12 3 7 6 5 5 4 8 6 3 5 23 6 13 13 15 7 3 13 12 15 3 5 11 9 9 13 15 9 6 13 20 26 10 28 39 38
25 23 25 26 24 20 19 16 3 4 1 5 4 6 9 8 8 7 4 13 5 6 6 5 12 3 2 3 5 4 4 4 7 6 11 8 9 16 8 13 20 18 29 37 41
29 28 25 22 21 25 21 3 6 4 5 3 3 6 6 6 8 10 2 8 15 5 2 6 5 13 9 13 7 10 14 6 7 7 6 6 6 9 15 13 23 35 42 43 43
25 32 32 28 20 26 20 3 6 5 3 5 3 4 4 6 7 7 10 6 8 15 7 5 8 2 12 12 14 7 12 21 5 5 3 5 6 11 6 9 14 25 32 35 42
35 36 35 32 27 32 3 5 5 2 6 4 8 9 7 6 8 8 9 9 8 16 16 3 6 5 13 14 13 11 11 11 5 5 7 5 11 8 7 14 16 18 26 31 39
37 18 28 36 36 19 3 7 5 9 9 6 6 4 7 6 8 6 7 6 15 12 19 7 6 4 3 12 16 11 8 7 4 9 2 5 5 7 12 15 19 19 29 35 42
25 5 26 38 7 4 4 5 4 5 8 14 8 9 7 10 7 5 12 6 10 6 14 10 3 6 16 10 16 16 14 11 8 8 9 3 3 1 10 13 17 23 30 34 39
20 8 34 42 6 4 4 7 8 7 8 6 8 12 9 9 4 10 8 11 18 8 10 8 4 4 5 6 5 20 14 9 8 5 13 5 4 3 7 8 16 21 26 30 37
9 4 10 17 4 9 8 8 7 9 14 11 4 7 10 9 11 5 12 5 24 19 20 13 5 7 3 3 7 9 18 16 12 7 3 3 8 3 6 9 9 23 32 37 41
7 3 9 6 7 5 11 4 7 5 12 8 6 15 7 5 5 6 5 3 13 25 9 6 6 5 16 16 11 12 15 16 19 18 7 8 8 8 10 10 11 26 29 32 35
11 5 10 8 15 14 8 7 8 6 6 3 7 8 11 6 6 5 7 4 5 10 8 8 5 10 2 11 13 14 21 17 7 1 7 6 5 2 7 13 11 27 31 32 35
10 13 11 8 8 8 8 13 13 10 9 14 11 5 11 10 12 8 10 9 7 8 8 6 3 5 4 8 10 0 9 5 3 1 4 4 3 5 5 6 11 24 28 30 34

GFSSW_850_spd_012.txt.gz
Wind_Speed
13 10 9 8 8 8 8 8 8 7 9 8 12 14 13 11 11 14 15 9 9 10 10 8 11 8 7 10 12 4 2 6 9 8 10 7 3 15 14 6 5 3 3 11 8
13 12 10 9 8 8 6 6 6 6 8 11 9 10 12 16 15 21 18 13 11 13 11 8 5 8 4 5 8 7 6 10 7 11 7 10 5 11 6 3 4 4 3 9 14
14 13 12 10 9 7 5 4 4 4 7 10 13 12 8 4 8 21 19 23 20 16 13 10 8 4 3 9 7 6 10 6 7 21 18 12 8 17 10 5 8 5 4 2 12
18 15 13 11 9 7 5 4 3 4 6 6 8 9 11 9 6 2 2 2 19 20 15 13 7 4 3 5 9 8 10 16 10 18 14 4 9 9 13 13 9 9 10 9 12
19 16 13 12 11 8 7 5 4 3 4 4 5 6 10 11 14 4 6 6 7 14 19 18 12 6 5 5 8 6 6 17 21 23 26 29 19 14 21 24 19 16 17 19 21
18 17 14 12 13 10 8 6 5 4 3 3 5 8 12 6 10 20 10 6 3 5 7 19 11 13 7 7 7 9 12 13 18 22 21 19 24 21 26 25 24 17 18 22 21
18 17 15 15 14 13 10 7 5 4 4 4 5 8 13 20 8 13 21 16 12 8 8 9 19 9 2 4 12 8 9 9 9 10 7 20 24 22 23 25 24 19 23 26 26
20 18 16 14 13 14 11 9 8 7 5 6 5 7 9 5 14 17 13 14 19 17 15 11 9 8 7 9 6 3 3 4 4 9 7 9 28 9 20 23 28 27 32 32 32
22 19 17 14 13 14 12 11 8 7 6 6 6 6 10 6 11 14 19 14 11 16 20 17 11 7 2 3 4 4 6 6 4 7 4 12 26 14 26 25 25 31 32 32 31
23 21 18 14 13 13 14 12 9 7 8 7 7 3 11 7 5 4 23 16 8 8 7 9 5 2 3 5 15 12 7 6 6 4 8 18 23 10 17 29 26 31 31 33 24
25 23 20 17 15 14 17 11 6 6 15 10 11 5 2 2 4 4 18 19 12 10 5 2 4 13 11 14 8 6 8 11 4 6 11 14 19 17 19 23 19 33 34 24 27
25 24 21 19 17 15 18 14 9 4 4 21 23 18 17 4 1 7 13 14 13 12 4 4 12 11 8 10 10 14 16 14 9 10 12 11 16 16 17 20 24 28 28 26 26
24 22 22 18 17 18 23 23 11 3 2 6 20 15 20 18 11 12 19 14 6 16 16 17 7 17 13 13 11 16 16 10 12 12 18 14 22 16 15 21 28 27 34 31 35
25 25 23 21 20 22 24 20 12 3 2 4 4 3 7 12 5 22 20 14 6 15 13 14 18 14 11 15 12 17 7 13 13 8 8 2 11 9 9 16 15 23 24 33 37
28 27 27 25 16 26 22 16 11 3 2 4 4 5 5 10 5 4 23 22 13 9 7 8 7 16 20 17 13 8 8 10 10 9 7 18 8 8 11 12 18 20 28 36 43
28 29 28 27 19 16 16 20 14 4 6 6 5 6 5 6 3 4 4 17 1 15 16 10 3 5 7 11 17 2 6 5 5 4 10 17 11 12 12 15 10 9 28 34 42
16 33 31 28 28 22 25 25 3 4 2 6 4 5 5 7 6 8 8 7 6 6 8 4 16 5 3 3 5 11 6 3 4 6 9 9 12 18 8 15 17 16 23 32 42
24 35 33 33 28 31 34 3 3 5 5 3 4 7 7 7 7 8 4 8 14 6 2 7 4 15 10 17 6 14 15 4 6 3 6 6 9 6 15 23 23 24 32 38 41
29 34 40 36 32 36 24 3 7 5 6 9 6 6 6 8 4 3 9 8 10 15 8 6 5 2 4 6 15 5 11 19 6 6 4 6 4 7 12 9 7 13 31 37 43
24 40 40 40 35 37 8 5 5 2 6 4 8 8 7 7 8 7 7 7 6 18 13 5 3 7 5 6 12 10 7 6 7 5 6 5 5 7 8 14 7 13 22 32 37
30 19 33 39 41 24 5 5 3 5 8 7 7 6 7 6 7 6 6 5 13 11 19 5 3 2 2 7 12 11 13 6 8 7 3 5 6 8 14 10 12 14 27 34 39
12 3 39 41 6 5 4 5 7 5 11 4 4 8 8 9 7 6 9 7 17 8 10 11 5 7 16 5 13 17 18 17 8 8 9 1 7 5 15 10 17 19 27 29 34
20 8 42 45 5 8 4 7 4 6 9 6 9 10 12 6 3 9 7 9 11 7 8 9 5 4 4 6 11 13 20 17 11 3 10 2 7 11 4 10 15 19 24 28 34
9 4 12 23 3 7 12 7 6 7 11 8 5 14 6 7 8 4 7 7 23 12 16 14 5 7 9 1 3 10 24 20 20 11 8 14 12 21 4 10 9 17 28 35 39
7 2 9 7 7 10 11 5 12 8 8 12 4 12 7 4 6 9 13 2 9 17 13 8 6 10 20 24 15 13 21 23 16 8 13 4 16 30 14 12 14 23 26 29 32
10 5 9 11 17 8 13 10 11 8 6 5 8 10 15 12 5 3 5 5 5 11 11 5 4 5 6 18 16 16 21 18 14 8 6 10 16 19 4 12 13 24 27 27 33
5 12 15 13 10 8 5 9 11 8 12 13 12 10 5 14 17 14 16 9 10 11 11 6 3 3 4 9 9 8 20 17 6 10 14 14 20 4 4 6 9 22 29 32 36

GFSSW_850_spd_015.txt.gz
Wind_Speed
18 15 13 14 13 12 11 10 11 10 10 10 12 14 15 12 13 15 15 11 10 13 10 10 11 11 8 7 10 5 1 7 8 8 8 2 1 4 6 5 6 4 6 2 4
19 18 14 14 13 12 11 9 9 9 10 11 10 13 16 13 14 20 17 12 11 10 10 8 7 7 4 3 6 6 5 7 4 4 5 2 6 9 5 14 7 4 3 4 6
20 18 17 15 14 12 10 8 7 7 8 10 12 11 10 9 13 21 19 21 19 13 13 8 8 4 4 5 5 4 10 7 4 11 14 7 6 12 6 6 13 9 5 2 5
20 20 19 17 14 13 10 8 7 7 7 8 9 12 13 11 5 2 3 9 23 22 14 10 6 2 2 4 6 5 5 11 7 12 7 4 5 5 10 9 14 13 9 6 9
20 20 19 17 15 14 11 9 8 7 6 6 8 11 13 11 14 3 4 3 8 21 20 13 7 2 3 3 6 5 3 10 16 19 22 24 20 13 19 26 28 24 22 18 15
21 21 20 17 16 14 13 11 9 7 6 5 7 10 11 4 10 12 9 9 7 12 15 16 7 11 6 5 4 4 7 10 10 15 17 15 20 22 17 23 25 27 25 24 22
23 22 21 15 17 15 14 11 9 7 6 6 7 10 11 18 7 14 18 12 8 5 5 6 15 7 2 4 10 6 6 6 7 8 7 8 21 23 26 27 25 28 28 26 24
26 23 22 19 17 15 15 13 10 8 6 6 6 7 8 3 16 14 16 19 15 13 8 6 5 8 7 9 4 3 2 2 3 10 8 10 23 4 22 31 31 31 32 28 31
26 26 23 21 17 15 14 12 11 8 7 6 6 7 9 6 9 19 17 11 12 15 13 10 7 6 4 3 6 5 7 4 5 7 5 12 13 6 24 25 25 28 29 30 32
26 27 24 23 18 14 15 13 11 9 8 7 7 5 10 4 4 7 22 16 7 9 8 8 7 4 3 6 9 4 4 3 5 4 3 13 19 11 22 23 24 27 35 36 34
27 28 26 24 20 15 19 16 5 5 17 11 8 6 2 4 5 4 13 18 11 5 5 3 5 9 12 10 7 5 5 5 4 7 6 8 15 13 16 21 23 27 30 34 37
24 28 27 25 23 22 22 19 9 3 4 29 14 21 7 6 2 6 13 13 8 6 5 1 11 7 5 6 9 11 13 16 7 9 9 12 21 15 12 18 21 25 31 39 35
19 32 29 28 25 25 26 26 8 4 2 7 23 21 18 16 8 10 16 13 5 8 7 12 4 9 10 10 10 10 12 10 13 9 13 12 29 21 18 23 28 31 34 38 38
24 24 31 30 29 29 25 22 18 3 3 5 6 5 11 11 6 25 20 10 5 11 11 12 16 15 10 13 10 19 9 13 12 5 6 5 12 8 6 16 19 25 29 36 35
24 14 31 39 28 31 25 19 15 5 2 3 4 5 7 11 4 5 21 17 12 9 6 6 5 13 19 15 12 10 7 10 10 7 7 15 8 6 11 18 14 10 24 33 35
28 16 26 39 29 26 23 22 15 5 6 6 5 6 5 5 1 3 8 16 3 8 14 10 5 6 7 11 16 1 9 7 7 8 14 11 12 16 12 12 8 9 25 32 34
18 20 29 37 34 27 29 30 4 4 1 6 6 6 5 6 5 6 5 10 5 6 8 4 15 3 4 5 9 12 5 3 4 7 8 8 11 24 6 7 12 13 24 31 33
16 25 14 41 32 36 43 4 4 5 5 2 5 5 5 8 5 9 6 10 13 6 2 8 6 14 8 8 6 16 15 5 6 4 4 12 10 9 15 24 32 31 25 21 32
18 15 18 34 33 45 32 3 8 6 6 10 7 5 7 7 4 7 11 11 8 16 10 3 5 3 7 15 6 5 11 19 8 8 4 5 7 6 9 11 11 14 21 26 31
5 10 16 39 39 45 9 5 4 3 6 6 7 9 7 8 9 8 6 4 7 11 10 5 4 6 8 5 10 17 7 4 6 5 7 7 6 8 5 15 14 12 12 26 31
7 3 17 36 46 27 5 5 4 6 8 6 6 7 7 5 8 7 5 5 9 9 16 6 5 2 3 11 14 7 13 7 4 5 4 4 8 4 8 12 10 10 18 27 33
8 2 33 47 8 5 5 6 6 5 4 2 2 8 8 8 7 6 9 7 15 10 11 11 4 6 14 3 14 13 14 17 4 5 7 5 10 2 9 15 7 7 18 24 28
10 7 43 43 5 6 5 3 4 4 6 5 7 9 10 8 4 8 5 8 18 13 12 9 4 5 3 6 12 8 11 17 16 3 9 7 12 3 9 12 10 10 17 24 30
9 2 13 23 6 11 7 6 6 8 5 10 4 10 7 7 7 3 5 4 18 12 14 13 5 8 9 3 3 7 16 21 19 10 14 17 20 18 20 9 7 1 20 25 32
6 4 8 7 4 12 8 7 10 6 8 11 5 9 6 6 6 9 8 10 4 11 10 8 7 10 17 18 14 6 15 22 24 24 15 17 15 14 17 19 2 9 16 26 31
6 5 8 12 12 12 13 8 12 11 7 6 9 7 14 8 7 4 4 4 4 5 9 4 4 3 15 23 26 15 17 19 23 20 22 17 20 13 21 16 8 17 19 22 28
9 4 8 15 13 9 8 8 13 7 11 13 10 11 10 13 23 29 17 14 7 9 10 5 3 3 5 3 7 6 21 23 22 19 17 16 12 10 13 8 4 16 22 26 32

GFSSW_850_spd_018.txt.gz
Wind_Speed
18 19 20 18 15 11 11 12 13 12 12 11 7 10 14 15 15 15 16 12 8 13 8 8 8 7 4 3 6 4 2 5 6 7 5 2 1 2 4 4 9 3 4 2 4
21 18 19 18 17 13 11 11 11 10 10 10 9 10 13 13 14 21 17 11 10 7 10 7 5 3 4 4 5 5 3 6 5 5 4 5 5 9 5 10 11 11 6 6 5
20 19 19 19 19 16 13 10 9 8 8 8 9 9 11 14 14 20 22 21 15 12 11 7 5 2 3 4 6 4 6 3 4 5 9 6 6 6 4 5 11 12 11 7 6
24 22 21 20 19 16 13 10 8 7 7 7 8 12 11 8 6 2 6 10 21 18 10 9 5 4 3 4 6 2 7 7 4 10 7 3 6 8 10 16 10 14 13 13 10
22 25 23 19 19 16 14 11 9 7 6 6 8 9 12 11 14 2 3 5 10 24 18 10 7 5 4 3 0 4 3 6 8 12 15 18 16 14 18 26 28 28 27 22 19
24 23 23 21 19 16 14 12 10 8 7 6 8 8 12 5 11 17 6 4 6 19 19 15 6 7 3 4 4 2 3 7 8 10 11 10 16 16 22 20 23 22 26 25 24
19 22 25 23 20 16 14 13 10 7 7 7 7 9 12 20 8 9 14 11 11 11 9 11 11 5 2 3 5 4 4 6 8 10 7 10 15 17 28 30 33 39 33 30 29
20 23 25 22 20 15 14 15 10 9 7 7 7 7 9 7 14 11 20 14 11 10 5 2 3 8 4 5 4 3 2 3 5 4 7 12 20 3 17 22 31 38 39 36 32
21 18 25 24 23 19 14 12 12 10 8 7 7 7 8 7 9 15 13 13 19 12 9 3 4 4 4 2 3 5 5 5 6 3 4 11 4 2 4 12 16 24 27 27 31
25 23 26 26 24 21 12 13 12 11 11 7 10 6 9 3 3 7 17 10 8 11 8 7 6 3 3 4 6 4 4 4 5 3 5 9 15 13 21 26 23 26 29 28 30
25 27 22 27 25 24 20 18 9 5 17 10 8 4 1 5 5 4 9 17 8 7 5 3 4 8 10 8 6 2 3 7 4 8 9 14 19 17 15 20 20 27 29 33 36
26 25 19 29 28 29 26 23 17 3 3 30 14 13 5 6 3 4 9 12 7 5 4 1 10 7 3 5 7 8 10 13 9 10 11 13 25 18 15 19 26 22 29 27 34
26 20 23 32 23 34 32 28 17 7 0 5 27 17 15 9 4 10 15 9 4 6 7 11 3 7 9 5 5 6 10 7 11 7 12 13 28 19 22 31 33 36 36 38 34
28 22 26 29 25 38 32 26 18 7 4 4 5 6 17 12 6 21 19 10 3 10 11 9 12 9 5 5 8 14 7 12 11 5 6 4 11 9 8 11 14 28 28 33 36
24 22 27 16 17 45 35 31 20 7 2 3 5 6 10 17 4 2 18 12 8 8 6 5 5 6 15 18 7 6 6 9 10 7 8 10 6 5 4 8 9 10 25 32 35
21 21 30 21 23 44 36 32 22 5 6 6 4 6 8 8 3 4 11 10 2 9 12 12 5 4 5 6 12 1 6 6 5 8 10 12 10 17 7 11 9 11 28 31 30
16 14 22 14 23 41 37 33 5 4 1 6 5 6 6 6 5 5 5 10 6 4 5 2 12 3 2 4 6 10 3 3 5 6 8 9 12 21 7 6 10 12 21 28 31
9 9 16 24 34 43 49 5 4 6 5 5 6 8 6 8 4 7 4 8 10 4 1 4 5 12 12 13 7 12 11 5 4 4 4 5 7 6 13 20 28 32 27 28 23
9 7 4 15 46 48 33 3 7 6 6 10 12 6 6 5 4 7 9 8 8 14 7 5 6 1 8 5 7 5 11 14 7 7 4 4 8 11 9 11 11 18 24 29 27
10 4 7 12 46 38 10 7 4 3 6 6 5 5 6 8 8 8 6 4 7 11 7 2 5 4 3 5 11 9 3 3 5 4 5 6 10 11 13 8 9 13 11 25 26
6 5 4 19 40 20 5 4 4 6 8 4 4 4 3 5 7 6 4 4 7 5 15 4 4 2 4 8 9 6 8 7 1 4 4 3 6 7 7 4 15 17 22 26 29
1 1 7 39 7 4 4 5 5 5 2 2 3 2 7 8 7 4 7 6 10 10 10 10 3 6 12 4 13 13 11 19 8 6 5 4 14 2 5 7 11 15 18 11 22
4 1 8 46 4 4 4 4 3 4 4 3 3 4 4 6 4 8 5 6 14 11 11 10 5 4 5 2 8 9 16 19 19 1 13 8 5 7 7 7 13 9 7 5 14
3 3 8 22 2 7 9 5 3 4 4 2 2 4 4 7 6 2 4 4 19 13 13 16 4 9 11 11 3 6 12 13 14 10 18 19 15 11 13 10 10 4 5 8 17
2 2 4 4 2 9 8 7 6 4 3 6 4 7 5 5 5 7 8 9 5 13 9 7 8 11 21 23 16 13 14 18 21 20 11 12 18 13 12 13 13 9 10 13 17
1 3 6 7 11 10 7 6 13 6 7 4 8 6 9 5 7 4 5 6 4 3 8 5 8 6 19 19 20 19 17 18 22 23 26 20 23 7 14 21 20 26 15 17 19
13 10 6 13 8 9 8 4 7 7 6 7 12 11 9 11 20 23 16 14 7 4 9 4 3 3 10 6 7 5 20 19 19 20 17 16 24 12 15 16 10 22 18 20 23

GFSSW_850_spd_021.txt.gz
Wind_Speed
20 22 20 19 21 16 14 12 11 12 12 10 10 5 7 12 13 16 16 13 10 17 6 6 6 5 4 5 6 7 3 5 7 8 5 1 1 1 4 4 6 3 6 4 5
21 21 21 18 19 17 15 13 12 11 9 8 8 7 8 11 12 18 15 12 7 8 13 8 5 5 5 5 5 4 4 8 5 5 3 3 3 4 4 7 7 14 7 6 8
22 20 20 20 15 18 19 14 12 10 7 6 7 7 10 11 12 15 18 18 16 11 10 7 6 5 4 5 5 3 5 4 4 5 3 3 4 4 5 6 13 11 9 6 7
17 20 21 21 17 17 18 14 11 9 7 6 6 9 9 7 7 3 7 9 20 17 12 9 6 5 3 4 3 2 7 5 3 8 5 3 5 6 10 16 15 11 14 15 13
15 19 21 21 22 17 17 15 10 9 7 6 6 7 11 10 11 5 2 5 10 22 17 11 7 6 3 2 3 3 2 5 6 8 10 12 15 13 20 26 27 24 24 27 24
23 18 23 20 20 20 14 16 11 10 8 7 6 7 9 6 10 17 7 3 7 20 19 13 7 7 3 2 3 3 3 7 10 13 12 13 20 10 22 22 28 30 31 29 26
22 22 16 22 21 21 14 14 11 11 8 8 7 8 10 16 8 5 14 6 8 14 18 16 11 9 7 1 4 5 5 7 9 11 8 8 15 14 30 29 30 32 35 37 37
26 22 19 22 21 21 17 10 11 12 9 7 6 7 7 5 11 13 15 12 11 12 9 8 8 6 3 1 2 2 3 3 3 1 7 11 13 9 15 17 24 31 32 37 39
25 24 22 17 22 21 19 13 12 13 10 9 7 7 6 4 8 10 15 16 13 11 8 7 8 5 4 2 2 3 4 5 5 4 3 9 6 2 3 6 11 15 18 23 27
26 24 21 23 20 22 24 16 15 14 11 7 8 4 8 2 5 8 14 13 13 12 8 7 5 4 4 5 5 4 4 4 5 1 4 12 18 16 20 21 23 24 26 30 27
24 23 23 24 19 22 30 25 13 6 16 10 7 2 2 7 8 6 18 14 11 11 5 4 5 9 12 8 7 1 3 6 3 6 10 15 23 20 25 26 26 27 28 30 33
25 25 23 23 21 13 39 34 31 12 7 30 13 14 4 7 6 8 16 12 8 4 6 3 9 11 1 8 9 12 13 15 10 5 7 14 27 19 19 24 30 31 29 30 37
27 30 27 21 23 25 39 35 30 21 5 4 28 12 14 8 2 12 20 10 4 6 6 5 2 4 10 6 9 10 11 12 16 7 12 16 26 17 15 28 33 34 38 36 36
32 31 24 16 22 23 37 31 27 18 4 4 5 7 17 10 4 14 19 9 2 10 7 10 13 3 4 6 8 15 8 13 13 7 7 2 10 6 7 13 11 17 27 34 36
42 27 18 16 17 14 31 30 26 16 2 3 5 7 10 11 8 6 20 9 7 6 5 4 5 5 12 11 9 7 5 7 8 9 12 13 7 7 2 4 9 10 25 30 32
30 17 13 14 20 21 39 35 27 5 6 6 6 7 8 10 5 5 8 6 3 4 7 7 5 5 8 7 14 4 3 8 4 7 9 11 11 19 7 6 5 8 20 27 27
30 12 11 15 20 18 45 30 4 4 2 7 6 7 9 7 6 5 7 9 5 4 6 4 15 6 4 4 2 11 3 3 4 6 7 6 11 19 8 16 18 18 21 28 25
29 13 11 10 25 22 44 5 4 5 4 6 6 9 5 7 5 7 7 6 11 3 1 4 5 11 10 15 6 16 10 5 5 5 4 1 8 8 14 18 22 22 27 31 32
25 6 5 2 20 35 27 3 6 5 7 10 11 5 4 4 3 6 7 4 8 12 6 3 4 2 4 4 8 5 10 9 7 11 8 8 12 9 12 10 4 11 18 24 31
20 3 4 1 10 35 4 5 2 3 13 9 5 4 9 10 6 8 7 4 6 9 7 3 4 4 0 5 9 6 3 4 5 4 8 6 7 11 4 7 3 7 12 25 24
6 2 8 10 24 11 1 3 5 6 12 4 4 5 5 6 8 7 4 4 4 4 10 5 5 2 5 11 12 7 6 6 2 5 4 5 7 7 11 6 6 7 14 27 30
11 2 8 23 3 0 2 6 4 4 3 3 3 5 5 6 5 5 6 5 10 9 9 9 4 5 11 9 16 18 16 19 9 12 5 3 13 2 4 5 6 10 19 25 27
12 3 10 26 4 2 2 4 4 3 2 2 3 2 4 5 4 6 4 5 17 9 10 9 4 4 6 1 7 10 17 22 12 8 11 5 10 1 3 1 4 8 13 22 21
3 1 5 6 0 5 5 3 4 4 3 3 3 4 3 3 4 3 4 3 17 11 11 15 5 7 10 14 5 8 15 17 18 8 15 19 21 13 14 14 8 12 16 19 18
1 2 4 2 1 4 4 4 5 3 3 3 2 2 4 4 5 5 6 2 5 12 8 8 6 10 19 24 23 23 24 17 21 24 12 14 21 20 16 15 9 15 14 20 17
7 3 3 4 9 6 5 4 6 3 4 2 3 6 5 4 6 4 4 5 6 4 7 4 5 5 23 21 19 21 22 21 21 21 22 22 25 14 9 12 6 10 20 23 18
16 10 2 12 5 6 5 6 8 5 6 2 7 4 7 9 11 16 15 8 5 4 10 5 2 3 17 12 17 8 7 11 14 19 15 16 21 7 5 5 7 17 29 26 17

GFSSW_850_spd_024.txt.gz
Wind_Speed
19 19 17 19 19 17 17 16 13 13 12 11 9 8 7 9 13 17 17 12 12 17 5 7 6 6 6 7 7 6 8 12 20 16 11 5 9 9 4 7 3 4 3 1 4
14 17 18 18 20 17 14 16 15 13 12 11 9 9 9 10 12 19 18 13 6 9 14 8 7 7 7 9 8 12 11 16 10 12 7 9 6 4 6 10 12 8 3 2 3
18 17 18 19 19 20 14 15 16 14 11 10 9 9 10 10 6 11 15 17 14 11 9 10 7 8 10 8 9 10 14 11 7 10 6 11 11 11 12 13 15 14 7 4 2
26 16 15 20 19 20 19 13 16 14 11 9 8 9 11 12 7 5 9 12 18 14 12 10 9 9 8 9 9 9 14 13 7 9 7 12 11 14 18 23 12 10 11 12 11
25 23 19 15 20 20 22 15 14 14 12 9 7 8 14 10 11 5 4 6 13 21 17 14 11 8 8 5 7 12 9 8 10 10 13 15 21 22 23 25 24 23 21 20 19
24 25 20 18 17 21 21 19 13 13 12 9 7 8 10 12 11 18 6 2 7 19 17 15 9 7 4 5 9 2 6 10 10 14 14 17 24 21 29 27 28 29 31 30 27
22 25 22 16 17 20 20 21 13 13 12 10 8 9 9 10 7 9 13 8 7 16 20 14 12 7 7 5 5 6 10 12 15 15 14 12 19 20 34 28 31 28 28 27 29
27 23 21 24 18 17 22 25 17 13 13 9 8 7 7 6 13 10 13 11 9 10 13 15 11 9 2 3 2 4 5 5 4 3 6 9 16 6 13 17 23 24 27 30 30
25 22 21 18 20 14 22 28 20 15 14 11 10 7 4 5 9 12 16 13 14 13 12 12 11 6 5 5 5 8 8 9 10 8 7 12 12 6 3 7 13 16 18 19 22
26 22 20 19 21 20 18 24 21 19 15 15 8 4 7 4 7 14 19 18 13 14 11 7 4 6 7 8 8 6 10 10 11 2 8 16 21 19 24 27 25 25 25 25 24
24 23 22 21 22 24 13 18 19 10 19 7 9 3 5 8 10 13 19 15 13 13 8 6 5 11 15 14 13 5 8 11 10 9 17 19 23 23 26 31 31 32 32 32 33
26 27 27 25 25 21 22 17 30 14 10 17 8 7 6 9 5 11 20 12 14 13 9 5 12 13 8 12 13 13 15 17 16 14 13 19 32 25 27 33 34 34 35 35 35
28 29 26 34 22 23 27 21 31 24 6 9 17 9 8 9 6 16 20 10 12 12 16 9 2 5 13 14 13 16 17 15 17 17 19 21 26 12 5 13 21 28 33 34 33
30 31 39 21 20 19 21 23 30 10 3 9 12 13 13 7 5 12 20 9 5 12 11 9 12 6 9 12 13 15 12 14 13 11 6 2 11 16 14 14 11 14 18 22 24
31 34 30 11 8 12 16 18 28 13 7 12 8 10 14 14 12 8 16 5 9 9 7 5 7 12 15 12 12 7 5 7 9 12 13 17 7 11 5 11 10 14 19 21 20
34 38 22 11 16 13 11 28 24 5 6 7 8 13 15 17 7 8 11 4 5 7 9 10 2 5 8 10 13 3 6 10 10 8 9 18 15 20 15 12 9 8 12 18 20
39 42 14 12 12 17 17 28 5 4 7 8 9 11 15 10 9 10 12 10 7 5 8 7 16 7 7 6 6 12 4 3 4 6 8 2 11 21 6 6 10 19 22 18 20
35 32 8 10 14 14 15 3 4 7 7 6 12 17 8 18 8 9 12 10 12 4 2 5 4 13 11 14 4 15 13 6 6 6 7 2 12 8 10 12 15 10 16 14 19
38 6 3 8 12 20 22 3 1 6 12 13 12 8 5 11 5 8 10 6 9 12 6 5 4 3 10 8 12 6 10 14 15 22 14 15 23 26 26 24 17 16 8 11 19
28 4 3 6 10 21 6 4 0 5 18 16 6 7 8 13 8 10 12 7 9 14 13 2 4 5 4 7 13 13 1 5 6 6 12 14 17 14 13 11 8 9 4 12 16
20 3 3 11 16 15 3 2 5 14 12 3 6 9 8 12 9 11 8 2 10 10 17 7 4 3 3 13 13 9 7 7 8 10 8 17 14 8 9 12 16 4 7 9 16
11 2 10 33 5 2 3 2 7 8 5 3 6 9 13 13 11 9 9 5 9 12 10 13 4 9 15 10 12 17 13 20 9 11 8 12 18 7 5 2 4 6 7 8 12
8 3 8 4 3 3 2 3 6 4 2 2 4 3 4 8 6 7 5 2 12 12 11 12 6 4 4 3 7 9 16 23 19 12 19 11 15 3 3 7 14 10 11 15 14
2 2 5 2 3 9 11 6 5 4 4 6 6 6 6 5 2 6 6 3 11 13 8 15 5 7 9 13 4 9 17 17 18 11 21 22 30 25 18 17 20 19 16 18 13
5 3 2 2 6 8 6 3 9 4 3 3 3 3 4 4 5 4 7 3 5 11 9 9 5 11 20 23 22 23 28 25 19 25 15 28 21 22 16 16 19 23 15 13 15
8 5 8 2 9 9 4 5 5 4 3 3 2 6 5 3 4 5 4 6 6 10 11 7 5 5 16 21 20 22 21 20 19 18 23 27 27 25 22 18 20 8 12 11 10
19 10 2 5 4 7 5 6 7 4 1 3 2 3 5 5 8 9 11 10 4 5 11 5 3 3 7 12 24 8 5 9 9 7 11 17 23 15 12 9 7 10 15 18 22

GFSSW_850_spd_027.txt.gz
Wind_Speed
17 21 17 17 18 20 20 16 15 16 15 13 12 12 10 7 9 15 19 13 14 17 6 6 8 10 10 10 12 13 13 16 21 22 15 13 8 15 11 14 8 11 11 4 5
21 21 18 17 18 19 21 19 15 15 16 14 12 11 10 7 11 19 18 17 12 11 15 9 12 12 15 14 11 13 13 20 16 15 16 15 12 16 10 17 17 13 8 2 3
24 22 22 18 19 18 18 22 16 14 14 14 12 9 10 8 9 18 23 20 15 11 10 15 9 13 17 13 17 16 18 14 17 11 10 14 14 16 13 15 17 20 15 9 6
23 23 23 22 16 20 17 22 16 14 13 14 11 8 11 12 7 4 13 19 18 15 13 14 15 15 12 12 16 16 17 22 15 9 13 13 19 19 22 21 18 14 13 9 11
25 24 22 23 22 16 18 17 20 15 12 13 11 8 13 11 14 5 5 9 16 18 18 16 17 17 12 10 10 13 17 15 16 17 16 17 21 21 22 22 22 24 20 19 19
24 25 24 23 21 18 16 17 22 17 13 12 11 10 12 14 10 11 7 4 10 19 19 16 9 12 8 8 10 2 13 15 16 18 18 19 23 24 21 28 29 29 28 28 28
26 24 26 23 21 18 15 19 20 21 13 13 11 9 11 15 4 9 18 6 8 18 18 16 8 7 6 7 10 9 14 14 19 21 15 14 20 24 33 30 30 30 29 31 32
27 30 25 23 20 19 16 18 16 21 15 13 11 8 8 10 14 8 7 9 5 11 16 12 12 5 4 3 5 6 11 11 3 9 14 10 17 10 13 20 26 30 30 31 30
27 26 23 22 18 18 24 15 21 25 18 15 11 9 6 9 10 13 10 12 9 9 11 15 10 4 2 6 7 11 10 14 10 10 8 14 12 9 6 10 18 18 21 25 27
25 23 21 21 19 19 21 22 24 25 20 17 7 6 11 8 9 11 13 13 12 16 14 9 4 3 8 9 8 9 15 12 12 4 7 15 21 20 23 23 22 23 23 24 25
25 23 21 25 22 21 20 21 13 14 29 10 17 3 9 9 9 13 16 16 15 15 7 10 7 11 16 16 15 9 8 11 10 9 16 21 22 20 23 27 28 29 30 32 32
24 24 24 26 30 22 19 14 14 3 7 14 13 10 9 12 9 17 19 12 12 13 10 5 12 15 10 11 12 13 14 15 14 14 13 17 28 25 27 29 31 32 35 35 35
26 24 26 30 26 34 23 26 18 12 5 16 17 17 11 10 9 22 23 16 13 15 15 9 3 8 14 12 12 13 13 12 14 17 18 21 24 15 7 10 19 29 34 37 36
23 27 27 30 22 14 19 18 25 9 4 11 11 9 11 9 6 17 21 11 7 14 12 10 7 5 10 13 12 13 10 13 14 9 6 3 10 15 15 16 14 15 17 20 22
24 25 31 26 20 10 2 19 23 14 6 17 12 10 19 12 19 13 19 7 10 10 7 4 7 12 11 12 9 7 2 6 8 10 13 14 7 13 5 11 12 13 16 15 17
26 34 30 22 12 9 8 14 10 4 4 7 8 14 16 15 8 15 19 5 4 7 11 10 4 5 8 9 12 3 5 7 9 6 8 11 15 19 11 15 14 12 20 12 11
34 38 29 12 6 14 18 23 4 5 11 9 9 14 17 13 11 13 14 11 8 5 8 10 15 7 10 8 6 9 2 2 3 5 7 5 10 20 11 17 7 7 10 18 13
37 26 2 7 10 15 14 4 9 7 7 8 14 17 10 17 10 14 14 12 15 11 2 8 6 17 12 13 6 14 10 5 5 7 10 8 10 7 8 5 7 15 23 19 17
35 8 4 9 12 16 13 3 1 13 10 12 17 11 5 17 6 11 13 11 13 14 7 6 4 3 10 8 12 6 9 11 13 18 11 9 21 24 26 24 21 21 22 20 14
25 7 2 7 13 16 2 2 1 9 15 18 6 6 8 17 10 13 12 13 10 16 12 0 3 5 7 4 10 10 4 1 4 5 10 13 20 14 15 14 15 12 17 17 11
7 3 5 11 18 5 1 3 10 23 9 2 10 9 9 15 10 15 16 5 17 14 14 7 4 6 3 11 13 10 6 6 6 5 6 14 13 10 10 5 9 7 7 7 11
7 2 9 14 3 2 2 2 13 7 4 4 8 6 16 17 11 12 9 2 10 10 11 10 3 6 11 8 7 12 13 17 7 9 7 12 20 13 11 10 5 11 9 9 9
4 4 7 5 2 1 3 3 6 3 3 3 5 3 6 13 6 6 8 4 11 12 10 11 5 3 2 0 11 10 15 18 18 16 20 15 18 3 6 8 11 13 20 14 15
3 2 5 5 1 11 6 4 5 6 9 10 9 10 9 13 3 8 6 4 10 12 6 11 5 7 6 8 5 6 14 16 14 9 18 24 33 28 24 21 20 24 25 28 21
9 4 3 2 2 7 6 4 2 3 4 4 4 3 3 4 4 4 5 7 6 8 6 5 3 7 16 22 20 19 22 23 20 21 16 31 28 27 22 20 16 22 16 17 9
5 4 8 2 8 8 5 7 7 4 1 3 5 5 3 4 2 5 6 6 5 9 10 4 3 4 15 20 17 15 21 19 18 20 18 22 28 22 21 24 17 10 16 8 12
13 8 2 0 7 5 4 6 5 5 4 7 5 4 3 4 3 1 3 6 5 7 11 4 2 2 6 10 19 9 3 8 11 14 9 12 16 13 14 10 11 13 17 13 12

GFSSW_850_spd_030.txt.gz
Wind_Speed
22 21 20 18 15 16 15 18 19 17 15 14 14 14 12 10 10 12 18 15 20 17 7 5 9 11 12 15 18 16 6 11 17 14 12 18 8 8 8 11 12 5 11 10 10
25 23 23 22 21 17 17 15 20 19 15 15 13 13 10 10 11 17 19 15 13 15 16 10 11 13 16 15 13 7 8 11 11 12 11 18 9 5 5 12 15 13 7 3 8
25 24 24 22 21 20 18 18 15 23 15 14 12 10 9 9 8 14 17 20 21 16 14 12 11 14 15 18 18 11 13 9 16 22 9 12 17 8 7 5 13 19 14 13 9
26 26 22 24 22 22 19 19 17 21 16 12 11 8 9 9 5 4 9 14 18 15 11 14 14 12 8 13 18 16 16 19 22 21 7 6 14 13 14 14 19 22 11 7 16
26 26 25 23 22 22 20 17 18 17 18 12 10 8 12 10 11 6 3 14 18 19 17 15 18 14 12 11 16 11 16 17 16 19 11 10 12 13 21 19 22 26 24 15 11
27 28 27 24 23 21 19 18 16 17 21 15 11 11 16 14 10 4 5 5 10 16 19 18 14 18 14 17 8 7 10 14 22 10 13 14 13 19 15 24 27 26 27 24 21
28 27 27 27 25 22 18 20 14 19 23 16 13 14 13 17 8 9 11 8 7 15 21 19 12 6 1 3 9 5 7 10 14 13 10 7 15 17 29 32 31 29 30 32 32
27 28 28 25 22 20 16 18 18 12 15 17 14 13 9 12 18 11 7 9 6 13 20 17 11 7 5 3 0 4 9 10 10 18 17 15 15 10 25 30 32 34 32 31 32
26 25 24 23 20 20 18 20 24 22 18 18 16 13 8 11 18 18 9 14 6 9 14 11 10 4 4 3 3 8 7 11 10 5 4 8 5 11 20 11 12 16 27 30 34
25 23 24 21 21 21 20 22 22 17 20 18 10 10 12 11 13 15 16 13 11 11 12 7 4 4 3 5 6 7 11 9 9 5 4 8 13 11 22 25 21 20 21 21 23
22 21 23 24 20 23 24 19 6 7 26 8 12 2 19 17 15 17 17 16 13 13 5 11 4 8 12 11 10 12 10 8 10 9 9 10 16 14 20 24 24 27 27 29 32
22 23 21 22 21 25 15 8 11 2 8 23 18 6 16 18 13 18 20 11 10 9 6 3 6 8 12 12 8 6 7 10 9 8 7 11 22 20 20 24 30 29 31 31 31
25 22 20 24 27 25 22 22 15 14 7 21 21 15 17 12 11 22 23 11 9 8 8 7 2 8 10 5 6 7 7 7 9 11 11 14 17 11 9 21 33 36 36 34 35
22 21 23 28 23 20 10 11 22 23 3 13 15 12 13 9 7 21 22 10 5 11 10 5 6 3 5 9 7 5 3 6 8 7 3 10 7 8 11 9 7 17 20 27 31
22 23 28 26 27 18 7 8 10 6 4 14 8 18 16 10 21 16 21 8 8 10 6 3 4 6 4 5 5 3 7 4 5 6 8 4 4 7 7 7 5 8 13 12 17
23 30 34 30 15 9 8 13 20 4 1 5 8 11 13 17 5 18 13 5 2 3 7 5 4 1 5 4 4 5 1 2 4 2 5 12 10 6 3 3 4 9 5 22 14
29 36 25 13 4 10 22 20 5 6 5 7 10 13 15 13 10 15 10 6 5 5 3 3 7 4 4 5 5 7 2 2 2 2 6 4 9 12 15 18 13 7 3 8 2
35 26 6 2 7 15 21 3 2 5 2 6 15 14 10 14 9 12 12 8 10 7 5 5 4 15 8 7 4 8 4 3 5 3 3 7 7 6 10 8 4 5 8 16 22
25 8 8 9 15 20 6 3 2 8 9 11 19 13 6 11 7 10 10 7 10 10 4 5 3 5 11 5 6 4 5 1 5 5 2 5 7 10 14 16 14 14 13 25 18
10 7 10 8 12 14 2 1 3 7 14 17 5 6 7 14 8 8 12 11 10 13 8 4 3 3 6 5 7 8 1 2 0 3 6 6 9 9 6 7 8 8 7 9 18
10 4 7 8 11 3 1 3 5 17 15 1 10 7 9 16 6 9 11 4 14 14 12 4 1 4 5 8 9 7 4 4 3 3 4 5 5 4 5 6 5 8 11 11 7
9 3 8 10 3 2 3 4 9 8 6 6 6 7 9 15 7 9 9 4 19 10 10 4 2 3 9 8 12 12 7 10 3 5 5 3 11 13 7 7 6 11 10 11 11
4 5 3 3 2 1 5 6 4 3 4 3 4 5 14 11 6 6 9 5 2 6 10 8 3 2 1 4 8 5 7 11 13 9 17 9 10 12 18 20 26 19 24 17 12
3 2 4 4 1 4 4 5 3 11 11 8 8 7 13 7 3 7 7 2 5 3 7 14 4 4 3 2 4 4 4 9 7 7 13 20 33 25 24 22 21 21 18 20 17
6 3 3 1 2 5 3 2 2 4 4 3 2 6 9 5 6 6 10 7 5 4 3 1 3 3 7 13 10 12 16 17 17 19 14 23 27 29 25 21 23 24 16 14 20
3 2 5 3 2 7 6 4 3 6 7 5 9 6 3 6 6 7 7 8 5 7 6 3 2 2 6 14 14 16 16 16 16 18 17 19 24 20 17 14 14 14 9 11 12
9 7 3 4 4 2 2 3 4 3 8 9 6 6 9 8 6 5 5 5 3 5 7 5 3 1 4 7 9 6 6 6 7 11 9 10 18 17 12 9 7 7 16 13 16

GFSSW_850_spd_033.txt.gz
Wind_Speed
23 22 21 20 19 17 18 15 12 16 18 15 13 13 10 11 12 13 20 16 22 17 6 7 13 17 12 9 16 14 2 5 8 8 7 23 6 11 4 9 7 2 12 19 15
22 23 24 21 22 20 18 18 15 13 20 17 14 11 10 10 13 19 18 9 13 18 14 12 12 15 10 10 7 7 6 7 4 9 7 12 4 9 5 5 2 3 14 16 15
25 24 24 24 22 23 20 19 17 16 15 20 16 9 9 8 6 18 13 21 16 16 14 16 14 14 15 14 16 5 5 4 14 22 12 5 8 9 5 2 11 10 13 15 13
26 24 23 25 24 22 22 20 19 16 15 20 17 9 9 10 6 2 6 22 20 21 15 19 15 6 8 7 15 5 6 20 21 28 16 4 8 8 2 5 9 7 10 9 19
26 25 23 25 25 23 21 21 18 17 17 18 16 12 13 13 12 3 2 14 21 20 19 21 16 11 6 7 14 6 7 20 21 21 12 9 7 7 14 18 14 17 15 11 11
25 25 25 24 23 24 23 21 16 18 15 17 19 15 17 8 6 7 6 12 19 20 20 21 10 18 6 9 6 5 7 4 8 14 11 7 9 9 4 21 25 25 26 23 17
28 25 25 24 23 23 19 19 16 20 18 12 26 21 17 21 9 12 11 7 6 14 21 23 10 14 7 4 2 4 2 6 7 11 6 11 7 7 20 29 29 31 32 36 30
26 25 23 22 22 21 18 17 17 20 18 19 23 19 9 21 18 14 14 13 12 11 15 20 12 11 3 2 2 3 3 1 7 11 13 12 13 6 19 26 26 32 37 38 42
25 22 21 21 21 20 17 20 18 19 27 10 25 16 7 13 25 18 15 17 9 14 13 15 12 5 3 5 2 2 3 5 6 10 7 11 3 13 26 19 22 22 30 35 38
24 22 19 21 21 20 18 20 17 20 19 28 17 10 10 14 23 24 16 18 10 17 14 7 4 3 1 3 6 6 5 4 6 5 2 5 9 7 20 22 23 25 27 24 26
22 20 21 21 19 21 18 20 5 4 17 7 20 5 6 13 16 21 25 16 14 14 5 6 3 7 10 7 3 4 4 4 4 5 2 6 8 10 18 21 24 28 29 37 37
24 23 20 17 20 22 26 12 11 1 6 24 29 2 26 25 13 23 22 12 10 4 7 4 1 3 6 9 9 4 5 5 5 5 5 10 21 18 19 27 30 34 29 36 39
23 21 18 22 26 17 22 13 10 3 3 10 24 13 24 12 9 25 23 12 6 5 5 6 4 13 8 1 6 1 3 4 5 6 5 8 10 8 7 19 30 32 37 35 41
22 18 20 26 19 14 20 3 16 9 2 9 7 11 18 16 6 23 19 14 4 8 5 2 3 4 2 2 2 0 4 4 4 5 4 5 7 7 8 9 7 18 27 34 37
21 20 24 26 26 16 11 1 11 8 3 12 10 21 21 3 23 16 17 4 7 9 6 4 4 5 3 2 3 3 6 4 3 3 5 2 2 7 6 6 7 7 12 26 26
26 29 30 24 10 4 11 10 12 3 2 4 9 11 7 20 4 19 6 4 5 5 4 4 7 4 5 2 4 4 3 3 3 2 3 8 6 5 3 5 2 4 14 5 22
29 29 14 4 3 9 14 17 6 0 6 5 10 13 14 6 6 9 6 4 5 5 2 3 3 3 4 4 3 4 5 3 3 1 6 1 5 6 9 10 4 10 11 5 8
22 10 4 5 7 15 26 1 4 6 3 11 15 15 7 9 8 7 7 4 2 3 4 4 3 8 4 5 6 5 6 4 5 3 4 1 7 6 12 17 15 12 12 13 16
12 14 12 9 13 15 4 3 2 3 1 9 13 7 4 4 7 5 4 5 5 3 5 4 2 4 5 4 6 4 3 2 1 2 3 5 7 8 8 7 8 5 7 12 19
15 14 16 8 9 6 2 2 3 3 12 10 5 3 5 6 6 5 8 6 4 8 2 1 4 3 3 4 3 4 4 3 2 3 5 5 5 7 5 5 6 8 12 14 6
9 6 8 8 3 2 2 4 2 19 14 1 5 6 9 6 6 6 10 7 8 9 5 2 3 2 1 5 7 3 4 4 2 4 3 4 5 5 4 2 3 6 13 19 17
13 3 7 5 2 2 1 2 2 6 10 2 5 8 8 6 5 3 8 2 16 16 6 3 4 3 9 6 8 5 5 5 4 5 4 2 7 15 17 5 13 21 28 33 36
4 3 4 5 3 4 5 8 5 7 5 2 4 3 13 5 5 4 4 5 14 9 11 5 2 1 1 3 2 5 7 6 3 2 10 4 8 4 15 18 32 33 30 34 32
3 3 5 3 3 2 5 5 5 14 6 6 9 16 7 3 3 7 3 3 5 5 9 8 4 5 5 2 3 1 3 7 9 4 8 17 26 28 25 24 24 28 23 29 20
3 2 3 2 2 2 1 5 5 4 7 6 6 8 6 4 8 5 6 3 5 4 4 3 3 1 5 7 5 6 10 11 12 16 10 25 21 26 26 23 26 6 14 9 9
5 4 7 5 2 4 2 3 5 5 6 6 6 10 10 5 1 8 7 4 4 2 3 2 1 1 5 10 10 9 13 13 16 18 19 22 24 20 21 22 16 12 10 12 9
8 6 5 7 3 1 2 2 4 2 9 9 4 5 9 4 6 7 10 7 9 7 6 5 4 2 5 4 5 3 6 6 5 6 9 9 13 19 21 14 11 13 14 12 18

GFSSW_850_spd_036.txt.gz
Wind_Speed
22 22 21 21 20 18 20 17 19 17 15 16 17 15 12 13 14 15 23 15 20 15 16 14 19 18 14 9 12 10 3 4 5 7 4 7 4 11 14 8 6 5 13 8 18
25 24 23 22 22 19 21 19 17 18 18 14 18 15 12 12 14 22 21 15 17 22 19 17 15 19 11 10 8 6 5 8 5 5 3 8 3 9 8 6 1 9 11 17 19
25 25 22 20 22 24 20 19 18 18 18 21 12 16 13 9 8 23 18 20 21 29 19 15 10 16 8 7 9 5 5 8 7 12 8 5 12 5 3 5 4 4 19 20 21
29 25 26 24 21 22 22 20 19 18 18 18 16 17 13 9 7 1 8 22 21 25 21 19 15 7 6 6 9 3 9 13 5 16 10 4 10 3 8 7 4 2 7 11 20
29 27 23 25 24 22 21 20 19 17 16 18 15 16 14 11 16 7 5 26 23 23 25 23 17 10 6 8 9 3 3 10 14 17 10 12 9 9 11 17 17 13 8 9 13
29 27 25 22 24 22 21 21 17 16 16 18 16 19 20 8 12 10 5 24 27 24 25 23 15 18 5 4 9 2 14 12 13 9 6 7 8 13 5 12 24 25 22 18 14
27 24 22 21 22 20 20 18 16 14 16 19 22 10 21 25 8 14 11 17 25 22 23 25 11 12 7 1 13 7 5 3 6 5 4 4 15 8 18 26 29 33 31 30 27
25 23 21 19 19 19 18 17 14 13 14 19 22 11 9 22 12 18 16 16 13 16 21 22 15 6 4 3 3 5 3 2 4 4 7 9 19 3 12 21 28 30 30 28 30
24 22 20 18 18 19 16 16 18 14 14 14 21 12 4 14 26 24 19 18 15 13 16 18 17 4 5 5 2 1 2 4 7 8 6 9 2 10 29 27 21 25 28 30 28
24 23 20 19 20 17 19 20 17 14 13 12 17 9 9 16 31 23 19 18 15 17 14 10 5 3 2 4 6 6 4 3 5 3 1 7 8 11 15 11 21 25 29 31 32
24 23 21 18 15 17 20 27 5 2 12 8 7 5 10 17 25 27 20 19 14 16 5 6 4 6 12 7 4 2 2 2 4 3 5 7 5 10 19 17 20 29 31 38 39
25 23 17 17 19 21 21 12 8 2 3 19 5 22 8 23 16 26 24 11 9 4 7 4 3 7 5 1 8 2 2 5 6 2 3 7 15 16 14 20 26 32 36 35 41
21 20 17 19 24 12 9 18 4 1 2 4 18 14 21 18 9 22 25 11 6 6 4 6 4 8 9 9 7 4 4 2 4 6 1 8 12 8 6 13 20 31 37 33 39
20 19 19 24 17 10 19 7 10 2 2 4 13 11 17 15 6 20 18 11 3 7 10 5 3 10 7 3 3 4 3 4 4 4 4 5 6 6 8 10 8 15 12 21 27
26 26 26 21 21 14 10 1 11 7 5 7 8 24 12 1 23 12 8 5 6 6 5 3 6 8 6 4 4 3 5 4 2 3 4 2 2 8 4 8 8 7 8 9 17
27 23 19 12 2 3 8 13 10 4 1 3 7 10 7 12 4 14 2 7 14 7 6 3 5 3 4 4 5 7 5 6 4 3 2 4 5 5 4 4 2 3 12 15 12
19 15 10 7 4 3 15 10 4 1 2 4 10 12 15 5 6 3 4 8 4 5 3 1 2 2 6 7 4 6 6 3 4 1 6 1 3 9 9 10 4 8 24 14 10
19 15 15 14 7 10 12 1 5 3 3 3 12 14 7 8 6 9 5 4 3 4 4 4 2 5 2 4 5 3 5 4 4 3 4 2 6 6 7 14 9 9 10 13 13
13 19 21 15 15 7 3 3 1 3 3 9 16 10 6 4 6 4 1 4 2 2 5 4 0 1 4 4 6 3 2 3 2 2 3 4 7 9 5 3 7 11 19 23 25
10 16 15 10 4 9 2 3 3 4 14 6 5 2 4 4 6 3 5 2 3 5 2 5 4 3 2 4 3 4 5 3 3 1 4 5 5 6 4 4 5 7 13 19 27
3 5 6 7 4 2 2 3 3 8 4 5 3 5 6 5 7 3 8 2 6 4 2 2 4 3 3 3 6 3 3 2 3 4 3 4 6 5 3 2 4 7 20 24 32
6 3 4 10 3 2 2 2 2 7 9 2 5 7 4 4 4 3 8 4 12 6 5 1 4 3 6 2 4 4 5 5 4 3 2 2 7 7 6 1 8 28 28 30 35
3 4 5 6 3 4 3 2 6 3 3 2 3 3 5 5 5 3 4 3 16 7 7 3 2 2 2 4 3 3 5 4 3 2 6 2 6 1 7 19 27 26 34 31 23
3 3 6 5 3 3 5 5 5 10 7 6 4 10 4 3 2 4 2 5 6 7 11 6 3 5 5 4 3 2 4 8 8 3 3 9 16 21 18 22 22 32 27 13 17
4 2 3 3 4 3 3 4 5 7 8 6 4 5 4 3 5 4 3 3 6 6 4 4 3 2 4 6 3 5 6 8 12 17 6 14 16 23 22 23 20 21 16 12 12
4 3 6 4 8 2 4 5 6 5 6 4 4 1 2 4 2 5 6 3 3 1 3 2 1 3 4 4 8 6 11 13 14 13 17 20 23 21 24 24 13 15 15 15 15
5 3 3 7 4 2 2 1 2 2 6 8 3 3 9 3 7 5 5 13 8 7 3 5 4 2 4 3 4 5 9 11 6 6 7 7 9 12 14 8 7 12 14 17 20

GFSSW_850_spd_039.txt.gz
Wind_Speed
26 23 23 23 23 24 21 19 20 19 24 25 12 17 16 15 15 18 25 24 23 11 22 22 20 16 13 10 10 9 3 4 5 7 4 3 3 2 8 12 10 5 9 5 20
26 28 26 25 22 22 21 22 22 19 19 26 28 12 18 14 18 26 29 19 15 17 19 25 24 20 10 10 10 6 5 8 5 5 2 5 2 6 5 11 5 5 8 7 26
28 29 28 27 27 22 23 20 20 20 21 23 26 16 20 15 13 29 22 24 23 25 21 20 18 20 11 8 8 6 5 5 5 8 5 3 8 3 4 5 4 5 5 20 25
27 27 26 26 26 27 23 22 19 20 20 22 20 21 20 17 7 2 8 22 25 29 24 19 13 14 6 6 10 3 8 7 9 19 9 1 8 4 9 14 4 5 2 13 20
28 27 25 24 21 22 20 21 19 21 19 19 18 13 17 14 18 4 5 17 26 32 30 21 18 11 7 10 4 4 2 11 17 17 10 9 9 10 11 18 17 17 13 8 11
29 26 24 22 21 20 19 19 19 18 17 16 13 18 13 9 14 13 6 16 29 31 32 25 15 14 9 5 9 4 10 12 10 10 8 6 8 14 3 7 20 21 19 19 16
26 24 22 20 20 18 17 18 17 14 15 11 18 10 13 22 7 16 9 21 30 31 33 26 12 14 6 3 6 12 2 2 7 5 5 2 11 7 19 23 28 33 30 28 27
26 24 22 20 18 16 18 16 15 13 13 12 12 13 7 19 7 16 11 23 24 23 26 23 14 17 4 3 4 6 3 3 3 6 6 8 18 6 8 22 28 31 35 33 33
24 23 22 20 17 17 14 14 15 11 14 11 11 7 2 13 22 18 16 17 21 18 19 17 19 5 4 5 3 1 4 3 5 7 3 8 3 5 13 27 24 30 34 36 31
24 22 22 19 18 15 15 17 22 12 11 9 6 5 8 10 23 23 20 16 13 15 13 13 8 4 3 3 7 6 5 3 4 1 3 6 8 14 24 20 16 22 28 33 34
28 23 19 15 15 15 20 22 4 2 10 8 5 6 5 15 23 23 21 17 12 13 4 6 3 8 11 7 2 5 3 3 3 2 3 6 5 11 18 17 19 28 33 38 41
24 18 17 15 17 20 17 4 12 2 4 16 8 20 6 16 18 22 19 10 8 5 6 4 9 5 7 5 3 2 2 2 4 1 2 6 12 15 16 16 26 30 35 40 43
26 23 19 15 20 13 10 21 4 6 1 1 7 6 5 18 12 20 21 8 6 5 6 4 4 9 6 4 4 2 3 3 4 4 2 7 8 5 5 11 18 27 34 34 37
33 28 21 19 13 6 14 8 10 6 3 4 3 5 8 19 4 22 21 5 3 8 6 3 3 11 11 8 4 3 1 2 3 3 3 5 6 6 8 12 4 19 19 15 16
22 17 12 8 10 8 6 4 10 5 6 9 7 16 11 3 22 13 15 3 4 10 4 2 3 10 8 6 6 3 3 4 3 3 3 2 1 8 4 7 7 6 12 7 17
19 18 13 12 9 5 7 13 6 2 5 1 6 7 7 10 4 14 4 8 9 6 10 4 5 3 3 3 2 7 5 6 4 2 2 2 3 6 3 1 7 8 27 23 21
17 18 13 10 10 10 12 4 3 3 2 4 7 10 11 11 7 3 0 5 3 5 3 5 3 2 6 7 5 5 5 2 4 3 5 4 3 10 9 9 6 9 16 23 25
18 14 17 19 13 11 3 1 6 1 3 4 16 14 7 8 6 4 4 4 3 4 3 4 1 4 1 4 5 2 5 4 5 2 4 1 5 6 3 2 7 12 15 22 29
12 15 16 13 12 8 6 3 2 2 4 11 15 8 4 7 4 3 3 3 3 2 5 4 2 1 2 3 5 4 1 2 5 3 3 3 6 8 5 7 6 13 25 33 39
8 9 13 9 9 10 2 6 5 2 6 6 5 2 4 4 3 4 3 5 4 2 2 4 5 2 2 4 5 3 7 3 3 1 3 3 5 4 5 5 6 9 20 30 29
5 2 10 12 9 6 3 5 5 8 11 5 2 5 5 5 5 3 5 3 1 3 5 4 4 1 3 3 6 2 1 4 4 3 3 2 5 6 3 3 7 12 21 23 29
6 3 12 12 2 1 2 2 3 4 3 5 5 6 4 4 2 3 4 3 5 7 4 2 4 3 5 1 1 3 5 4 4 3 1 2 7 4 4 2 12 18 24 29 30
5 6 7 9 3 3 2 2 2 2 3 3 3 1 2 4 4 3 3 1 9 5 6 4 1 3 2 4 3 2 4 4 4 3 5 4 5 1 7 17 24 23 30 28 26
3 3 6 6 4 2 4 4 3 5 4 5 4 4 4 3 4 4 2 4 10 8 7 6 3 4 5 3 3 2 4 6 6 3 3 6 9 17 17 18 23 24 18 23 21
4 2 3 4 5 4 3 2 4 6 5 7 4 5 6 3 2 3 2 2 5 7 4 4 2 2 4 5 3 4 4 7 7 8 6 2 6 17 18 19 20 13 17 20 21
3 2 4 5 10 5 4 5 4 5 5 5 5 5 3 3 2 6 5 2 2 2 3 3 2 2 4 4 5 5 8 9 9 9 11 18 22 22 29 19 12 11 14 17 20
4 3 3 6 4 2 2 1 1 2 5 6 1 4 6 4 3 4 4 9 6 6 3 4 5 2 4 4 5 5 8 10 5 6 10 12 13 11 7 11 6 10 12 14 16

GFSSW_850_spd_042.txt.gz
Wind_Speed
24 25 26 28 25 25 24 23 20 20 23 22 21 23 16 20 17 20 28 23 24 7 13 24 22 17 13 9 8 8 3 5 7 7 4 2 2 2 2 8 6 4 8 8 9
25 27 27 27 27 26 23 23 20 20 19 20 21 27 12 9 21 31 30 24 18 17 12 28 26 18 9 9 8 6 4 9 6 6 4 2 2 3 3 8 4 7 4 12 12
26 26 28 26 25 24 25 23 21 24 19 20 20 23 24 15 21 32 23 27 22 22 14 25 24 19 9 8 8 6 5 5 6 7 5 3 2 1 1 4 4 4 7 5 18
26 24 25 25 24 23 22 22 20 20 19 21 19 19 25 13 7 1 7 23 23 28 21 23 23 16 6 6 9 3 6 8 5 8 3 3 2 2 7 10 5 5 8 2 14
26 25 25 24 23 22 21 21 19 19 18 19 17 9 12 11 17 5 4 10 30 32 28 25 23 16 7 8 6 4 2 13 10 8 6 5 7 8 11 13 13 15 14 8 6
27 25 24 23 22 20 18 18 17 16 16 15 15 11 17 9 22 23 4 7 34 35 32 26 17 13 13 7 6 7 10 7 5 7 6 4 7 9 3 6 13 19 20 19 15
25 24 22 23 21 18 16 16 16 14 13 12 9 16 11 13 10 17 16 13 31 35 34 28 15 12 8 4 13 6 3 3 7 6 5 1 7 7 21 23 27 28 27 25 24
26 24 23 21 21 17 16 17 13 11 10 9 9 9 7 20 11 9 8 15 30 28 31 27 14 15 3 5 4 6 2 1 3 8 6 7 6 5 12 14 23 26 29 31 33
27 24 24 20 17 17 14 15 12 11 8 8 7 4 4 11 16 11 11 22 30 23 26 23 18 9 4 5 4 2 4 4 5 8 3 8 2 3 7 7 16 25 29 28 28
26 25 17 15 14 13 13 18 16 13 9 6 4 2 8 5 17 13 11 21 23 21 19 19 12 4 3 4 6 6 2 2 4 1 2 5 6 10 19 18 18 22 26 26 27
24 23 21 14 11 12 18 13 6 4 8 5 8 4 7 7 17 15 15 20 15 17 9 19 5 14 13 5 3 6 4 3 3 1 2 6 5 12 19 16 21 26 29 33 37
30 29 23 15 10 13 11 8 10 4 2 9 11 16 3 9 8 14 16 6 6 4 5 7 8 8 11 8 6 5 5 2 3 1 2 6 11 14 15 12 22 25 29 35 37
28 26 20 15 11 12 4 9 3 9 1 3 3 4 9 15 8 11 14 6 3 3 4 7 4 9 12 8 7 3 3 2 3 3 1 7 7 4 4 5 8 16 20 22 25
28 25 17 5 5 1 4 4 9 9 3 2 2 4 6 15 5 14 13 4 2 4 4 4 3 8 10 2 2 5 1 3 3 2 3 5 5 7 5 8 4 15 23 11 11
24 20 16 4 3 2 1 8 8 2 6 3 2 6 10 3 19 9 14 1 5 7 3 2 5 12 11 6 3 3 3 5 3 3 3 2 2 8 3 5 5 10 20 26 28
23 17 10 14 11 8 8 8 5 3 5 2 3 1 6 6 4 9 4 5 9 6 9 3 3 2 3 5 2 7 5 5 4 2 2 2 3 5 2 3 7 6 16 26 31
21 18 9 10 13 12 7 1 3 5 2 4 3 7 8 9 5 4 1 4 4 4 3 4 4 3 5 7 4 3 5 2 4 3 4 2 0 8 5 3 3 3 15 27 30
15 11 13 12 11 4 9 3 8 2 1 2 7 11 6 5 6 3 2 4 5 4 3 4 2 3 1 3 6 2 4 4 4 1 3 2 5 4 6 3 4 9 26 29 30
10 10 11 8 7 9 2 5 2 2 1 5 10 6 5 6 5 3 3 2 2 2 4 4 2 3 2 2 3 4 2 2 6 2 3 3 7 7 1 5 5 16 25 26 29
10 9 16 16 15 8 1 6 3 3 6 5 5 1 3 3 3 3 1 1 4 2 2 4 5 2 2 5 7 3 6 3 3 1 2 4 5 4 3 3 7 15 24 28 32
12 3 18 16 10 6 3 3 3 5 3 4 3 4 4 4 3 3 4 1 1 2 4 4 3 1 3 1 5 2 2 5 4 2 3 2 5 6 6 3 6 10 22 19 30
9 3 14 12 6 2 3 3 4 5 4 4 5 4 4 4 3 3 5 2 6 6 3 1 4 3 2 0 1 2 4 4 4 3 2 2 6 3 6 4 7 15 16 18 23
8 4 9 11 3 4 5 2 2 5 4 2 2 2 2 3 4 2 3 2 9 3 5 4 2 3 3 4 3 2 3 4 4 3 5 4 5 1 3 9 19 17 17 22 21
6 3 4 7 5 2 4 4 4 6 3 4 3 4 4 4 5 4 2 4 7 3 8 5 3 4 5 3 3 2 4 5 6 3 3 6 7 12 12 10 18 22 16 19 22
6 2 2 3 3 4 3 0 3 4 4 6 4 2 4 3 2 2 3 2 5 10 4 3 3 2 3 3 3 4 4 8 7 6 6 4 6 13 14 15 20 18 17 20 21
3 3 3 4 7 4 3 4 3 1 1 2 5 3 5 3 4 6 5 2 3 3 3 2 3 2 3 2 4 5 8 8 10 6 9 14 20 20 27 22 14 14 15 17 19
4 3 3 4 4 2 3 3 4 3 5 6 4 4 5 1 3 4 1 6 7 7 3 4 5 2 3 4 5 5 8 12 6 5 10 8 13 15 10 7 9 11 11 16 14

GFSSW_850_spd_045.txt.gz
Wind_Speed
27 27 27 27 25 24 24 24 21 21 19 19 22 25 28 21 9 20 28 22 20 9 8 26 22 18 15 14 9 8 3 6 9 9 3 6 5 5 4 4 3 4 5 7 7
28 28 26 25 23 25 23 22 21 21 19 18 18 18 18 28 21 23 29 20 19 16 12 22 25 20 9 9 9 6 5 9 5 6 5 9 6 5 3 1 3 3 4 8 10
26 25 25 23 23 21 22 20 20 19 21 17 16 18 16 16 19 16 27 26 23 21 18 18 24 19 7 8 7 6 5 5 5 9 9 9 5 6 5 3 4 1 4 7 8
25 24 24 24 22 20 20 20 18 19 17 15 15 15 13 10 6 3 11 22 26 23 19 21 27 16 7 6 9 4 5 8 4 10 6 5 5 3 7 6 2 2 6 6 6
25 24 23 22 21 20 19 17 16 15 15 16 14 13 8 13 17 8 7 10 30 30 27 27 24 17 12 8 8 3 3 8 6 5 4 4 4 5 10 11 9 11 11 7 4
29 25 24 22 20 19 17 16 14 13 13 12 12 11 15 11 14 21 3 8 33 36 31 27 21 17 13 9 6 10 7 5 8 9 3 5 5 6 4 6 12 16 19 17 15
28 28 25 21 21 17 15 14 13 14 12 11 9 10 15 13 9 27 23 5 24 37 35 25 18 18 13 5 9 8 4 3 8 5 3 3 5 6 21 22 25 25 21 20 19
26 27 23 22 17 14 14 13 10 9 9 7 5 7 7 6 15 8 19 12 21 35 33 26 27 12 5 11 5 5 3 4 2 9 8 5 6 4 4 10 15 18 21 22 26
30 27 20 18 13 11 9 9 10 11 6 5 3 4 4 8 20 11 22 11 26 28 29 27 25 7 6 6 4 2 3 5 3 9 3 9 2 4 2 4 11 16 20 21 21
32 30 23 19 14 9 10 16 7 8 7 7 5 4 4 6 17 14 12 14 30 26 21 19 9 3 3 4 8 9 4 3 6 2 2 2 6 9 20 13 15 18 21 24 25
32 29 23 18 12 8 11 6 3 3 6 2 3 5 12 6 14 17 7 17 25 23 7 15 4 14 11 5 4 7 5 4 3 1 1 4 4 11 17 18 20 25 27 29 28
33 31 26 16 7 5 6 5 3 2 4 3 4 8 6 4 7 14 14 9 13 13 6 6 11 8 10 7 6 6 5 4 1 3 1 4 10 16 12 9 12 16 18 19 18
34 30 24 8 4 3 2 3 3 8 4 6 4 4 5 7 6 9 11 8 7 10 8 3 7 16 12 6 8 3 5 3 2 1 2 6 5 4 3 4 14 16 9 2 6
33 25 22 12 6 4 3 4 4 7 4 5 2 1 2 8 1 4 1 8 4 17 15 3 4 13 13 12 6 4 3 5 4 3 1 4 4 4 3 6 6 17 24 22 21
28 19 19 15 7 7 5 6 5 4 5 2 2 5 11 2 10 2 5 7 4 7 4 3 9 8 12 6 4 2 3 5 3 4 1 2 2 4 1 3 5 6 17 19 20
21 21 13 15 14 10 7 5 1 5 6 2 2 1 5 6 3 5 4 8 6 9 14 4 5 4 3 8 6 5 4 6 4 2 0 1 2 3 1 0 1 2 15 16 20
19 18 13 12 11 8 6 8 4 6 2 3 3 3 6 4 6 4 1 3 4 4 3 5 5 2 5 8 7 2 3 2 2 2 3 3 1 6 3 3 4 2 13 16 21
14 13 12 10 9 10 10 3 10 3 3 2 2 9 5 4 6 4 2 3 5 5 3 3 4 2 1 3 6 2 1 3 3 3 1 2 5 3 3 7 5 9 12 15 22
12 9 13 12 12 10 3 6 1 3 2 5 7 6 4 6 5 1 2 1 2 1 4 4 3 2 5 2 2 4 1 2 6 2 1 2 5 6 2 4 3 14 21 22 24
12 7 16 17 12 6 1 6 2 3 1 4 4 0 3 2 4 1 2 2 3 1 2 2 6 3 2 2 9 2 5 3 2 3 3 3 4 3 4 5 3 10 16 16 21
11 4 17 16 10 11 3 4 3 3 1 2 4 4 4 5 4 2 1 1 1 2 5 3 4 1 3 0 5 2 1 4 3 1 3 1 4 5 7 5 4 10 19 14 23
5 3 13 9 6 3 2 4 4 3 3 2 4 4 4 4 3 2 3 3 4 5 4 1 4 3 1 1 1 2 4 4 3 4 1 1 5 1 5 6 7 16 16 16 21
5 4 8 8 3 3 4 2 2 6 4 3 2 1 1 4 4 3 2 3 5 3 6 5 2 3 1 1 2 3 4 3 4 3 5 4 4 1 1 5 16 14 16 16 17
3 2 5 8 5 2 3 4 3 4 2 3 2 3 3 3 5 3 2 3 4 3 6 6 3 4 5 3 3 3 4 5 5 3 3 5 5 8 8 6 14 18 18 16 13
5 2 2 2 3 4 1 1 2 4 5 4 3 2 3 3 2 3 2 3 3 8 3 3 3 2 2 1 3 3 5 9 7 4 6 3 5 10 9 10 14 17 12 10 14
4 2 2 2 4 2 3 2 1 0 1 2 5 1 3 4 5 7 6 3 4 1 3 2 3 2 2 1 5 4 7 9 11 5 9 9 17 15 22 12 13 9 11 10 14
6 3 2 3 3 1 2 3 2 2 1 4 3 4 4 2 2 2 2 7 8 7 3 4 5 3 3 2 3 6 9 13 6 5 9 8 10 5 8 6 11 8 8 11 9

GFSSW_850_spd_048.txt.gz
Wind_Speed
24 23 23 22 21 20 21 20 21 21 19 17 16 14 14 15 29 19 23 18 20 10 10 23 23 16 14 14 10 8 9 16 22 20 14 10 11 7 5 9 7 4 3 4 5
25 24 23 22 21 21 21 19 19 19 20 18 15 15 14 11 18 25 22 23 20 13 8 21 25 19 13 13 11 14 14 20 10 11 12 12 13 11 8 10 9 7 4 7 6
23 23 23 22 20 20 18 17 18 17 17 17 17 13 14 9 13 18 18 27 22 22 14 15 21 18 14 13 15 16 15 10 8 11 6 13 11 8 9 9 9 9 2 2 6
24 25 25 22 21 20 18 18 16 16 14 15 13 15 11 5 8 16 13 20 24 22 19 18 21 20 14 14 18 9 15 8 6 6 7 12 9 8 11 5 8 8 1 1 2
26 25 26 22 21 20 19 16 15 13 10 12 14 11 7 10 20 7 13 20 26 24 27 26 29 21 18 17 15 14 6 10 7 7 6 7 9 10 11 9 7 8 9 6 4
23 22 26 23 20 18 16 13 12 11 10 10 9 11 10 13 13 20 9 11 27 30 30 26 29 19 18 13 14 15 6 13 12 7 5 7 9 6 8 11 12 14 15 13 12
28 26 24 20 18 13 12 13 10 9 8 8 9 10 12 17 7 18 13 5 23 31 29 25 20 18 11 7 11 5 14 11 9 11 10 7 14 13 18 18 17 17 15 13 13
29 29 27 16 15 10 9 8 6 4 4 4 6 7 7 10 14 7 25 10 21 27 23 19 20 16 8 7 11 13 6 9 9 17 6 9 14 2 9 11 17 17 17 17 19
32 29 24 18 14 10 6 7 12 11 7 5 5 5 4 11 15 8 19 13 21 27 22 21 23 19 7 13 9 14 10 18 4 10 12 17 8 7 9 8 10 10 11 12 14
32 28 24 17 10 7 4 10 4 6 7 7 1 4 7 9 16 10 18 12 22 27 17 19 14 12 13 14 14 18 15 12 13 6 9 9 14 6 9 8 13 16 17 16 15
32 30 27 13 4 4 3 2 2 4 3 1 1 9 3 4 15 13 17 16 19 22 12 23 6 17 21 17 2 10 15 9 7 4 5 11 11 11 14 17 18 20 20 19 18
31 31 24 13 12 5 4 3 2 2 3 4 4 5 5 3 8 18 13 12 19 19 14 8 13 15 14 13 8 13 13 10 5 3 4 4 9 13 13 15 11 12 14 14 10
28 28 22 15 10 6 6 4 2 7 1 6 6 3 4 2 11 13 6 19 17 16 16 11 12 14 16 14 12 9 11 9 3 5 1 7 7 5 5 8 8 8 4 5 5
23 23 22 7 8 9 9 7 5 3 2 5 8 4 4 7 6 8 6 8 4 9 6 4 2 19 18 16 13 10 3 7 6 4 3 3 2 4 8 9 9 11 11 10 9
17 16 22 15 7 8 8 8 3 4 3 2 3 1 5 4 13 6 6 5 10 11 3 3 3 17 19 19 13 5 7 7 4 2 3 3 4 6 10 9 7 7 7 6 7
14 13 11 13 11 8 6 3 4 3 9 4 5 0 5 2 3 7 4 11 19 15 13 4 5 4 2 7 4 13 10 8 4 1 3 3 4 7 9 8 8 3 4 4 6
9 10 9 12 7 7 10 7 1 7 1 5 3 4 6 5 6 5 4 6 3 6 3 3 4 2 8 9 4 6 8 3 3 4 3 2 4 2 8 6 7 2 2 3 6
8 8 9 6 8 6 7 2 10 4 4 4 3 12 5 3 6 5 2 4 5 8 5 2 4 2 0 2 5 4 3 2 4 4 3 2 5 3 4 6 6 2 2 3 5
7 6 10 11 9 3 1 7 2 1 2 5 6 6 4 6 5 3 4 2 3 4 4 4 3 0 2 5 5 6 4 1 4 2 2 4 4 3 6 12 5 1 1 1 5
8 2 12 12 8 4 2 5 2 3 2 2 2 1 4 3 3 3 1 2 3 3 2 4 5 2 4 3 9 2 8 3 0 4 4 4 4 4 14 13 4 4 5 4 6
6 1 12 10 8 7 4 3 2 1 2 2 3 3 5 4 2 2 2 2 2 5 3 5 3 2 2 4 7 4 3 2 2 1 2 2 2 2 14 15 5 9 7 6 8
4 0 9 5 2 3 2 1 2 2 2 2 3 5 7 3 3 2 3 1 3 5 5 2 4 5 1 1 3 1 2 4 3 4 1 2 0 2 6 6 6 11 7 7 8
8 3 6 2 2 2 1 1 2 3 3 2 2 1 2 4 3 3 2 1 3 2 5 6 3 5 4 4 1 4 5 3 4 2 5 3 3 2 3 4 8 7 7 7 7
5 1 5 7 4 2 1 1 2 0 1 1 3 2 3 2 2 4 4 2 1 1 6 3 3 2 2 3 4 4 9 10 4 3 4 7 2 6 6 7 6 7 9 7 6
6 3 3 2 3 2 1 0 1 1 1 1 2 3 3 3 3 3 3 4 2 5 2 1 3 1 2 3 2 2 6 12 9 9 6 0 7 7 9 9 10 9 5 6 6
4 4 5 3 4 3 1 2 1 1 2 1 3 4 3 3 2 6 6 4 3 3 2 1 3 1 1 1 5 5 10 11 16 17 16 16 19 16 10 3 7 7 5 5 5
6 3 2 3 3 3 2 2 2 2 1 1 5 4 3 2 1 0 4 4 4 7 4 3 5 2 1 1 3 8 16 18 11 10 15 12 11 6 8 7 9 6 4 5 5

GFSSW_850_spd_051.txt.gz
Wind_Speed
24 24 23 21 22 21 17 19 19 18 20 19 19 17 15 14 14 20 24 20 24 5 9 19 21 19 15 15 18 12 14 17 23 23 18 12 11 15 8 12 7 7 3 3 4
23 23 23 23 23 21 19 19 17 18 17 18 17 17 14 15 14 25 21 18 20 17 10 20 25 20 18 19 14 15 14 23 18 18 9 14 13 14 9 13 13 10 4 1 5
24 24 24 26 22 21 19 18 17 17 18 17 14 15 13 12 16 33 29 28 22 20 13 16 22 20 17 17 20 18 19 19 16 4 3 12 16 15 13 12 15 14 12 4 5
26 25 23 23 21 22 19 18 18 15 15 13 13 14 14 8 7 13 17 23 26 22 17 17 26 22 17 14 22 13 26 16 11 5 3 11 14 13 14 7 6 5 5 4 5
24 26 26 27 25 21 16 15 14 13 12 11 11 12 11 15 20 9 21 20 26 25 26 22 30 25 17 21 17 17 11 16 6 7 9 15 16 13 14 9 5 6 6 5 5
28 26 26 26 24 17 15 11 11 11 10 10 10 11 12 14 14 19 13 13 28 29 29 26 27 24 16 9 19 13 17 14 14 11 9 11 14 12 13 12 12 11 12 10 10
29 29 28 24 18 12 11 8 8 8 8 9 9 10 14 18 8 16 19 7 23 30 30 26 22 21 9 8 13 7 17 8 17 15 7 10 15 18 18 12 13 14 14 14 15
31 31 24 19 12 8 8 5 3 2 4 4 6 8 9 11 19 9 19 6 15 28 24 22 19 22 8 5 11 8 12 14 14 13 9 12 13 17 25 21 23 21 20 20 20
31 30 27 19 10 7 4 4 8 8 7 5 4 7 7 6 15 15 14 10 19 28 23 19 17 20 11 12 10 13 12 18 12 18 11 14 8 13 12 10 14 16 17 17 18
30 30 27 15 6 5 1 4 7 6 7 3 3 5 10 9 14 13 18 13 22 29 16 12 13 12 12 13 15 19 20 18 18 10 15 17 15 7 7 10 15 15 15 15 16
27 29 23 14 6 6 4 2 1 3 4 2 1 4 3 2 12 8 25 15 25 25 11 14 7 16 24 21 10 11 18 13 10 7 9 14 13 14 13 17 17 18 18 18 18
24 23 17 16 10 7 6 3 2 2 2 2 5 7 8 4 7 12 23 11 28 21 13 6 8 20 18 18 11 9 14 12 4 9 7 10 11 9 13 17 19 16 15 16 14
19 18 14 9 8 7 7 3 3 1 2 6 5 5 3 4 8 5 9 7 22 20 17 12 5 14 15 17 13 11 12 13 6 9 8 4 12 13 3 4 4 5 9 8 6
14 14 17 5 6 6 6 3 5 5 1 5 4 1 5 3 5 8 5 4 4 19 16 7 5 13 18 17 15 12 6 5 7 10 7 7 3 11 10 7 6 6 6 6 6
12 11 10 10 2 3 2 3 0 3 3 9 4 4 6 2 16 4 6 4 5 8 3 1 10 16 16 17 16 6 10 7 4 5 3 7 5 8 12 11 9 7 7 6 4
14 8 7 6 3 3 0 5 6 3 7 3 3 2 5 5 4 6 2 10 14 9 10 5 4 0 1 9 4 13 13 7 3 1 4 9 7 10 11 13 10 8 7 4 2
11 8 6 4 2 3 4 2 2 6 2 7 4 8 4 5 6 4 4 6 4 5 3 3 4 3 2 10 4 7 13 5 4 4 3 3 5 4 9 10 10 8 7 4 0
9 7 7 5 5 2 1 3 9 5 4 4 2 10 6 4 8 7 5 12 11 7 5 2 3 2 1 3 6 8 10 4 6 6 6 4 6 1 10 9 9 4 4 2 1
9 5 7 9 4 3 2 5 3 1 2 1 3 5 4 7 5 4 4 4 3 2 3 4 3 5 3 3 5 3 4 5 2 3 2 6 4 6 7 9 8 4 4 3 2
8 3 4 9 4 1 3 4 2 2 3 3 2 3 4 6 4 4 2 3 4 2 4 4 6 5 8 9 4 6 9 2 2 4 5 6 5 4 13 16 9 7 2 2 3
4 3 6 6 5 1 4 3 3 2 4 3 2 3 5 6 2 3 2 3 0 4 3 5 3 5 3 6 7 4 4 3 3 2 3 2 3 6 16 16 11 2 1 2 3
5 2 7 3 2 1 3 5 3 1 1 1 1 3 5 6 4 2 5 3 3 4 5 3 4 4 2 3 5 6 6 9 3 4 1 3 2 1 14 13 5 4 2 2 2
12 4 5 0 0 2 3 4 1 1 2 2 1 2 0 4 2 4 4 1 4 1 2 4 4 5 3 4 3 5 8 6 1 3 4 3 4 5 8 7 6 4 3 3 2
7 3 3 1 2 1 5 4 4 1 0 1 2 2 4 3 2 4 4 3 2 3 3 1 2 2 1 3 2 4 10 11 7 3 5 8 5 9 10 6 2 2 4 3 2
7 3 3 3 3 4 3 1 3 3 2 3 3 4 4 3 4 3 3 5 3 4 2 1 2 2 2 3 2 3 6 12 11 11 6 1 9 10 7 5 3 4 4 4 3
6 6 7 8 6 5 2 2 2 2 2 4 4 5 5 2 2 4 7 6 5 6 4 2 3 2 2 3 5 7 11 11 16 15 16 14 14 11 14 1 3 3 4 4 3
8 5 4 6 3 4 2 1 1 1 1 3 4 5 5 3 1 2 3 2 1 5 8 4 4 2 1 1 5 10 17 18 13 10 15 13 9 7 2 3 5 5 3 3 2

GFSSW_850_spd_054.txt.gz
Wind_Speed
23 22 23 23 24 22 21 19 17 16 16 17 18 18 18 15 17 18 26 19 23 10 14 19 21 20 17 15 16 18 7 12 21 16 13 6 6 9 2 10 2 4 10 11 9
24 25 25 26 26 23 21 19 17 16 16 17 17 15 15 15 16 21 22 30 22 18 10 21 22 22 8 18 12 14 11 16 20 14 8 8 1 15 7 8 10 8 4 8 5
27 26 24 24 24 22 21 20 18 15 16 17 17 13 13 13 15 29 23 28 30 26 15 16 18 19 13 15 18 13 12 15 18 5 8 3 12 5 8 5 17 14 13 8 7
25 28 30 26 26 24 21 18 15 15 14 13 12 11 12 12 7 11 24 32 26 25 17 18 24 20 10 11 25 11 24 20 16 2 1 1 1 7 14 6 7 9 17 9 4
27 31 30 30 26 23 21 13 12 12 11 10 10 10 10 11 23 11 7 30 30 26 23 20 29 23 14 18 15 18 12 25 12 5 1 3 4 8 10 11 1 4 6 6 4
30 32 33 29 22 17 10 9 8 10 10 9 7 8 12 11 12 14 11 21 30 30 28 22 29 23 12 14 13 14 20 10 13 7 1 3 6 19 13 7 8 5 5 6 7
30 33 32 27 18 12 7 5 6 7 7 7 5 7 11 18 3 5 18 12 27 33 29 24 24 23 6 7 20 6 6 8 6 12 3 5 9 14 16 7 13 12 12 13 15
29 34 31 26 13 7 4 3 3 2 3 3 4 6 7 7 11 9 14 11 12 28 27 24 19 15 4 3 9 7 3 9 6 11 9 12 6 14 21 18 17 14 15 15 15
28 33 32 20 8 1 1 2 7 8 5 3 2 5 5 3 15 16 16 14 10 29 29 21 17 9 10 6 5 7 7 13 9 11 6 11 3 19 22 26 21 21 23 22 19
25 29 27 22 11 6 5 5 6 9 6 2 3 4 6 4 9 13 23 12 18 30 22 18 9 5 9 9 11 15 10 17 13 13 14 10 9 7 7 9 13 14 13 13 12
22 24 17 18 13 9 8 8 4 1 1 1 3 7 5 12 6 10 12 12 25 25 9 15 5 15 17 16 10 10 13 13 14 8 9 12 11 10 12 11 11 14 15 15 13
21 20 15 13 11 9 8 3 0 1 4 4 6 3 8 7 4 12 18 9 13 18 16 8 9 11 12 14 13 2 6 17 4 9 6 6 9 8 9 10 16 17 17 16 11
16 17 16 6 11 8 5 4 4 5 4 4 6 4 5 5 8 2 9 9 10 14 12 8 8 12 12 12 13 5 7 8 6 6 2 3 7 9 7 3 4 5 8 10 9
16 14 13 6 6 5 3 3 3 3 1 7 5 4 4 7 7 6 4 3 3 15 10 5 6 10 11 17 14 8 6 5 11 6 3 8 4 12 8 5 4 6 6 7 7
18 11 10 9 3 4 1 3 8 4 2 8 5 3 7 9 16 3 4 9 7 8 4 2 6 11 9 14 10 3 8 5 4 5 4 7 2 3 11 7 7 10 9 8 7
17 11 10 8 5 6 4 5 6 1 5 3 2 3 2 10 6 4 5 11 15 9 12 5 4 1 1 2 6 8 11 8 4 1 2 7 6 4 7 11 8 11 13 11 9
15 9 8 6 6 9 4 2 0 5 1 7 4 4 4 7 6 5 3 5 4 5 3 3 3 4 1 9 4 8 7 2 1 1 3 3 4 6 9 11 8 10 15 12 8
14 6 8 5 9 6 2 2 6 2 3 4 1 9 5 3 4 6 4 4 1 7 4 3 1 3 5 1 5 2 4 3 4 4 4 3 5 4 7 18 18 16 14 11 7
12 5 9 11 8 2 6 3 2 2 4 3 4 3 3 6 4 2 6 4 2 5 3 4 3 2 2 3 4 3 2 3 3 2 3 5 3 3 6 9 12 11 12 11 8
8 4 1 13 5 2 2 3 3 3 4 5 1 2 4 4 3 2 2 1 6 5 8 4 5 3 0 3 6 2 2 1 1 2 3 5 7 4 10 8 8 9 13 12 8
7 3 3 12 5 1 2 2 3 2 3 4 6 2 5 4 2 3 4 2 2 3 4 6 3 3 6 5 6 1 1 3 2 1 2 2 2 1 11 9 9 9 8 6 7
5 2 6 7 1 2 2 3 2 2 2 1 2 5 3 4 3 3 6 6 4 5 4 3 4 3 2 3 2 5 6 5 2 3 1 2 3 5 9 9 12 6 8 7 6
9 3 5 3 2 1 1 2 3 2 1 1 2 4 3 1 2 4 6 1 2 4 2 4 3 4 2 1 1 3 4 2 5 3 4 2 3 3 11 9 8 6 6 5 8
7 3 5 3 1 5 1 4 2 1 1 2 3 2 3 2 2 4 4 2 1 4 3 4 2 2 3 2 3 3 6 6 5 3 3 4 4 3 6 6 9 10 7 6 5
7 3 3 3 3 7 5 5 4 2 2 2 3 5 4 3 4 4 6 4 4 4 1 3 3 2 3 5 4 3 5 7 6 5 4 2 3 11 9 8 6 7 6 6 7
6 5 7 7 10 5 2 2 5 2 2 3 3 2 2 2 2 4 5 5 4 5 4 2 3 2 2 6 4 3 7 7 8 10 10 11 8 4 9 4 6 6 6 4 5
10 5 4 8 4 4 4 8 7 4 2 4 7 2 4 7 9 7 6 6 3 6 5 5 4 2 1 3 4 6 14 15 10 9 12 10 8 2 4 5 5 3 4 6 6

GFSSW_850_spd_057.txt.gz
Wind_Speed
22 23 23 23 23 23 21 20 19 16 15 15 16 16 17 16 18 18 23 29 23 13 15 20 19 20 17 15 17 13 4 9 10 14 15 23 7 4 11 7 5 11 19 16 19
24 23 23 26 26 26 23 22 18 17 15 15 14 16 15 13 17 21 23 25 29 20 13 23 26 22 10 12 15 9 7 17 20 25 10 10 10 12 2 5 12 21 16 10 11
23 24 27 29 26 25 24 17 18 15 13 13 14 15 13 10 13 21 17 24 32 25 12 21 25 21 9 14 12 13 14 10 23 30 15 7 19 21 4 2 4 20 17 12 8
26 29 30 30 30 25 20 17 14 9 9 11 12 11 9 11 7 10 9 26 34 29 21 21 24 15 6 9 22 7 13 21 12 16 14 14 12 17 4 6 9 11 18 15 9
27 29 31 31 28 21 14 10 5 8 8 8 7 7 7 11 20 10 9 19 29 32 31 26 30 18 8 9 17 10 10 17 20 10 19 16 4 1 3 9 12 20 19 13 8
26 30 34 32 25 14 8 6 3 5 7 5 5 6 11 9 10 16 8 13 28 32 35 27 24 21 14 17 9 15 18 6 9 10 5 2 4 3 3 6 10 8 6 9 10
26 30 32 26 16 7 4 4 4 6 4 3 4 5 8 18 7 11 7 8 29 34 34 28 18 23 9 5 20 9 10 3 8 9 2 4 4 7 11 6 3 4 6 7 8
25 28 27 24 14 8 6 5 5 6 4 3 1 5 7 4 10 2 5 11 16 27 26 28 25 26 1 5 8 5 7 5 8 10 5 7 6 7 18 11 14 7 8 9 9
23 23 21 22 16 11 8 7 8 6 2 2 2 4 6 2 9 10 10 14 14 28 29 26 22 7 6 5 4 4 5 8 6 14 7 4 4 11 16 21 19 16 15 15 15
22 20 16 13 13 11 8 6 8 10 8 3 4 3 3 7 5 12 11 20 8 29 29 20 10 4 4 5 13 13 9 14 9 6 7 7 6 8 10 16 26 22 20 18 21
18 18 16 9 8 8 8 6 3 3 1 0 2 5 9 13 2 7 8 16 10 25 8 17 6 16 15 4 4 8 4 11 8 6 7 10 7 12 17 7 11 16 16 12 7
17 15 14 11 7 6 6 4 6 5 6 3 4 1 4 7 3 7 9 5 9 13 12 6 7 5 11 10 6 6 9 7 1 9 10 10 10 11 13 11 19 19 16 14 9
17 12 11 7 8 10 9 4 3 1 3 1 4 3 4 6 3 6 9 1 16 8 11 9 8 10 11 11 11 5 7 5 5 3 4 4 5 7 9 12 18 13 13 11 10
19 12 10 10 2 7 6 3 7 7 1 4 3 6 3 5 7 3 5 5 3 16 11 6 4 10 5 8 5 5 4 2 15 6 4 6 5 7 11 8 7 9 7 8 9
18 11 7 8 6 2 4 2 6 6 4 10 4 4 5 2 2 0 0 3 8 6 4 2 4 6 4 4 2 5 7 6 4 5 4 2 1 6 7 6 6 10 10 12 10
15 9 6 5 4 6 10 9 2 3 4 4 3 2 3 5 2 11 3 5 12 10 11 5 4 3 2 4 3 1 8 8 5 3 1 6 6 4 6 11 5 9 16 14 12
13 5 8 4 3 6 4 3 4 5 3 5 3 5 8 4 3 1 4 4 4 5 4 3 4 4 5 2 4 3 6 2 3 1 5 3 5 7 7 6 10 13 18 15 13
11 3 8 7 7 1 1 2 9 3 3 4 2 6 3 5 4 3 4 4 2 5 3 3 2 2 3 3 5 4 5 5 6 4 4 3 7 5 7 16 23 25 23 18 14
5 4 8 11 6 4 1 6 5 4 3 4 3 1 2 4 7 2 2 3 3 3 5 5 2 1 3 2 3 4 2 4 3 2 3 4 4 5 5 7 15 20 22 18 14
3 3 2 10 1 2 4 4 3 4 3 3 2 1 2 3 3 5 4 6 4 4 7 5 5 1 2 1 1 2 0 3 2 2 4 4 4 4 8 9 8 10 17 15 16
3 2 2 7 1 4 3 3 3 6 2 2 4 4 2 2 4 2 3 3 4 5 4 7 4 3 3 4 5 3 1 1 2 4 4 1 5 3 13 10 9 12 16 18 16
3 2 5 5 2 3 3 4 3 3 3 3 2 4 2 2 5 4 4 2 3 4 6 2 5 3 2 6 7 1 5 4 4 4 1 3 5 7 9 9 15 15 16 15 16
5 3 3 3 2 3 2 2 0 3 1 2 1 2 3 2 3 4 4 3 7 3 5 4 2 3 3 2 4 3 5 4 2 2 3 3 4 3 9 10 15 13 13 16 15
5 3 4 2 1 1 3 4 3 2 1 2 1 3 2 2 1 3 2 1 3 2 2 2 3 4 5 3 4 5 7 6 6 3 3 5 3 3 6 8 11 12 15 14 17
8 3 4 4 3 4 2 4 1 4 2 3 2 4 5 3 3 3 2 1 1 2 2 3 4 3 2 4 3 3 5 8 8 5 6 4 7 8 10 9 13 17 15 17 15
5 6 7 7 14 5 3 4 2 3 2 2 2 6 4 3 2 4 6 5 4 3 3 1 2 2 2 5 5 3 7 8 7 6 7 5 6 5 16 14 12 18 17 14 13
10 4 1 6 6 3 3 4 6 8 1 1 3 3 4 3 3 6 5 3 8 7 4 3 5 3 3 2 3 7 13 14 6 6 11 10 12 1 4 10 14 15 15 14 14

GFSSW_850_spd_060.txt.gz
Wind_Speed
22 20 21 22 24 27 24 24 22 18 16 16 14 14 16 15 17 20 24 29 31 13 13 17 20 16 19 21 16 13 4 13 11 11 3 15 11 14 13 7 10 5 14 24 26
21 21 24 25 25 27 25 22 22 19 15 14 12 13 14 15 16 23 26 17 29 20 17 22 26 21 12 13 13 11 10 14 16 19 4 11 13 20 9 4 9 15 17 25 26
20 23 26 28 28 26 22 20 16 13 12 11 10 12 12 10 10 21 24 18 26 27 19 22 21 21 15 12 7 11 15 6 17 12 4 7 23 21 15 4 12 22 23 23 24
22 24 28 30 28 23 16 12 10 5 4 5 9 9 7 8 7 4 15 12 20 29 23 21 23 18 9 8 15 6 11 23 6 7 6 4 19 20 20 7 13 14 19 21 20
22 25 28 29 23 15 10 6 3 2 2 5 5 6 7 10 17 14 7 9 21 34 29 25 25 17 6 8 14 2 14 22 14 11 17 10 20 25 28 1 4 22 19 15 13
22 24 27 25 16 11 9 8 5 3 3 2 4 5 8 7 13 16 11 6 25 36 31 25 20 20 17 9 12 11 5 12 14 15 23 20 19 26 16 13 17 20 16 12 11
21 21 21 19 15 11 9 8 7 6 5 2 2 4 8 16 8 5 15 7 23 33 30 29 13 16 15 6 12 6 9 4 16 12 9 25 17 19 23 6 9 12 14 12 10
18 18 15 14 13 10 8 8 7 5 3 2 1 4 7 5 10 10 10 5 21 24 28 30 14 15 4 6 8 5 6 5 5 11 9 13 11 18 24 17 11 8 8 10 11
15 16 12 10 8 7 6 6 8 7 5 4 3 3 8 4 3 4 1 2 9 21 30 24 21 10 4 6 5 3 6 7 7 15 6 7 4 9 12 9 15 13 11 10 10
17 14 12 8 7 5 5 3 6 7 5 3 2 3 4 4 5 4 6 8 10 20 20 17 12 5 3 6 14 12 12 11 12 9 6 8 6 4 8 5 17 20 16 15 13
18 13 10 9 6 7 6 1 1 2 4 4 3 5 6 9 4 4 6 10 9 21 7 21 6 13 11 4 4 9 7 10 4 5 5 6 4 10 13 8 8 17 21 16 11
17 12 6 6 7 7 5 3 5 3 4 6 6 1 5 5 4 3 3 2 3 9 13 7 10 5 8 4 3 10 5 6 1 5 5 6 12 9 11 9 15 13 15 18 13
19 11 7 1 3 6 7 5 4 1 0 5 5 4 5 7 5 3 6 2 5 8 13 8 8 10 9 4 4 1 6 4 4 1 1 3 6 6 8 13 21 21 22 20 15
22 10 6 3 2 2 2 1 4 3 3 6 8 4 5 3 5 5 9 4 1 16 11 7 5 9 5 4 4 1 6 7 6 6 6 3 5 7 7 10 9 21 18 18 17
18 9 5 3 1 2 2 3 6 4 5 7 5 11 5 4 3 6 5 10 9 7 5 2 4 9 5 5 5 5 5 7 4 6 5 2 0 6 1 9 9 15 18 16 16
15 7 5 5 3 2 5 4 3 4 5 5 6 7 2 3 3 3 3 8 9 11 10 5 4 4 2 3 3 1 6 8 5 3 1 5 6 5 6 7 6 9 18 21 21
11 4 5 4 5 1 2 1 4 5 3 5 4 2 7 8 4 2 2 3 4 6 4 5 4 1 2 5 3 4 6 2 1 1 5 3 4 12 6 6 7 12 25 24 20
5 1 7 7 5 1 1 3 9 2 2 2 3 5 3 2 6 5 3 4 5 7 4 4 3 1 4 3 4 4 2 5 5 4 4 4 7 7 6 11 16 28 29 23 19
2 3 5 7 3 2 2 5 6 5 4 2 1 2 3 2 2 3 3 2 3 3 5 5 0 1 1 2 0 4 4 3 5 1 3 5 6 8 1 2 12 22 25 21 19
2 3 4 7 1 3 3 2 2 4 3 3 1 2 3 4 3 2 1 2 3 4 6 6 5 2 4 2 4 3 2 2 2 3 4 4 5 5 4 7 8 10 20 23 20
2 2 5 7 2 1 3 3 3 4 4 1 2 1 3 5 7 5 6 4 4 5 5 6 4 4 4 5 8 3 3 2 3 4 3 2 5 4 8 8 12 13 24 22 19
2 2 5 7 2 1 2 4 1 2 1 3 2 2 1 3 3 3 5 2 3 9 6 5 5 4 4 4 4 1 5 4 3 4 1 3 5 3 7 8 14 19 23 19 20
2 1 3 5 2 2 4 1 1 1 1 2 2 2 1 2 4 3 3 2 3 3 6 5 1 3 2 3 1 4 4 3 4 2 5 5 5 4 3 8 16 18 17 20 20
2 2 2 2 2 3 4 3 2 1 2 2 2 3 2 2 4 3 2 2 3 3 4 4 2 4 6 4 5 5 9 7 5 3 4 6 4 2 4 7 11 19 19 19 21
5 2 3 3 2 3 3 5 1 1 2 1 3 2 2 2 2 3 2 2 3 2 2 3 4 2 3 3 3 3 6 12 9 11 8 10 8 6 10 11 19 20 17 20 22
5 4 5 3 10 4 4 4 2 5 3 3 0 7 4 3 4 5 5 3 4 1 2 2 1 2 2 1 0 2 6 8 14 9 9 3 6 6 10 12 16 19 19 21 24
6 4 1 5 6 2 3 4 6 7 1 3 4 2 1 1 1 3 5 6 5 7 4 3 4 3 4 3 3 7 12 13 7 8 11 10 14 2 4 12 19 18 24 24 23

GFSSW_850_spd_063.txt.gz
Wind_Speed
21 19 21 24 26 26 26 26 25 23 21 19 18 17 14 15 16 19 23 23 28 11 12 20 18 12 13 15 17 7 4 14 12 9 3 4 7 13 16 12 7 6 13 20 22
18 21 23 26 28 27 24 23 20 19 18 15 14 14 11 13 15 23 24 21 19 20 12 20 23 17 8 11 17 13 8 12 9 3 2 4 8 12 13 24 6 11 13 27 24
19 22 24 26 27 24 18 14 12 13 14 8 8 9 11 10 11 24 19 25 16 19 14 16 20 19 8 12 12 5 20 7 8 6 2 6 7 9 13 7 9 7 28 25 23
19 22 26 25 20 15 12 10 8 6 6 2 5 7 7 7 5 9 8 23 14 24 22 16 17 15 7 8 13 10 18 22 7 8 7 4 8 10 8 12 24 19 21 23 22
17 22 23 21 14 12 11 10 8 6 2 1 3 6 7 7 12 7 5 14 16 20 33 18 20 17 7 9 10 5 14 20 15 13 6 2 3 6 24 20 22 19 19 21 22
15 20 19 16 11 10 9 10 9 8 5 2 2 4 6 3 8 13 10 9 10 19 35 23 19 21 10 11 9 9 9 17 16 11 7 2 5 4 23 13 23 9 20 17 18
12 17 12 12 9 9 8 8 8 5 2 1 2 5 7 13 2 4 15 11 6 24 37 26 11 22 9 5 16 8 7 9 13 14 5 6 3 6 37 28 27 9 14 13 14
15 13 13 8 8 6 6 8 9 6 3 3 1 2 5 5 2 9 12 11 6 22 30 27 12 24 5 7 9 5 4 5 7 17 7 14 10 17 21 28 26 14 10 12 14
18 14 13 8 6 7 6 5 6 7 4 3 3 2 4 4 4 3 8 4 9 19 29 23 18 11 3 8 5 2 5 5 8 18 10 13 5 19 33 30 31 26 15 13 13
17 12 11 8 6 7 7 5 1 4 2 2 4 4 5 7 3 4 8 5 5 18 17 18 12 4 2 6 17 14 9 9 9 16 12 20 6 12 23 27 32 36 32 18 15
20 14 8 6 4 5 4 1 1 2 4 2 4 0 9 11 9 7 3 2 2 5 7 17 9 14 8 3 1 6 5 10 3 8 15 12 6 5 14 20 25 34 29 26 19
21 14 7 5 3 4 3 3 6 1 1 6 3 1 4 6 3 5 4 4 4 3 5 7 11 6 7 5 4 6 6 6 2 6 11 6 9 9 15 15 21 20 18 24 19
22 13 7 5 5 1 3 4 4 2 0 5 5 4 3 6 4 3 7 8 2 6 10 6 9 9 8 4 6 2 6 5 5 4 3 3 4 6 12 15 22 22 18 14 20
20 11 7 4 5 3 2 3 2 2 3 5 6 3 5 3 4 9 5 3 2 14 14 4 9 9 8 4 5 3 3 5 6 6 4 5 4 6 7 12 9 28 27 23 18
16 9 6 2 3 3 1 3 3 1 5 7 5 7 5 2 5 2 2 5 2 8 4 1 7 9 6 5 5 2 3 5 1 3 2 2 1 5 1 7 16 20 29 26 23
14 5 5 4 2 2 4 3 2 5 3 4 3 4 3 6 5 1 2 6 10 7 11 5 5 4 2 3 4 5 6 7 5 3 3 5 5 5 6 7 5 19 29 24 25
11 2 4 3 3 1 2 0 4 6 3 1 3 2 4 3 2 1 2 4 4 5 9 6 3 2 3 5 3 3 5 2 1 1 4 2 4 11 6 6 6 8 18 25 26
5 1 5 4 3 0 1 3 8 2 3 2 3 5 3 6 3 4 2 3 2 9 5 3 7 1 4 3 4 3 4 5 6 4 3 3 8 6 7 8 15 18 18 25 27
1 1 5 7 2 2 2 4 6 5 4 4 4 2 2 2 1 2 3 1 3 1 5 5 2 2 2 2 2 3 2 3 5 3 3 5 7 8 8 7 5 11 20 28 27
1 3 5 7 3 4 3 3 1 3 2 1 0 4 4 4 3 2 1 2 2 1 1 3 6 1 2 4 1 3 2 2 3 2 4 4 5 7 4 8 4 8 22 28 24
1 2 5 5 4 2 2 4 2 4 3 1 3 1 5 7 6 5 7 3 3 3 7 4 3 2 5 6 8 3 2 3 3 4 4 2 5 5 5 8 7 9 25 26 23
0 2 4 5 2 2 1 3 2 1 2 2 2 2 2 4 2 2 5 2 6 10 6 3 4 4 3 1 4 7 5 7 4 4 1 2 6 2 6 7 12 15 24 24 21
1 1 4 6 3 3 5 3 1 2 0 2 2 2 2 2 3 2 2 1 5 6 7 6 1 3 2 2 2 5 5 3 3 3 6 5 5 3 4 2 12 17 21 23 21
1 1 3 4 3 0 3 3 3 1 1 2 2 2 1 2 4 4 2 1 2 3 4 7 3 5 7 5 4 6 12 10 6 4 6 7 5 5 5 5 9 19 24 23 22
2 1 1 1 1 2 2 2 3 1 1 2 2 3 2 1 2 3 2 2 3 4 4 4 5 3 5 2 4 5 6 14 10 15 10 8 15 11 8 9 19 21 20 19 21
0 3 3 3 3 2 2 1 3 5 3 2 1 4 2 3 4 5 5 4 4 1 3 1 1 2 2 1 1 3 6 10 19 17 12 9 15 6 9 11 13 23 23 22 23
4 1 1 3 3 2 1 3 4 7 2 6 2 2 2 1 1 4 6 4 5 7 4 3 4 3 4 4 4 7 8 12 7 7 10 9 17 4 4 7 17 26 24 24 23

GFSSW_850_spd_066.txt.gz
Wind_Speed
17 19 20 22 25 24 23 23 22 20 21 21 22 21 17 15 15 17 20 19 18 11 8 17 19 14 15 17 16 20 2 9 9 7 3 4 3 5 3 12 4 4 3 5 25
17 19 24 26 25 21 19 16 16 16 16 16 16 17 14 14 13 20 21 21 17 20 7 16 22 18 12 12 11 8 11 8 4 3 5 5 6 8 8 13 11 21 4 18 24
16 20 25 22 20 15 14 13 13 12 14 6 11 13 9 9 8 9 15 19 20 19 11 14 21 18 13 10 10 6 18 4 1 10 7 4 4 6 8 4 10 23 12 10 22
13 20 24 20 15 12 12 13 12 11 10 7 5 2 5 5 4 3 6 17 21 19 17 12 17 13 11 6 11 5 14 15 1 6 3 1 1 6 6 3 17 21 12 12 19
13 19 20 15 13 10 10 11 11 9 7 6 2 3 3 3 9 3 2 7 19 17 23 13 17 11 6 7 9 3 8 19 12 7 7 4 6 3 21 20 16 19 7 15 16
14 15 18 14 11 10 9 10 11 10 8 4 2 3 3 2 5 7 6 9 10 11 17 26 10 15 11 8 8 9 7 18 15 16 9 3 5 6 24 19 15 19 16 11 17
19 13 14 11 11 9 9 10 11 8 5 4 3 2 4 7 3 3 8 13 4 12 23 28 6 16 7 3 10 3 7 6 11 9 4 8 6 7 22 22 26 22 18 9 9
18 16 13 14 10 8 8 9 10 8 5 5 2 3 3 3 4 4 6 14 5 17 17 25 15 21 3 5 12 5 6 5 5 13 5 10 7 10 18 20 21 21 21 13 11
20 17 12 12 9 9 8 7 6 6 4 3 4 4 2 3 1 1 7 9 8 13 15 20 10 8 4 7 4 5 6 6 5 20 10 10 3 14 8 17 18 25 25 20 12
20 17 14 11 7 7 7 6 5 5 4 3 5 4 2 4 2 4 4 7 2 16 14 15 5 4 2 7 18 10 6 3 6 14 9 13 6 9 15 11 20 27 28 26 23
20 19 12 9 5 6 3 0 2 3 4 4 6 4 7 8 8 3 4 3 4 15 6 10 6 14 7 4 1 8 6 6 2 6 5 11 3 6 14 9 21 31 30 27 28
21 19 10 6 5 3 1 1 4 1 2 5 4 3 4 2 5 4 7 3 4 11 13 3 9 6 6 5 6 8 7 5 2 4 9 6 9 9 15 19 27 29 31 32 34
22 16 8 5 5 2 1 3 3 2 1 4 3 3 2 2 3 5 5 6 7 7 6 5 9 8 6 5 6 3 8 6 6 5 2 6 5 7 9 18 26 34 42 39 25
22 15 7 3 2 4 3 3 2 4 3 4 2 2 4 1 3 5 4 4 4 6 7 3 11 8 6 5 5 3 5 6 8 5 4 3 4 9 10 12 10 28 36 38 24
20 12 5 1 1 2 2 3 2 2 5 5 3 3 2 1 7 4 4 7 6 6 3 4 10 8 5 6 3 2 5 6 3 4 3 1 1 5 5 16 24 29 29 37 31
16 7 4 3 0 1 1 3 1 4 1 2 1 2 2 1 2 3 4 5 5 5 4 4 3 4 2 3 3 6 6 7 5 3 2 6 5 5 6 12 3 14 32 42 37
11 2 4 3 1 3 1 3 4 5 2 3 2 2 1 4 4 2 1 5 2 5 3 6 3 2 3 7 4 4 5 3 2 2 4 1 6 11 5 6 6 9 14 20 30
6 2 3 3 2 3 1 4 6 2 2 1 1 2 4 3 5 2 5 3 4 3 5 3 5 2 5 3 5 2 4 5 5 3 3 0 6 5 5 9 14 18 18 15 20
3 4 1 3 2 1 1 4 5 5 4 2 2 3 2 1 2 2 3 2 3 0 5 5 2 1 3 2 2 4 2 3 6 2 3 4 6 8 10 8 8 11 11 13 21
3 4 2 4 2 1 3 2 1 3 2 0 2 4 3 2 2 2 2 3 3 3 2 4 6 1 1 1 5 4 4 3 3 1 3 4 5 6 6 7 7 5 10 15 23
3 2 3 3 2 2 3 5 3 4 4 3 1 2 4 4 2 2 4 3 3 3 4 4 4 2 3 3 5 2 2 2 2 4 4 2 5 6 5 7 8 9 12 19 25
2 1 1 2 1 1 1 4 3 3 3 1 2 2 3 5 2 2 4 1 6 8 4 2 5 4 2 1 1 2 4 5 3 4 1 2 7 2 6 8 8 8 10 21 24
1 1 2 2 1 2 4 2 1 2 2 2 1 2 1 2 3 1 1 4 6 5 7 6 1 4 1 2 1 4 6 4 4 3 6 4 6 1 4 5 3 4 10 20 22
1 2 1 2 3 1 3 3 2 1 2 2 1 1 2 3 4 3 2 3 2 2 3 5 3 5 6 4 4 5 14 11 10 8 7 12 7 7 6 4 5 7 13 20 21
4 2 1 3 4 3 2 4 3 2 2 4 3 4 1 2 1 2 2 1 4 5 4 2 3 2 3 2 4 3 5 17 16 15 12 6 18 15 13 8 11 17 17 21 21
2 3 2 2 3 3 6 4 6 6 4 3 3 3 1 2 2 4 4 3 4 1 2 2 3 3 1 1 2 3 7 10 17 20 16 20 21 12 9 11 13 15 21 24 23
5 4 2 3 2 1 2 3 4 6 5 8 3 1 2 2 3 4 6 2 2 7 3 3 5 3 3 2 3 5 12 12 5 6 15 15 23 3 6 9 17 19 21 26 24

GFSSW_850_spd_069.txt.gz
Wind_Speed
13 16 19 24 21 19 16 15 15 15 15 19 18 16 19 16 16 15 18 20 21 9 8 16 18 14 12 16 18 17 4 13 7 8 4 1 2 3 3 5 9 11 5 6 17
14 17 19 23 17 15 13 14 14 14 17 16 12 9 16 13 13 16 16 14 20 15 9 17 21 19 15 14 11 8 9 15 14 4 4 3 1 3 4 9 4 17 7 6 20
12 15 20 21 15 12 12 12 14 14 14 14 12 8 9 8 4 7 6 18 16 17 16 14 21 17 12 13 11 10 12 7 13 12 12 6 2 2 5 4 7 13 17 8 17
12 12 19 19 13 11 11 12 13 13 13 11 10 8 2 9 3 4 4 10 18 17 19 12 21 16 8 7 13 9 10 16 9 13 14 5 5 1 2 5 7 13 19 9 18
16 11 16 17 13 11 11 12 13 13 11 9 6 4 2 3 4 2 4 4 15 18 20 17 21 14 10 7 11 6 10 22 11 9 8 8 3 3 4 6 7 9 15 1 12
18 14 12 15 12 13 10 12 14 14 11 9 7 3 3 2 3 3 2 3 14 20 18 17 16 14 11 8 6 14 5 15 15 13 7 2 3 5 2 1 7 9 16 11 6
19 17 13 12 13 10 10 9 11 12 8 7 7 5 4 6 2 1 7 7 1 13 9 23 17 15 12 5 9 8 10 4 11 11 5 1 12 10 9 13 14 17 13 12 7
19 18 16 10 13 9 10 9 9 9 7 4 5 6 3 4 6 3 6 7 5 12 7 19 18 10 5 4 9 5 5 8 6 16 3 11 25 9 13 13 16 21 15 12 10
18 18 17 12 11 8 9 8 6 6 5 4 4 6 3 3 2 0 4 7 11 8 11 16 14 10 6 7 4 5 6 6 7 17 7 8 9 10 7 17 16 21 22 16 14
18 18 18 12 8 6 7 6 4 3 6 4 4 2 0 5 1 2 6 8 7 12 16 12 2 3 3 6 17 10 6 5 9 12 8 11 5 4 4 11 22 23 23 22 20
20 20 14 10 6 5 4 1 1 1 3 3 7 5 6 4 5 2 4 5 13 14 5 6 2 11 7 3 5 7 7 8 4 10 8 10 7 6 12 12 17 27 26 27 25
21 20 11 8 4 2 1 2 3 1 2 3 3 4 4 1 2 2 6 3 4 7 11 5 1 6 8 2 8 8 7 4 3 12 6 8 10 9 13 13 18 23 32 33 30
22 18 9 6 3 3 2 3 3 2 1 4 4 4 3 3 1 4 5 7 5 10 7 8 2 9 5 5 9 2 7 4 6 4 2 6 6 10 7 18 20 22 33 31 29
21 15 6 3 1 3 3 4 0 2 3 1 1 2 1 1 3 2 8 6 4 9 10 3 2 8 7 5 6 4 5 6 10 5 4 6 5 11 14 12 15 26 28 39 34
20 11 3 0 1 3 2 3 1 1 4 5 0 2 1 0 8 2 2 4 4 8 5 6 18 9 6 7 4 3 6 6 4 4 4 0 2 4 5 16 19 23 28 31 31
19 5 2 1 1 3 2 2 2 5 0 1 1 2 2 3 1 5 2 3 10 5 4 5 4 3 3 3 4 7 7 7 4 2 2 5 7 2 4 11 7 21 26 35 34
15 1 2 2 2 4 2 3 4 5 2 1 2 3 2 3 4 2 4 3 3 4 2 6 3 1 2 7 2 4 5 2 2 1 4 1 3 9 8 7 7 13 27 32 37
10 2 2 3 5 2 2 3 5 2 3 2 3 5 3 1 3 1 5 2 2 1 4 3 6 2 5 3 5 3 4 4 6 5 3 2 4 5 6 9 9 14 15 15 15
4 4 1 2 3 1 2 3 5 5 4 3 2 4 2 2 3 1 1 4 3 2 4 4 3 2 4 0 2 3 2 3 5 2 1 2 4 9 6 6 9 14 12 14 17
1 4 2 2 3 0 3 3 2 2 3 1 2 2 3 3 2 2 2 2 4 2 1 3 5 4 2 1 6 2 6 2 2 1 3 2 4 4 3 6 6 10 14 14 12
3 3 2 3 1 1 2 4 2 4 3 3 2 2 2 3 2 3 1 1 3 3 4 4 3 2 3 2 5 2 2 4 3 2 2 1 4 5 5 4 7 12 11 9 11
3 1 3 2 1 2 2 3 2 2 3 2 1 1 3 4 3 1 3 3 4 7 4 2 5 3 1 2 1 2 4 4 3 4 1 1 5 3 4 6 8 10 6 3 11
3 2 2 3 1 2 3 1 2 0 0 1 0 1 2 3 3 1 3 1 6 4 6 5 2 4 2 1 3 4 4 3 4 3 5 4 4 3 3 4 4 6 5 1 11
3 1 2 2 3 2 2 2 1 2 1 2 2 3 2 3 4 3 2 2 5 1 4 5 3 5 6 3 4 5 6 8 7 5 8 13 12 11 10 9 9 9 6 8 19
3 2 2 2 1 3 1 0 1 2 4 6 3 3 0 3 1 2 1 1 3 4 3 2 3 3 1 2 3 3 5 11 14 17 9 1 14 12 15 12 16 19 13 14 21
4 4 4 1 1 2 3 2 2 3 3 3 4 3 1 2 1 5 3 3 3 2 3 2 2 3 2 2 4 3 7 8 14 15 18 21 21 18 19 21 24 26 21 18 24
5 6 4 2 1 2 1 1 3 2 1 5 1 1 4 3 5 5 4 1 3 6 3 3 4 2 3 2 2 5 6 11 5 5 15 13 19 14 12 12 17 23 19 21 25

GFSSW_850_spd_072.txt.gz
Wind_Speed
12 13 18 19 17 14 12 13 13 14 15 17 19 14 15 17 18 16 15 12 19 8 8 16 16 12 10 11 13 22 10 14 20 14 7 4 4 1 1 4 5 7 1 4 8
12 11 18 20 17 11 10 11 13 13 15 14 16 15 6 10 14 16 14 13 14 18 10 14 18 13 14 15 10 11 12 21 19 10 13 8 4 2 3 8 5 8 6 2 15
14 9 17 18 16 11 10 11 13 13 14 14 13 15 7 9 7 7 11 12 14 15 14 14 18 15 15 12 14 8 15 15 22 12 14 9 6 1 8 6 7 10 9 10 15
20 12 10 17 15 12 11 11 13 15 13 12 10 9 10 2 2 5 3 9 15 15 14 13 20 15 13 11 20 12 25 25 15 20 17 12 9 2 1 7 5 7 9 11 15
18 17 11 13 16 13 12 10 12 15 13 9 8 6 6 4 2 3 5 4 13 17 17 17 24 19 14 17 16 17 17 19 15 16 17 13 5 2 4 3 2 4 11 4 13
17 18 15 11 13 11 12 9 8 12 10 7 6 5 2 1 2 2 2 4 10 16 16 19 20 15 18 15 15 17 11 23 17 17 13 14 13 5 6 5 3 2 8 8 3
17 18 15 10 9 12 9 8 7 8 8 5 5 4 3 2 3 1 2 3 6 16 15 15 16 12 13 10 11 9 14 14 22 19 7 10 12 18 21 8 9 6 3 5 4
17 18 16 14 9 10 7 8 6 6 6 5 5 5 1 4 5 2 5 4 3 7 7 14 15 11 13 6 15 9 16 10 18 23 7 12 21 27 24 13 18 16 9 4 4
18 18 17 14 9 7 5 6 5 3 5 4 6 6 2 4 3 1 5 5 5 6 8 10 10 7 9 13 12 12 11 20 8 17 8 16 12 10 15 16 19 19 13 7 8
19 18 17 12 7 5 4 3 2 3 5 3 4 2 2 5 6 1 4 8 9 12 8 11 4 2 13 15 16 18 15 18 14 13 12 15 13 3 6 20 25 23 16 12 12
19 19 16 11 6 3 2 1 1 2 2 2 5 3 5 5 3 1 4 6 8 11 8 4 4 5 22 17 6 15 12 14 11 10 14 13 13 13 11 15 19 29 28 21 18
20 19 12 7 5 2 2 2 2 1 1 3 4 3 2 2 2 2 7 6 5 2 10 4 2 7 15 10 10 16 16 13 8 14 13 12 18 14 17 20 18 19 29 32 27
21 18 9 5 2 3 3 4 1 1 1 3 2 3 1 2 1 1 6 3 6 7 9 9 7 12 17 11 10 15 17 15 11 11 8 8 13 15 16 18 17 20 24 28 32
21 15 4 2 1 3 3 5 1 1 2 2 2 2 2 3 3 5 5 3 2 5 10 3 5 8 16 13 12 13 10 13 15 13 6 11 4 11 16 17 21 28 29 25 22
19 10 1 0 1 2 2 4 2 1 0 3 2 0 0 3 6 1 7 4 5 9 5 5 8 12 16 14 8 5 11 10 10 9 4 8 5 4 6 20 22 24 25 25 19
16 4 2 2 1 2 2 2 2 1 3 0 1 3 1 2 1 3 2 4 12 4 5 9 11 3 6 3 2 14 12 9 4 4 6 11 11 6 7 12 13 22 25 28 25
12 2 3 3 2 3 3 3 1 2 1 2 1 2 2 3 3 5 4 4 3 5 6 13 11 2 0 12 9 9 17 4 4 5 5 2 9 11 8 8 6 8 15 24 25
6 5 4 4 4 3 3 2 2 1 4 1 3 6 2 1 1 1 6 3 3 4 10 3 7 5 1 6 7 14 10 4 6 5 4 3 6 2 5 4 4 8 13 10 13
0 6 5 5 2 3 1 1 2 4 3 5 5 3 3 2 1 3 1 4 5 10 2 5 2 1 2 2 1 6 4 3 4 1 2 3 4 10 3 6 4 5 7 12 13
5 7 5 5 3 2 1 1 1 2 1 2 1 1 3 4 3 2 2 3 5 1 2 4 5 1 2 2 7 3 10 3 1 4 4 3 4 4 7 6 6 6 6 9 11
8 6 6 5 4 1 2 2 1 4 4 2 2 2 3 5 2 2 1 1 1 3 2 5 4 3 4 2 8 4 4 1 0 2 1 1 2 2 8 6 5 7 7 5 4
6 3 9 7 2 1 2 3 2 3 4 3 2 1 3 4 2 1 2 1 2 5 5 1 5 4 5 3 2 2 6 12 5 5 1 3 3 4 5 4 2 6 7 6 1
6 5 7 8 2 2 2 2 2 2 2 2 3 2 2 5 3 1 2 2 3 0 2 5 4 5 2 2 1 5 9 5 3 2 6 5 3 2 4 6 4 3 11 6 4
6 3 3 4 2 2 2 2 3 1 2 1 1 1 3 3 2 4 3 2 3 1 4 3 3 3 5 2 5 7 13 13 8 5 12 13 14 9 12 11 13 19 16 8 7
4 2 4 3 3 3 1 0 3 2 2 2 2 3 1 3 3 3 2 4 3 4 2 0 3 2 1 3 3 3 8 15 13 18 13 17 18 18 20 18 19 15 9 9 9
5 5 4 3 3 4 0 2 2 3 2 1 3 2 1 2 3 3 4 4 3 3 2 1 3 2 1 1 2 3 8 9 14 16 15 20 24 20 25 22 23 23 18 16 18
7 9 6 2 4 4 3 2 3 1 4 6 2 1 5 3 3 6 3 3 1 6 4 3 4 2 1 1 2 6 13 12 8 9 13 15 18 14 17 17 17 19 17 16 16

GFSSW_850_spd_075.txt.gz
Wind_Speed
13 10 15 19 19 13 9 9 12 12 14 15 17 17 17 13 16 18 20 16 20 12 9 13 18 13 12 12 15 11 4 16 12 19 11 8 7 4 2 3 4 3 4 4 7
20 14 12 18 19 13 11 10 11 12 14 16 16 16 14 8 8 13 19 13 14 19 12 14 20 17 19 19 12 9 5 22 21 14 13 13 5 7 3 6 5 5 3 2 12
17 20 11 14 17 16 13 12 11 14 15 15 14 14 15 8 4 3 14 19 15 14 14 13 19 21 20 21 14 12 11 15 17 8 10 14 11 3 1 2 6 5 4 7 13
14 18 20 11 16 16 15 13 11 14 15 12 12 10 12 5 2 2 7 9 11 14 15 11 15 20 16 18 28 10 27 16 12 8 13 14 10 7 6 8 3 5 4 10 17
15 18 20 15 12 16 13 13 9 12 15 11 11 8 7 5 3 5 7 9 9 16 17 17 18 22 17 22 20 24 17 24 27 9 14 14 14 10 4 3 1 4 7 6 12
16 18 19 17 12 12 15 12 10 10 12 10 9 8 6 5 4 5 8 6 6 17 16 16 17 19 14 18 20 19 18 21 17 11 18 18 13 21 18 8 4 1 6 5 8
17 18 18 19 15 12 14 10 9 9 10 8 7 6 5 4 6 7 5 5 2 13 14 11 14 20 9 15 16 5 20 9 16 14 11 18 15 23 27 12 7 5 1 4 3
19 18 18 18 16 10 12 7 8 7 8 6 7 5 4 5 5 6 3 2 3 6 3 12 4 12 16 7 16 10 17 13 17 21 9 17 20 20 32 23 11 13 10 3 1
20 18 18 18 13 10 7 6 6 5 7 6 5 5 3 4 5 6 2 0 2 4 3 9 2 2 7 14 13 11 13 18 17 19 10 14 10 8 25 27 22 19 16 11 6
21 20 18 16 11 9 4 4 3 3 6 4 5 4 3 5 6 4 2 2 3 6 5 3 2 3 6 11 17 14 15 19 13 16 18 13 11 1 14 26 34 28 21 17 12
23 20 18 13 8 6 2 2 1 3 1 3 5 4 4 8 1 1 1 4 3 6 4 2 3 11 19 18 16 16 17 19 20 10 14 17 15 14 12 17 27 32 29 24 19
21 20 16 9 6 2 2 2 2 1 3 0 2 2 5 2 1 2 4 6 4 5 5 4 6 9 8 18 8 17 19 11 3 10 13 16 15 14 17 22 25 24 35 34 28
20 19 13 6 2 2 3 3 2 1 4 3 2 2 1 3 3 2 4 3 5 5 7 5 7 9 7 14 14 17 18 14 13 9 13 9 15 15 17 22 22 24 25 34 34
19 17 9 1 2 3 2 5 2 1 2 3 1 2 2 3 1 6 7 3 2 5 10 9 8 7 12 17 12 11 13 14 11 13 7 15 6 17 17 17 20 26 21 24 29
17 14 4 3 2 1 4 4 2 1 1 2 2 1 0 0 11 5 7 3 9 8 6 6 13 11 14 16 9 10 8 9 9 12 5 9 6 13 9 17 18 22 21 21 19
15 7 3 3 2 3 3 3 2 2 1 0 1 1 2 2 6 9 3 2 7 4 8 9 13 3 7 8 1 9 11 8 4 7 8 14 10 9 10 11 13 16 19 23 21
10 2 4 6 2 2 1 3 2 2 1 4 2 2 4 1 1 2 4 3 3 5 4 7 8 4 6 9 9 16 16 5 5 4 6 1 10 12 1 4 4 2 12 18 22
4 6 5 6 6 4 4 3 3 1 4 3 4 5 3 5 2 2 2 3 2 5 10 4 3 4 7 10 7 14 17 4 5 7 10 5 6 6 4 4 3 6 10 11 9
4 8 4 8 4 3 2 3 1 3 5 6 7 3 4 2 2 3 3 2 2 10 1 5 2 2 1 3 5 9 4 4 3 5 0 7 6 10 4 8 7 8 5 6 9
8 7 6 8 3 3 1 3 0 1 2 3 3 2 3 5 6 4 2 2 5 4 4 4 4 3 4 3 1 4 9 4 1 4 5 5 5 3 8 7 6 5 4 3 4
10 5 6 7 5 3 1 2 1 4 3 3 0 3 4 6 6 5 4 3 4 5 4 6 6 3 8 7 10 4 4 4 3 2 3 2 3 8 8 7 8 10 11 10 6
7 3 11 9 3 1 2 3 1 4 4 2 2 2 4 6 5 3 4 2 5 6 6 2 4 4 6 3 4 5 12 12 5 5 2 4 2 4 10 4 4 5 6 9 7
6 5 11 11 3 4 4 3 2 5 4 3 2 1 1 5 2 2 4 2 5 3 5 5 5 4 1 4 5 6 11 8 10 3 4 5 2 4 2 5 7 4 10 16 9
7 4 5 10 8 6 6 5 5 3 2 2 1 3 5 4 0 5 5 3 4 3 2 2 4 4 3 4 3 8 15 14 9 5 10 12 13 9 5 7 10 13 17 11 6
6 3 6 4 7 7 3 4 7 5 2 3 4 3 3 4 4 4 4 6 4 4 2 2 3 2 1 3 3 3 12 17 14 17 10 14 15 16 15 15 16 17 20 16 13
6 5 4 4 6 8 5 6 9 4 2 4 3 2 2 1 4 3 3 3 3 6 5 2 2 2 3 1 3 6 9 11 18 19 18 19 18 14 12 12 10 16 17 16 13
12 10 5 5 6 7 5 6 7 5 3 3 1 2 6 4 5 4 3 2 3 3 8 4 4 3 2 1 3 8 14 15 11 10 12 14 16 13 13 12 15 18 18 18 18

GFSSW_850_spd_078.txt.gz
Wind_Speed
17 20 14 12 18 18 14 11 12 14 15 17 19 19 18 18 15 13 19 18 18 18 11 16 15 15 7 9 12 14 5 10 19 2 6 10 4 1 4 10 9 6 5 14 14
14 18 22 12 15 17 17 13 12 14 15 18 18 17 16 16 10 15 14 16 18 18 9 10 20 16 10 13 10 8 4 12 12 12 12 11 8 8 4 12 16 17 10 8 18
17 15 19 20 11 15 17 17 14 12 16 18 16 16 15 16 8 5 4 17 19 22 11 14 13 20 17 14 10 11 11 11 4 10 17 15 8 2 6 8 14 12 5 8 13
19 16 19 21 14 11 15 14 15 10 15 17 15 14 11 6 6 10 7 10 18 13 12 15 14 16 14 13 20 6 16 22 9 9 6 5 13 6 19 14 11 14 4 8 14
21 17 19 19 16 11 12 15 13 10 14 15 12 12 11 9 6 8 9 4 6 11 16 15 19 15 14 17 21 14 11 21 16 5 6 12 12 8 17 13 12 14 7 7 16
23 19 18 17 19 14 10 14 9 11 11 13 9 8 9 5 6 9 8 13 9 14 15 12 10 18 15 17 20 24 22 15 17 14 2 8 9 14 11 11 13 10 10 5 13
23 22 18 18 19 15 10 12 7 10 9 9 7 7 9 4 7 10 8 11 8 11 15 10 15 9 7 10 24 14 15 4 10 13 4 3 18 9 14 10 11 8 9 8 3
23 23 19 18 19 14 9 8 6 7 7 7 7 5 4 7 7 8 6 5 6 5 7 8 9 9 4 15 11 8 3 8 9 7 4 8 10 9 15 15 11 7 6 7 4
22 23 20 20 16 11 9 4 5 4 6 5 5 6 3 4 8 5 4 6 4 4 4 2 4 7 2 5 5 11 8 16 16 19 4 6 11 17 26 22 18 12 7 8 9
22 23 21 20 13 9 3 3 2 2 7 4 6 4 4 7 8 4 3 4 3 4 7 1 5 3 2 4 10 10 8 9 11 12 9 13 18 5 27 23 22 13 13 14 8
21 21 21 19 11 7 2 3 3 0 3 2 5 6 4 9 3 2 1 2 3 3 3 4 2 7 10 8 7 10 11 13 10 10 14 13 8 5 5 12 12 19 20 18 20
20 20 20 14 8 3 1 1 1 1 2 1 1 1 7 2 1 1 4 2 3 4 4 4 3 5 7 15 6 2 11 4 3 8 2 11 12 12 11 15 23 24 27 30 29
18 19 18 9 4 2 4 4 3 0 4 3 1 1 1 3 2 1 2 3 2 2 4 2 5 8 4 2 2 8 11 13 6 6 10 8 9 10 15 19 23 25 26 27 34
16 17 15 2 3 0 2 7 3 3 1 4 2 2 2 1 0 3 2 2 2 5 2 4 5 7 5 7 8 8 17 13 16 7 4 8 3 12 15 14 14 18 22 23 24
15 15 10 6 3 1 6 3 3 3 1 2 4 1 2 2 6 3 1 2 5 5 5 3 10 6 5 8 13 5 13 4 7 8 1 6 2 6 12 9 9 13 21 22 20
13 12 4 4 3 6 3 4 5 1 2 1 4 4 4 7 4 4 1 2 1 2 2 3 11 4 2 10 5 5 7 9 2 3 2 6 3 5 5 9 8 14 22 26 22
11 7 7 6 3 2 5 4 1 2 4 3 3 4 4 4 5 6 6 4 3 5 6 12 5 1 3 1 6 7 7 3 2 1 3 1 5 9 1 6 2 6 3 7 25
7 6 7 4 6 3 8 2 2 1 4 1 5 6 3 4 2 9 6 4 8 4 4 4 1 3 6 4 2 6 5 4 4 3 4 2 2 5 4 12 10 6 1 7 8
6 9 5 8 7 5 3 2 1 4 5 6 6 4 3 4 0 3 3 3 1 1 1 4 3 3 4 3 4 2 3 1 4 4 4 4 5 3 6 5 4 4 5 1 6
11 9 6 8 6 5 2 4 2 3 3 5 3 5 3 4 4 4 1 2 4 4 6 4 5 3 2 3 2 4 2 2 3 1 1 4 4 3 5 6 8 9 12 7 2
14 6 6 9 7 3 2 4 1 5 2 1 5 3 3 4 5 4 5 1 1 3 4 1 4 2 2 4 5 2 2 2 1 3 0 2 1 7 9 9 9 9 9 5 4
12 3 8 11 4 2 3 5 1 7 5 2 3 1 3 6 4 2 3 1 3 3 1 6 1 3 3 5 3 6 2 7 3 3 1 3 4 3 9 8 12 9 3 3 3
10 6 12 14 4 4 6 4 3 5 5 4 3 1 4 3 2 5 6 1 6 4 3 3 2 3 2 3 4 5 5 6 1 3 3 3 4 4 6 5 6 7 6 8 6
9 4 4 11 12 5 6 7 6 1 1 1 2 2 3 4 1 4 5 2 2 2 1 4 4 0 3 1 2 4 8 8 5 2 3 5 4 3 6 7 9 15 8 6 4
9 5 10 5 8 10 2 7 7 5 2 5 4 5 3 2 4 4 8 5 4 1 1 2 3 3 2 2 2 0 4 8 7 11 5 5 9 6 7 6 8 6 9 10 11
8 5 9 1 4 10 5 5 9 4 1 6 3 3 4 5 7 2 5 6 5 5 5 1 2 3 2 3 2 3 7 8 12 11 10 12 15 12 5 1 6 11 13 14 14
15 11 7 6 5 6 7 6 6 10 2 5 4 2 4 5 5 4 5 4 3 5 6 6 4 2 1 2 2 5 12 13 7 7 10 13 12 3 4 6 9 12 13 16 18

GFSSW_850_spd_081.txt.gz
Wind_Speed
19 15 17 22 13 16 15 17 13 13 13 16 17 17 16 17 19 14 13 20 19 18 12 12 13 15 16 7 13 19 5 7 5 4 4 8 3 4 5 10 8 5 14 26 31
21 18 16 19 21 12 16 18 18 13 12 17 18 16 14 15 14 9 12 16 17 16 16 12 17 17 13 9 8 8 7 7 1 2 5 7 4 5 5 14 9 16 17 24 22
22 19 16 18 17 14 10 16 17 14 12 16 18 15 12 12 12 3 15 10 11 14 13 14 9 19 16 8 9 9 9 1 6 5 9 8 4 3 9 4 9 16 18 26 28
21 21 17 18 18 16 11 14 16 14 11 15 15 13 10 8 4 12 13 13 13 12 15 16 8 9 6 9 13 5 12 6 6 9 9 3 6 5 8 9 11 9 13 24 33
21 22 19 19 16 17 14 10 15 11 12 13 11 11 8 7 6 13 11 15 8 12 14 16 8 11 9 10 9 11 7 10 5 7 13 7 4 6 13 16 12 10 9 17 26
21 22 21 19 18 18 15 10 13 9 11 10 8 9 7 7 5 12 9 16 11 10 19 15 8 13 14 5 13 13 10 10 10 4 6 6 2 2 12 14 15 13 9 14 18
21 22 21 20 18 18 14 8 11 8 8 8 6 7 8 10 11 10 9 14 11 17 18 14 11 9 0 4 11 14 9 5 8 12 4 10 7 3 13 14 13 14 11 11 18
21 21 22 22 21 18 13 11 6 6 4 6 2 3 5 4 7 10 6 9 10 10 14 8 5 8 3 10 5 8 3 6 9 8 4 4 9 15 10 14 12 15 13 11 9
21 21 22 23 22 15 10 5 5 3 4 2 3 5 5 6 11 9 5 9 6 8 9 3 6 6 1 1 4 8 5 9 6 8 5 11 4 12 7 16 14 10 8 8 11
21 20 22 22 21 12 4 3 2 0 2 3 6 7 3 4 12 5 4 7 4 5 9 7 7 2 2 1 7 8 6 10 9 10 8 5 5 4 4 12 18 14 11 6 11
19 19 21 21 16 8 1 2 2 1 2 2 5 7 5 12 3 5 4 3 5 3 3 5 2 6 5 3 4 5 5 7 9 14 8 8 6 7 6 15 20 17 16 16 10
18 18 20 18 10 4 2 0 2 0 1 3 1 3 5 5 1 4 3 2 4 3 4 3 2 3 5 6 6 4 3 2 5 17 7 13 9 8 13 10 18 25 24 22 22
17 16 18 14 4 2 4 3 4 2 2 2 2 1 2 1 3 4 5 3 5 3 4 3 3 3 4 4 1 3 3 4 8 9 2 4 4 4 7 19 26 28 27 27 29
16 14 15 6 2 2 2 3 4 2 3 2 1 2 2 2 1 1 2 4 5 2 4 1 5 5 10 5 4 3 7 4 8 4 4 3 1 14 15 16 11 23 26 26 26
15 12 12 6 4 3 5 5 3 2 1 5 3 0 1 1 6 1 1 1 3 1 2 3 2 4 5 6 8 5 9 8 9 6 5 3 3 6 6 11 16 20 27 25 24
13 10 8 8 5 4 4 5 4 3 4 2 4 3 3 5 3 4 1 1 4 2 4 1 5 1 1 5 8 8 2 9 6 2 1 5 4 4 4 15 6 9 29 26 25
11 8 7 8 3 3 6 6 2 2 3 3 4 4 6 4 4 1 3 3 3 5 2 7 3 3 1 3 2 1 6 3 2 2 4 4 4 7 3 5 9 12 20 19 27
9 6 10 7 6 6 12 2 2 2 5 3 3 4 3 4 3 3 0 0 2 1 3 2 2 3 1 2 5 7 4 4 4 3 3 0 5 5 4 5 13 15 14 7 4
10 14 12 10 10 12 5 2 3 5 5 5 4 4 3 3 2 6 6 4 4 11 2 4 2 3 4 3 2 5 3 2 4 2 4 3 5 6 4 6 5 6 6 3 2
17 13 10 12 10 9 2 5 2 5 4 6 3 4 5 6 3 5 4 3 2 2 1 2 4 3 2 3 2 3 3 3 3 1 3 3 3 4 5 6 7 8 11 7 1
19 11 12 14 12 6 3 5 3 4 1 1 6 4 3 5 3 4 6 2 2 2 2 3 4 1 3 0 2 3 2 2 3 4 3 2 5 6 8 9 9 8 9 7 6
18 3 15 17 4 3 4 5 3 6 2 1 0 2 2 5 5 2 4 4 6 4 2 2 5 3 3 3 3 2 2 1 4 3 1 4 3 3 8 9 16 9 5 4 3
20 7 15 19 4 4 5 3 3 5 4 4 3 0 2 2 3 5 4 4 2 2 2 2 2 3 2 3 3 2 3 3 2 3 2 4 4 1 7 9 12 11 5 6 3
12 4 6 13 9 1 4 5 4 3 3 1 2 2 0 3 4 4 2 1 3 4 3 4 3 5 5 4 4 4 6 5 4 3 2 5 0 1 4 5 5 4 3 2 3
9 5 10 6 8 11 3 7 6 4 2 5 1 2 2 3 3 4 3 2 3 3 3 3 3 3 2 3 2 2 4 7 7 6 6 5 8 5 3 3 3 4 3 4 7
12 6 11 7 7 13 6 5 7 4 4 4 2 4 3 4 1 3 4 3 4 1 2 2 1 2 2 2 1 3 5 6 6 4 7 5 7 5 11 5 6 5 6 8 10
12 10 7 4 5 6 5 5 6 9 3 5 3 5 5 3 3 3 3 4 3 6 5 4 4 2 3 2 2 5 8 10 5 4 7 7 7 1 2 2 3 7 9 11 14

GFSSW_850_spd_084.txt.gz
Wind_Speed
20 19 16 15 18 19 11 14 17 16 13 11 16 16 16 17 18 16 16 13 13 14 18 14 18 19 15 19 18 18 5 12 6 9 4 6 4 2 6 15 8 12 21 30 36
21 20 17 14 17 18 14 11 16 18 14 11 16 17 15 17 18 14 8 15 17 17 21 17 16 16 16 15 12 8 7 12 4 1 2 2 4 6 5 7 5 13 21 36 43
20 20 18 16 16 18 15 11 13 16 15 11 15 15 14 15 16 3 14 14 14 12 14 18 17 18 15 11 12 4 10 7 3 3 2 2 1 3 12 3 6 19 33 37 40
21 21 19 19 17 14 16 13 10 15 13 12 14 13 12 9 4 10 17 12 15 8 15 15 15 10 7 9 12 4 8 17 3 8 4 4 11 5 4 6 13 23 35 42 37
21 21 19 20 18 16 17 13 8 13 10 12 11 11 11 7 8 12 16 12 15 10 15 14 16 15 7 11 5 10 8 21 8 7 8 8 8 3 12 12 11 16 24 31 31
20 20 20 19 19 17 17 13 7 11 8 9 9 9 8 4 8 13 15 19 20 14 18 16 8 12 6 6 12 19 10 18 22 5 8 8 6 3 8 10 11 11 14 21 26
18 19 19 19 21 19 17 8 7 7 6 6 6 8 8 7 8 11 13 20 13 20 18 16 14 6 5 3 5 7 9 6 13 17 3 8 2 3 7 8 13 9 8 15 22
18 18 18 19 21 20 12 6 4 3 3 4 3 7 7 6 10 18 11 15 9 11 15 17 14 14 3 4 3 9 6 7 6 16 4 6 4 3 5 8 12 10 7 8 16
18 17 17 18 20 19 9 2 2 1 1 2 0 6 8 9 12 9 4 10 8 8 11 3 7 3 1 2 4 3 3 9 4 6 5 7 5 12 7 10 7 12 11 8 8
17 16 17 16 18 13 5 0 0 2 3 3 3 6 5 9 13 5 2 6 4 4 7 6 6 3 3 1 8 6 6 3 6 4 5 10 6 5 9 10 11 10 12 11 12
18 15 14 15 17 9 1 2 2 1 4 3 2 5 8 10 3 7 2 5 4 5 2 7 2 3 3 2 4 3 10 8 6 10 5 6 10 7 14 16 15 16 14 11 12
17 15 12 13 13 4 3 3 2 1 3 6 3 4 6 5 4 7 5 4 4 3 3 4 1 2 10 2 6 3 10 7 5 12 9 10 14 9 16 15 16 21 22 19 14
17 13 10 11 5 1 5 2 2 3 1 3 1 1 3 3 2 4 9 5 4 4 4 5 2 6 6 4 8 5 9 6 7 12 10 6 5 7 9 18 14 19 27 26 21
19 10 7 8 2 4 3 3 3 2 3 3 2 0 2 2 2 2 4 3 5 2 3 4 4 3 7 2 0 5 5 2 13 12 3 2 2 7 9 10 9 19 24 27 25
21 10 6 6 6 6 4 1 5 3 3 4 3 2 0 2 1 1 3 2 3 2 1 3 9 6 3 3 5 3 4 5 6 3 3 8 4 5 5 10 9 16 30 30 27
21 10 6 7 10 7 5 6 7 3 4 2 5 3 4 7 0 1 2 4 1 2 1 2 3 1 2 3 4 3 3 8 7 3 0 6 4 5 4 7 6 14 26 31 29
20 11 6 10 8 9 9 10 2 2 1 4 4 4 4 3 3 2 3 1 2 4 2 3 2 3 1 5 5 2 4 2 2 1 3 3 3 8 5 4 7 10 23 26 29
19 13 11 13 9 11 15 3 4 5 5 3 4 3 4 6 4 2 4 3 2 2 2 2 2 3 2 3 6 3 4 4 4 4 3 4 5 5 2 2 2 9 13 9 6
21 21 16 13 14 16 7 2 6 6 6 7 3 3 3 2 4 4 2 5 5 6 2 2 3 2 3 2 2 3 1 2 5 2 3 3 5 6 6 6 8 12 11 7 3
30 24 17 18 16 17 2 5 4 4 5 4 5 5 6 5 4 4 2 3 4 6 8 0 4 3 3 0 2 4 3 1 3 3 3 2 2 3 2 3 3 6 10 8 5
30 14 18 21 17 10 4 6 4 6 5 7 6 4 4 6 4 3 8 2 3 3 2 4 3 3 3 5 1 3 1 3 3 3 3 2 4 5 8 7 8 6 9 9 8
17 6 25 25 5 5 5 4 6 5 3 2 4 4 4 6 5 4 6 3 5 3 3 1 4 3 1 2 1 1 2 2 4 2 1 3 4 5 8 8 13 10 6 5 4
11 12 22 27 4 5 4 5 6 4 5 5 4 1 2 4 2 4 3 2 5 3 2 2 2 3 2 4 3 1 3 3 4 3 2 3 4 4 5 2 3 7 4 6 1
14 5 7 18 7 4 4 5 4 5 4 3 3 3 2 2 3 3 2 3 5 3 3 3 3 5 5 5 3 3 4 3 4 3 2 4 2 2 2 4 3 5 5 3 3
11 5 10 7 11 7 2 6 5 5 2 6 1 3 3 3 2 3 3 2 4 2 2 3 4 3 0 3 2 2 3 6 7 5 5 4 6 6 4 0 1 6 4 1 5
12 7 10 6 13 15 6 4 8 4 5 4 4 4 6 4 3 4 5 3 3 1 2 2 2 2 2 1 2 1 3 3 4 4 6 4 6 5 4 6 4 2 2 5 10
8 14 12 12 5 10 5 6 8 9 5 5 5 6 6 5 5 6 5 4 6 6 2 3 4 2 2 4 5 5 6 6 4 4 5 7 7 5 5 4 3 3 5 6 8

GFSSW_850_spd_087.txt.gz
Wind_Speed
22 21 18 16 14 17 18 13 10 16 19 15 11 15 19 18 19 18 18 11 12 14 15 19 16 21 24 21 21 13 8 9 13 15 6 11 5 5 8 15 12 19 11 17 32
21 21 20 18 15 15 18 14 13 10 18 16 12 15 17 17 20 20 5 11 12 16 16 19 20 19 27 12 11 9 6 8 7 3 7 5 5 10 7 6 3 11 12 28 34
21 21 21 19 18 17 16 17 14 8 15 15 13 15 16 17 18 1 11 13 11 15 14 17 19 16 21 19 11 7 11 12 21 2 4 8 2 4 9 4 8 21 26 42 37
22 20 21 19 19 18 17 20 13 8 14 12 14 13 15 11 4 7 15 12 15 16 10 14 18 16 5 8 14 8 20 13 21 5 2 5 3 2 1 3 11 25 31 43 42
26 20 20 19 19 18 19 19 13 7 13 9 12 13 12 6 11 11 12 15 20 16 10 13 15 15 7 5 11 12 12 11 15 10 12 7 5 2 3 6 14 25 36 45 42
30 19 19 19 18 18 19 17 11 6 13 8 10 12 10 6 8 9 13 18 19 27 20 14 7 14 8 6 14 3 15 24 12 14 10 6 4 2 1 5 16 25 35 35 40
33 20 18 19 19 18 18 13 8 9 8 6 7 10 8 14 10 13 18 17 24 8 21 17 15 11 3 3 8 15 14 7 10 7 3 10 2 4 9 7 14 17 23 27 29
35 22 17 20 19 18 17 9 6 4 4 5 4 7 7 7 11 17 9 13 18 5 14 13 15 11 8 4 4 7 3 9 3 7 3 12 5 2 9 5 8 11 15 27 30
31 26 17 17 18 17 12 5 3 4 3 3 4 4 9 9 11 9 6 13 10 9 5 4 12 8 6 4 4 3 3 3 3 10 3 4 3 5 12 10 4 5 9 11 20
28 30 18 14 15 17 6 3 3 3 4 4 7 5 5 12 10 8 4 9 1 7 1 6 6 1 2 2 6 5 5 6 4 8 10 6 8 11 15 8 8 4 3 6 11
33 32 19 12 13 13 5 5 3 1 7 5 3 7 8 8 6 7 8 7 1 3 5 3 3 1 6 2 2 7 9 5 6 11 10 8 4 11 18 16 12 9 7 7 9
30 33 21 10 11 8 8 6 6 3 4 8 6 9 7 4 4 7 9 6 4 2 4 5 4 4 3 2 4 7 8 3 6 12 4 4 8 7 10 13 14 15 14 14 13
24 36 20 8 7 8 10 7 5 3 1 3 5 4 3 1 2 4 8 4 4 5 2 5 2 6 2 3 4 2 7 5 6 8 3 5 5 8 7 16 18 19 20 22 19
24 36 19 7 8 10 11 9 6 4 4 3 2 2 1 1 2 1 5 3 4 1 4 4 5 1 7 0 3 4 2 5 16 6 2 5 4 5 10 9 15 20 23 25 23
25 28 17 12 5 14 9 10 9 5 3 3 3 2 2 3 2 0 4 2 1 2 1 1 3 4 4 1 3 4 4 3 8 7 2 6 2 5 7 11 21 10 26 25 26
25 28 16 16 16 12 12 13 12 4 6 3 4 3 3 4 2 1 1 2 1 2 2 3 1 1 1 3 5 5 8 11 6 2 1 7 5 4 3 9 9 10 24 23 22
26 27 21 15 19 18 16 16 5 2 1 4 4 3 2 3 2 3 3 1 1 3 2 4 2 5 2 5 7 2 2 3 2 2 1 4 5 7 7 5 5 9 21 23 20
26 27 20 18 16 20 22 4 3 4 5 2 4 3 3 4 1 3 4 1 3 1 2 3 2 2 2 2 3 3 1 3 3 2 3 3 4 4 3 4 1 3 2 4 5
20 22 21 21 21 24 11 4 6 7 6 6 3 3 3 3 2 1 2 3 4 7 2 4 1 3 1 0 1 4 3 0 5 3 3 2 4 6 3 6 10 15 13 11 8
21 21 28 23 21 24 1 4 3 4 4 3 5 5 5 5 2 4 2 4 3 7 2 2 3 2 2 2 3 1 1 4 3 3 2 2 3 3 1 2 5 6 10 10 9
27 14 24 25 22 13 3 5 3 7 8 5 6 4 4 6 5 4 4 3 2 5 6 3 2 2 2 4 2 4 3 5 3 3 3 2 4 4 5 4 7 6 10 12 12
27 4 31 30 7 5 3 6 3 5 6 4 4 4 6 6 4 4 5 4 4 3 5 4 4 3 2 1 0 0 2 3 4 2 2 3 4 5 3 4 6 7 6 8 9
19 6 32 31 5 4 2 2 4 4 5 4 4 4 2 5 4 2 2 3 2 2 2 2 2 3 6 4 2 2 3 3 4 2 1 3 4 5 8 7 4 3 3 3 4
13 4 7 18 4 5 5 4 6 7 4 3 3 3 3 4 4 4 2 2 3 3 5 4 3 4 5 4 4 3 4 4 4 3 3 4 2 2 4 5 1 3 0 3 5
7 4 9 7 10 4 6 2 11 5 2 7 1 3 5 4 4 3 2 2 4 4 3 3 3 3 3 3 2 1 1 5 4 4 5 4 4 4 5 1 0 5 4 1 3
12 6 7 3 19 8 5 4 11 3 4 4 5 3 3 5 5 6 6 3 3 3 3 3 0 1 4 5 6 2 2 1 3 3 5 3 5 5 8 3 6 6 1 4 7
8 13 9 9 8 12 6 4 7 7 4 5 6 5 4 4 8 10 4 8 6 6 3 3 4 2 2 3 4 5 4 4 3 3 4 5 7 4 2 4 6 4 2 3 5

GFSSW_850_spd_090.txt.gz
Wind_Speed
27 24 23 21 19 16 17 22 18 13 9 18 17 12 16 21 21 20 21 13 11 12 15 22 19 18 18 22 24 10 7 12 19 18 12 13 12 11 11 13 15 31 18 25 21
30 28 23 21 20 18 18 20 20 14 9 14 16 14 17 21 21 24 8 5 8 11 17 19 21 19 18 19 17 9 10 18 10 10 5 19 17 12 8 10 10 22 22 28 21
30 30 27 21 20 19 20 18 20 15 7 12 13 15 16 20 20 1 9 7 8 13 21 18 18 16 15 23 19 8 13 13 9 21 13 11 8 9 8 7 15 26 31 33 32
27 29 31 20 20 19 18 18 21 14 7 11 11 14 14 14 5 6 12 8 13 17 20 13 12 7 5 13 28 7 18 19 16 20 3 7 4 4 10 3 12 29 36 37 39
27 29 30 24 18 20 19 18 20 15 6 11 10 12 12 8 12 8 11 11 17 23 20 16 11 9 9 4 15 15 8 14 20 19 21 24 6 5 3 3 11 27 35 38 35
24 28 28 26 17 19 20 18 18 15 8 10 7 11 10 5 5 10 15 20 19 21 23 20 6 13 8 11 13 7 16 16 10 18 13 10 4 3 2 6 17 30 41 42 40
22 31 26 27 17 16 20 19 16 11 13 7 5 11 10 14 8 13 17 19 18 24 16 17 15 7 8 7 24 19 3 10 6 13 9 10 5 4 14 2 13 24 32 35 32
23 23 29 25 17 14 19 20 15 12 9 6 5 7 7 6 10 13 11 8 15 7 6 8 7 11 7 13 3 6 4 8 2 12 16 12 8 3 20 10 8 7 27 35 36
24 21 27 23 18 11 18 16 10 9 7 6 6 4 9 8 12 7 6 9 9 6 5 4 6 2 7 7 2 4 3 5 4 7 15 11 6 2 17 18 14 8 6 25 30
26 24 29 24 19 10 15 10 7 7 8 6 6 4 3 9 10 6 4 7 4 3 5 4 3 1 6 3 4 6 5 5 5 1 6 8 7 5 11 17 14 11 3 8 28
25 19 22 25 16 7 10 5 4 5 14 8 6 3 6 11 7 4 7 5 5 1 3 2 1 3 4 4 2 7 7 7 4 2 4 6 5 9 13 15 13 10 5 6 12
22 20 17 22 15 8 9 10 9 3 7 12 5 4 6 6 4 3 5 3 4 3 2 1 2 4 7 3 4 7 12 6 9 6 5 7 6 4 8 9 11 10 8 2 9
22 22 15 19 12 9 10 16 10 6 3 2 5 2 1 2 3 5 6 2 3 5 4 2 2 4 6 3 4 2 6 6 7 7 5 1 3 2 3 14 17 14 12 8 8
21 23 15 17 11 9 8 9 9 4 3 2 1 2 2 0 3 3 4 3 3 1 3 1 2 2 5 2 4 3 4 5 15 6 2 2 4 3 9 8 10 23 13 12 12
17 18 14 21 6 8 1 8 8 3 3 2 3 4 2 2 1 1 4 2 1 2 2 3 3 5 3 2 5 3 3 4 5 6 5 2 2 3 5 6 11 5 16 16 14
18 14 13 16 14 8 5 9 6 4 5 4 4 3 2 3 1 2 2 3 1 3 2 3 2 2 2 2 3 0 6 8 7 3 2 5 3 4 5 7 3 5 16 19 17
20 17 15 28 17 13 13 10 3 3 1 4 4 4 1 2 2 1 1 3 2 2 2 4 2 4 2 4 0 4 3 3 3 2 2 2 2 6 6 6 3 4 11 15 16
25 22 18 31 16 19 17 2 2 3 5 3 4 3 3 4 1 2 2 1 2 2 2 3 4 3 4 2 3 1 4 1 4 3 2 2 2 4 4 7 2 4 6 9 11
18 17 17 25 20 24 16 3 5 6 6 8 4 3 2 3 3 2 3 2 3 6 1 2 3 2 4 3 2 1 3 2 5 3 3 1 4 4 4 7 11 15 19 18 15
12 12 16 21 23 24 5 5 4 3 4 5 4 4 4 4 3 2 3 2 2 5 2 1 3 3 1 4 3 2 1 4 4 2 4 4 2 1 5 5 5 8 14 15 13
14 6 8 23 27 13 5 5 5 7 5 5 4 4 4 5 5 4 4 2 2 2 2 2 3 3 1 2 1 3 2 4 4 3 3 3 3 2 5 2 5 7 14 16 17
13 3 15 32 5 4 4 4 3 4 6 3 4 3 6 6 4 4 5 3 2 5 3 1 4 3 2 1 1 2 2 2 4 2 2 2 3 4 3 5 10 9 12 13 13
8 6 29 34 4 5 1 3 2 3 4 3 4 3 3 5 4 3 4 1 3 2 4 3 3 3 6 5 5 3 3 4 4 3 1 3 4 3 5 5 6 8 8 8 7
13 4 8 16 3 4 4 4 4 6 3 5 3 3 3 3 4 4 2 2 2 2 4 5 3 3 5 3 2 2 3 2 4 3 2 3 2 1 3 5 2 3 6 6 6
9 5 8 7 8 4 6 4 5 4 2 4 2 2 4 3 2 3 2 2 3 2 3 3 4 3 5 3 2 1 2 3 3 3 4 3 5 4 4 2 2 2 3 2 3
10 6 10 5 14 6 6 4 7 2 4 3 4 3 2 5 5 6 5 2 2 4 3 3 2 2 3 5 4 1 2 3 3 3 4 1 4 5 5 2 3 4 3 1 3
9 13 13 9 11 10 5 4 11 6 5 7 6 4 4 3 5 8 3 7 5 4 2 3 3 3 3 3 4 3 3 4 3 2 4 4 6 4 4 6 7 5 2 3 5

GFSSW_850_spd_093.txt.gz
Wind_Speed
23 23 25 24 24 21 19 18 20 22 17 15 16 17 12 16 18 20 20 11 10 7 10 13 17 16 12 10 20 13 7 12 19 21 17 14 15 37 18 13 16 20 12 17 34
25 25 23 23 25 20 18 20 18 19 20 11 14 16 15 16 20 21 4 1 3 6 11 14 17 11 10 9 12 12 10 18 12 17 11 11 15 18 12 21 14 19 8 20 35
22 25 24 24 24 20 17 19 16 21 19 11 12 16 16 15 17 2 6 5 6 11 10 17 13 9 9 13 14 11 14 14 18 27 16 10 9 17 16 15 18 24 27 34 29
21 18 26 24 24 22 16 16 16 20 17 8 12 17 15 13 4 2 7 5 8 17 18 19 7 5 5 11 16 12 19 22 19 22 16 13 6 10 22 31 18 26 39 36 28
27 25 23 28 19 23 16 14 15 19 14 6 12 16 13 8 9 3 4 9 11 15 20 17 14 9 7 5 12 15 16 18 28 27 16 16 11 6 17 35 34 23 36 40 32
25 23 22 27 19 20 16 13 14 17 10 8 11 14 13 6 4 4 9 14 13 18 20 20 13 10 7 10 9 3 13 22 18 21 17 9 16 11 9 21 32 24 37 44 35
21 26 23 22 27 21 16 12 14 16 9 11 9 10 14 18 4 7 10 10 12 17 22 23 17 13 3 5 7 13 10 17 18 13 6 6 10 9 14 17 29 31 31 40 30
21 19 19 20 26 18 15 12 13 11 7 7 7 10 10 7 7 8 7 6 11 11 4 2 13 7 4 8 11 6 11 6 10 8 4 8 12 6 6 3 18 22 30 33 40
22 20 15 12 22 16 15 10 10 7 7 6 8 8 10 5 6 3 2 4 8 7 4 5 6 3 3 3 5 7 2 7 4 13 7 3 3 9 4 8 8 5 15 30 31
24 21 17 11 21 18 10 6 6 8 7 8 9 6 10 5 6 3 1 3 5 4 1 2 3 2 3 4 4 7 5 3 5 7 9 8 7 21 6 9 9 11 8 23 34
25 21 19 11 20 16 8 2 0 2 11 9 6 6 6 8 4 0 6 2 3 2 1 0 3 5 5 13 11 4 10 9 7 7 7 11 6 17 7 6 8 12 12 12 19
25 21 20 15 17 15 6 5 4 4 5 13 14 13 9 5 2 2 4 1 2 2 2 2 3 5 10 11 9 5 9 8 10 5 8 5 8 17 5 1 2 6 12 11 16
21 19 19 12 15 11 5 4 7 4 3 3 14 9 6 4 2 1 7 3 1 2 2 1 5 7 6 2 6 3 6 6 7 6 7 3 3 6 2 3 3 2 4 6 12
19 14 13 11 7 8 4 6 7 1 2 3 4 5 5 4 1 1 4 2 2 1 1 2 5 1 4 3 3 4 1 7 14 7 3 2 5 4 6 5 1 5 5 2 6
17 12 5 8 7 7 8 11 7 4 1 3 3 5 4 2 2 2 3 1 1 1 2 1 2 2 5 2 6 2 1 9 9 3 6 2 1 1 2 7 3 5 9 6 4
18 11 9 4 12 8 11 13 9 1 4 3 4 4 4 1 3 1 2 1 2 2 3 2 3 2 1 4 5 1 5 7 3 3 3 2 2 3 1 3 3 6 11 8 9
17 11 10 12 11 14 15 16 2 3 1 5 4 4 2 3 2 3 1 2 1 3 1 2 2 4 2 3 4 7 3 3 2 3 2 3 3 3 8 5 1 11 13 11 15
15 14 13 16 15 20 20 2 3 1 4 3 4 4 4 4 2 2 2 1 2 1 1 2 4 4 4 2 2 3 2 2 4 3 4 2 4 5 6 8 9 9 1 5 12
12 9 12 15 23 28 19 2 3 5 5 7 3 3 3 2 3 3 2 2 4 6 1 2 3 1 2 3 1 3 3 1 5 3 4 2 1 4 10 15 15 16 17 18 18
8 8 9 20 30 29 3 3 3 3 3 3 4 3 5 4 3 3 1 3 1 4 2 1 2 2 2 4 2 1 2 2 3 3 4 2 2 2 6 6 5 8 13 17 19
5 4 5 28 30 12 2 3 4 7 4 4 3 4 3 4 2 3 3 3 2 2 2 1 3 2 2 4 3 3 2 4 4 3 3 3 1 2 3 0 4 5 16 20 21
3 2 5 28 4 3 3 5 4 4 5 2 2 3 4 4 3 2 2 3 2 4 2 1 3 4 2 4 2 0 2 3 3 2 4 2 2 4 4 4 8 10 14 16 16
3 6 5 26 4 3 3 1 3 2 3 2 1 1 3 4 4 2 2 2 0 2 2 2 3 2 6 4 3 5 4 4 4 3 2 3 2 3 3 5 5 11 11 12 12
5 3 4 13 1 4 4 2 3 5 2 2 2 3 4 3 5 3 2 4 3 3 6 4 3 3 4 1 1 2 3 4 4 3 3 1 3 1 1 4 5 8 10 11 9
11 4 4 4 4 5 6 2 4 3 1 2 3 3 5 4 3 3 2 2 4 3 4 4 4 4 4 3 2 0 1 3 3 2 4 1 4 4 4 3 4 7 7 6 5
10 5 6 7 15 7 5 3 5 2 2 1 5 4 2 5 5 6 5 2 2 4 3 2 1 1 5 5 6 3 4 3 3 3 2 1 2 4 5 2 3 5 4 5 6
11 14 13 7 5 4 4 4 6 6 3 2 7 5 4 2 5 10 8 9 5 5 2 3 4 3 2 4 4 3 1 2 2 1 4 2 3 3 1 1 2 4 5 6 6

GFSSW_850_spd_096.txt.gz
Wind_Speed
15 18 22 23 20 17 17 15 17 17 14 17 9 7 14 18 19 19 18 9 7 2 5 6 7 7 8 7 14 15 9 18 24 25 19 26 23 31 26 25 22 22 28 13 20
22 22 21 23 30 17 17 17 15 15 15 18 7 6 12 16 22 21 5 2 1 4 2 3 8 6 8 9 9 17 14 25 21 19 20 22 24 29 27 30 27 22 20 16 18
22 21 20 21 29 16 14 17 17 15 14 15 5 7 12 14 16 3 1 3 4 9 7 6 6 4 9 13 18 13 21 20 22 27 24 19 24 24 14 22 32 22 22 19 23
19 20 22 21 22 20 15 14 15 15 13 9 6 8 10 10 5 3 3 2 5 11 12 8 6 5 5 12 15 18 24 27 29 27 21 19 24 29 21 28 28 27 15 20 23
22 20 20 17 20 26 23 17 12 14 12 4 5 9 7 3 10 10 3 7 9 10 11 12 12 11 9 7 15 20 20 23 29 29 26 21 24 23 22 21 24 31 24 21 23
22 21 19 19 16 20 23 18 13 12 8 4 8 9 5 6 4 7 7 10 10 11 13 14 9 9 11 12 16 10 19 25 25 25 24 25 23 20 20 7 15 24 27 24 30
23 21 18 16 15 21 22 15 9 8 9 8 6 7 9 12 6 8 10 10 8 9 14 13 17 11 3 8 4 12 17 15 20 26 19 23 22 22 20 14 15 22 32 27 34
24 22 20 14 13 19 22 14 9 8 6 6 7 9 7 5 8 11 10 8 8 8 7 5 8 12 10 6 5 3 9 11 12 20 24 16 19 21 4 7 16 18 35 29 38
24 21 19 14 9 21 19 12 5 2 4 6 6 6 7 4 7 6 5 6 7 4 1 6 9 7 5 6 6 6 8 12 11 20 10 17 10 7 6 11 19 19 26 26 36
25 22 20 11 7 17 14 7 4 4 5 7 6 3 6 3 5 6 6 6 7 3 4 5 4 5 5 6 6 7 11 4 6 13 15 12 12 6 10 16 22 13 21 27 37
24 22 19 14 10 18 13 8 6 2 10 8 8 3 2 4 7 5 4 5 6 5 4 3 5 9 12 13 13 12 13 1 4 10 13 13 9 10 13 12 23 17 13 23 23
22 22 19 17 8 16 14 7 7 5 5 11 10 9 9 5 1 4 2 6 6 5 3 4 8 6 7 9 11 15 12 6 3 5 5 9 10 8 9 12 16 8 11 19 23
20 20 16 7 8 11 7 10 9 6 2 2 8 8 6 6 2 4 3 5 4 3 4 6 7 4 4 9 12 12 12 8 4 6 3 5 5 6 11 14 27 8 11 15 25
18 15 9 5 7 6 6 9 10 8 1 5 5 4 6 5 2 6 4 4 4 3 4 5 4 4 4 4 5 8 7 12 9 5 3 3 1 4 8 13 16 16 13 16 16
19 9 8 5 5 6 7 11 13 5 3 5 3 4 5 5 4 6 5 3 2 2 4 0 3 2 3 3 2 1 7 10 8 5 4 9 2 8 5 12 12 10 12 12 15
15 8 9 6 9 7 9 16 11 3 2 4 4 5 5 4 4 4 4 1 1 3 1 4 3 3 2 3 5 8 10 9 5 2 2 8 3 7 9 8 2 7 6 15 13
9 7 9 11 4 12 15 15 3 2 2 6 4 6 4 5 5 4 3 4 2 3 1 1 3 5 2 2 4 2 11 4 3 3 3 3 1 7 11 5 3 4 7 12 12
7 6 8 10 12 17 22 2 4 2 4 2 4 6 2 6 2 3 3 3 3 0 1 2 2 3 2 0 1 1 3 3 4 4 4 2 6 7 9 6 7 12 7 8 5
3 2 6 8 16 20 12 3 2 3 4 7 8 5 4 3 3 5 1 0 1 3 2 2 2 4 4 3 4 2 2 3 7 6 6 2 5 12 9 11 15 18 15 11 11
1 0 7 8 23 26 3 2 1 2 3 9 4 6 5 7 6 4 1 2 2 3 3 1 1 4 5 4 3 3 4 2 1 4 5 5 8 6 10 12 14 14 16 14 16
2 1 6 12 26 14 2 3 2 8 7 6 2 4 4 5 3 2 3 3 2 1 3 3 4 2 2 5 6 2 2 2 3 3 4 6 5 6 5 6 11 14 16 15 14
3 1 4 32 5 2 3 5 1 4 5 3 2 3 4 3 3 3 3 2 5 3 3 3 3 3 2 1 5 3 5 4 2 4 4 5 5 5 3 7 11 13 14 12 17
3 1 10 16 2 3 3 2 2 2 4 1 0 0 2 4 3 4 2 1 4 2 3 1 2 3 2 2 3 4 6 6 4 3 4 3 5 4 6 7 7 10 11 12 11
2 2 6 10 3 6 4 2 3 2 2 2 1 2 4 4 3 5 5 1 2 3 6 2 4 4 4 5 3 3 7 8 4 5 9 9 14 8 7 7 7 8 9 9 9
2 1 2 4 2 7 4 1 3 2 1 3 1 2 5 3 3 4 3 3 3 4 3 2 3 3 6 5 3 5 6 9 6 5 6 8 13 9 7 7 7 7 5 6 8
7 3 4 6 10 7 2 4 3 0 1 4 2 4 2 4 2 5 5 2 1 2 2 2 4 2 3 7 6 6 7 5 5 4 8 8 9 3 7 6 6 6 6 7 8
9 9 3 5 3 4 5 2 5 3 3 3 2 4 7 3 3 9 6 7 4 2 2 2 3 2 2 6 5 4 4 3 3 1 2 4 4 2 5 4 5 7 8 7 4

GFSSW_850_spd_099.txt.gz
Wind_Speed
30 28 24 22 19 22 19 18 16 16 16 13 12 7 7 12 10 8 9 8 5 7 3 3 6 6 8 11 14 15 13 20 25 26 24 25 25 31 31 33 35 32 31 23 14
22 25 24 20 19 21 26 18 16 14 14 14 12 8 9 10 10 12 10 4 6 4 3 4 6 7 12 12 12 15 16 26 22 21 21 26 29 30 30 30 33 33 33 24 11
23 22 18 21 18 18 27 19 18 15 12 11 12 7 8 8 10 3 8 1 4 5 3 4 5 6 13 16 19 21 22 22 24 27 30 29 27 31 29 26 30 32 30 18 17
23 22 23 21 22 19 22 21 15 17 15 10 10 8 6 3 4 7 2 4 5 5 7 7 6 5 7 10 16 22 25 26 28 32 30 22 31 27 31 28 29 34 32 19 26
21 23 24 22 19 15 18 29 21 18 15 10 8 7 4 6 8 8 5 4 2 5 8 10 11 13 13 9 15 21 20 26 28 27 28 30 26 28 32 31 28 25 25 13 14
28 24 24 23 18 20 17 27 25 13 10 8 8 7 6 8 6 6 7 5 4 7 10 12 10 12 13 19 14 16 18 20 27 27 25 25 28 32 29 33 32 19 26 22 23
27 26 25 22 19 17 16 27 20 12 10 8 9 5 9 10 3 7 8 4 4 6 10 12 13 13 4 10 21 19 18 18 22 23 24 26 26 27 34 32 25 22 25 24 26
23 25 24 22 18 15 17 24 15 12 9 8 7 7 7 8 5 9 7 6 6 5 5 7 7 14 9 13 14 13 9 13 18 22 25 24 25 26 33 31 30 20 22 21 27
22 23 23 22 16 10 16 23 13 8 6 7 7 6 5 4 6 5 6 5 6 6 4 1 6 7 8 10 10 13 13 13 17 21 19 22 18 24 32 18 14 18 21 20 25
23 22 22 22 14 9 15 8 8 11 9 7 6 3 9 4 5 4 4 6 5 4 4 5 7 4 8 7 8 8 9 15 13 8 21 19 19 11 15 11 7 8 15 19 25
22 19 20 22 18 11 19 10 6 5 11 8 7 4 5 3 4 4 6 5 8 8 5 3 5 9 13 15 17 15 14 14 12 13 19 19 19 20 15 13 12 5 11 20 19
22 18 17 19 16 15 17 7 6 4 4 16 9 12 3 1 3 7 6 6 10 9 9 3 10 15 10 15 16 13 14 15 4 3 10 14 15 14 11 15 11 5 8 12 17
19 14 13 11 8 10 14 11 9 4 2 6 12 8 7 6 4 9 7 5 9 10 10 12 13 3 8 7 12 13 14 14 5 4 8 4 8 9 6 12 13 10 8 12 20
25 13 10 8 7 7 6 7 8 7 2 8 7 5 6 5 4 7 6 6 3 7 10 10 6 6 7 8 7 12 15 5 4 5 2 8 2 6 11 9 8 6 7 13 20
16 11 9 8 4 3 4 10 10 3 4 7 5 6 6 6 5 7 6 5 7 6 4 4 4 4 7 2 5 6 3 4 12 11 4 9 4 4 7 3 4 9 17 17 25
11 11 9 6 8 6 5 9 8 3 3 4 5 7 8 8 5 5 4 4 5 5 6 13 2 3 4 2 5 13 9 10 10 11 1 5 2 3 6 6 7 18 21 17 22
9 10 8 5 1 8 6 13 3 4 5 6 5 6 5 5 7 5 6 8 4 4 4 4 3 3 2 3 4 10 9 3 3 2 3 3 1 6 9 3 5 17 19 20 22
8 5 9 4 4 11 14 1 5 7 3 2 5 7 2 7 4 6 5 7 7 7 6 2 3 4 6 1 2 2 2 4 2 1 1 3 6 4 10 10 18 18 17 20 21
7 5 3 4 7 11 4 4 6 4 2 5 9 4 3 4 1 6 6 2 1 1 4 3 2 1 4 3 3 1 4 7 3 6 4 4 3 12 16 15 17 22 19 19 16
5 4 3 2 10 10 2 5 4 4 3 7 2 2 4 6 5 6 6 1 1 2 4 5 2 4 3 4 8 5 8 4 3 1 5 5 8 5 11 13 12 13 13 21 18
4 3 3 6 13 4 2 3 3 3 3 3 3 4 5 8 7 1 2 2 3 2 3 4 3 2 4 2 6 1 3 4 3 3 2 4 4 6 11 12 15 15 17 16 17
3 3 2 15 4 2 2 3 3 6 3 3 3 3 4 5 2 2 4 2 3 5 2 3 4 4 2 2 1 4 7 6 1 4 7 10 6 6 11 13 17 17 18 17 16
3 4 19 10 2 2 2 3 3 4 2 3 1 2 2 2 1 4 3 0 3 4 8 6 3 1 1 3 1 5 11 9 5 5 5 4 7 8 10 13 17 18 15 15 15
3 3 4 3 4 5 2 2 3 2 3 4 3 3 4 4 2 4 7 2 2 3 6 5 6 7 7 5 4 5 13 15 6 5 9 12 16 12 11 11 13 14 13 14 14
2 3 4 2 2 5 4 2 2 3 2 3 2 1 2 3 6 3 2 4 2 1 1 3 4 4 8 7 6 7 10 13 11 6 7 14 14 12 11 10 11 11 11 11 11
5 5 4 6 7 5 1 3 1 0 3 1 1 3 3 7 7 4 2 2 4 3 4 3 3 1 7 7 6 7 7 9 11 12 12 13 11 9 9 10 11 9 8 9 9
5 7 5 2 2 3 3 2 4 2 2 5 5 1 6 7 8 7 5 6 5 4 3 4 1 3 3 5 0 4 6 5 5 6 5 8 8 8 7 6 7 7 7 7 7

GFSSW_850_spd_102.txt.gz
Wind_Speed
20 20 21 26 28 21 20 24 15 14 16 13 10 9 8 9 10 8 5 8 7 12 5 3 3 4 6 8 11 10 6 12 15 17 18 23 20 31 31 31 28 33 29 19 8
23 22 21 20 19 26 19 18 23 22 17 16 9 8 8 7 10 14 11 12 11 8 4 3 3 2 8 10 8 9 9 13 12 15 16 20 21 23 26 29 27 27 33 24 15
22 23 22 22 22 22 20 21 27 24 16 15 10 8 5 4 9 5 9 9 7 6 4 3 1 4 5 11 16 17 18 14 20 27 26 20 25 31 24 20 26 23 25 33 20
24 22 22 23 23 22 23 13 20 25 16 12 8 7 4 3 3 7 10 3 8 5 4 1 1 1 2 7 10 16 23 23 22 23 23 19 28 26 30 27 30 28 26 25 27
24 23 23 23 23 22 18 17 18 23 17 12 8 6 4 5 10 11 6 9 5 5 6 5 6 7 7 9 12 15 16 24 24 24 27 26 24 24 31 29 31 33 27 22 26
24 24 22 23 23 23 18 20 16 26 20 14 8 7 6 9 6 8 10 7 5 5 5 7 6 6 8 9 12 12 21 21 22 27 27 21 22 25 31 31 32 34 31 25 22
25 24 23 22 23 24 18 16 16 22 15 11 8 6 7 10 5 10 12 7 5 5 5 5 6 9 3 7 10 18 17 19 22 19 20 22 23 21 27 33 32 32 31 28 25
25 21 24 22 22 23 18 15 24 19 12 9 10 8 6 8 10 11 8 6 5 5 2 4 4 6 7 9 9 7 13 13 9 14 21 18 25 18 26 29 33 31 29 23 28
24 18 22 22 19 18 13 11 17 15 8 11 11 8 3 7 12 11 9 8 9 5 4 3 7 6 5 3 5 9 7 12 14 14 13 17 23 18 28 27 28 32 21 18 30
23 20 15 21 17 13 10 4 9 11 13 12 7 6 9 7 10 8 8 10 8 6 5 4 1 1 3 5 5 9 8 13 16 4 12 15 20 17 18 23 27 17 17 21 29
19 17 16 16 16 12 7 13 10 4 10 5 10 1 14 8 9 6 9 9 7 7 4 7 2 7 10 11 15 18 18 18 18 11 5 16 14 16 5 22 21 21 20 16 22
17 15 13 11 14 10 17 6 6 1 3 17 9 9 6 4 5 8 11 9 10 7 8 2 9 11 12 14 15 17 18 19 15 9 8 8 14 12 15 23 20 18 13 13 12
17 13 13 10 8 3 15 12 3 6 2 8 13 7 3 5 3 14 11 7 6 7 8 8 9 9 9 13 13 11 16 15 8 10 7 6 12 16 6 7 9 12 14 12 9
20 20 8 6 5 4 5 14 8 7 2 6 5 4 7 4 3 7 9 4 5 4 7 8 14 10 12 10 9 11 6 14 5 2 4 12 2 3 6 12 12 15 16 12 18
6 3 10 7 1 1 2 4 6 2 4 5 7 7 9 6 9 7 6 5 6 5 3 4 6 0 8 6 3 7 11 14 9 8 3 7 3 1 5 5 9 7 15 13 20
5 13 9 0 2 1 3 6 8 2 2 4 5 6 7 7 5 8 5 4 6 4 7 12 10 4 5 6 8 10 9 10 9 7 3 3 2 2 4 4 5 9 16 22 24
14 12 10 4 2 2 4 9 2 3 3 5 6 7 4 6 5 7 7 6 2 2 3 4 10 1 2 5 5 6 5 3 3 1 2 1 1 1 7 5 2 11 17 24 22
11 11 9 7 6 5 4 1 3 6 6 5 6 8 2 8 4 5 3 2 8 5 3 3 3 2 3 2 3 3 3 3 4 3 2 3 6 6 9 14 21 23 23 27 26
9 11 10 6 5 4 5 1 5 3 3 6 8 5 5 3 1 4 4 2 2 2 2 5 2 4 2 3 3 2 4 5 3 5 1 4 1 11 11 9 19 20 21 24 21
11 10 14 7 4 6 1 4 3 6 7 2 3 1 4 4 2 2 5 4 2 3 6 2 3 3 5 5 10 6 8 4 1 5 4 3 5 4 8 10 15 14 18 17 19
9 6 9 5 9 6 3 4 3 6 3 3 6 4 8 4 2 2 3 3 3 4 4 1 1 1 4 2 4 2 4 3 2 3 2 3 3 5 10 10 14 12 19 20 22
8 3 7 7 4 2 3 5 4 9 2 3 5 9 4 3 3 4 5 4 1 2 2 4 2 1 0 4 3 4 6 5 1 5 6 5 4 7 7 9 17 17 21 24 23
6 5 6 5 2 2 2 3 4 7 6 6 4 5 5 4 2 4 4 3 3 4 4 4 2 3 3 2 1 4 8 5 2 2 3 4 3 5 8 11 17 17 21 22 22
5 2 3 6 3 2 2 4 3 3 2 6 3 0 2 3 3 3 4 1 4 4 5 4 5 4 3 2 3 5 9 7 4 5 9 10 12 8 8 8 13 20 19 18 19
3 3 3 1 1 6 3 2 3 4 2 4 1 2 5 3 5 4 3 4 5 3 2 4 3 5 4 5 4 6 8 11 8 7 8 10 12 9 9 9 15 19 18 17 15
3 4 2 9 6 5 1 1 6 4 6 5 4 6 11 7 6 5 3 6 5 2 2 0 1 2 4 6 5 7 10 9 9 10 10 12 10 9 18 18 15 16 17 16 14
7 9 5 2 1 1 2 4 6 6 2 8 9 6 8 5 9 6 6 7 4 5 5 3 1 3 2 4 6 4 5 6 3 7 4 5 7 7 7 10 11 12 13 13 12

GFSSW_850_spd_105.txt.gz
Wind_Speed
16 17 19 17 18 20 25 17 3 21 18 12 9 9 9 7 9 10 9 3 8 9 7 7 2 5 3 3 5 3 2 2 4 7 8 16 12 31 20 16 27 24 24 23 12
19 18 18 18 19 20 18 23 17 11 23 14 11 9 6 7 10 16 4 9 11 10 9 6 2 7 4 2 3 5 4 6 5 4 6 17 16 20 19 24 20 32 24 10 8
20 20 19 19 19 21 19 16 18 21 24 17 14 7 6 7 6 5 10 15 10 11 8 10 5 4 2 3 6 5 4 3 12 22 23 19 20 21 15 16 15 21 31 25 20
22 21 18 20 20 20 19 20 18 9 27 26 16 7 10 8 3 9 9 13 9 12 6 7 5 4 4 3 6 6 11 14 15 20 21 17 22 20 23 21 28 27 31 27 20
24 22 19 18 20 20 20 19 21 16 20 25 15 9 13 6 7 9 14 8 10 11 9 7 6 2 3 3 8 9 7 14 20 22 22 27 23 23 30 36 33 34 31 30 23
24 24 19 18 19 20 20 19 13 18 19 19 14 16 13 4 4 14 11 11 6 8 9 6 4 3 3 4 4 6 16 20 22 22 23 20 22 23 21 27 35 35 34 29 27
27 24 18 17 18 19 22 18 14 20 24 21 14 16 12 7 5 9 10 9 10 8 6 6 7 7 3 4 8 13 9 10 12 16 10 21 18 25 26 27 32 33 34 26 26
27 25 19 19 15 17 19 15 12 21 23 11 17 14 8 14 9 10 16 10 6 8 7 7 8 6 5 7 8 4 2 4 3 3 9 8 18 18 18 24 27 33 34 31 28
30 23 19 16 11 13 12 5 13 18 17 17 15 7 4 12 17 14 13 10 8 6 4 3 8 4 2 1 3 3 2 4 9 3 7 7 13 11 24 23 24 27 29 33 27
28 12 8 3 8 10 8 10 16 17 20 16 13 5 4 6 15 15 9 7 13 8 6 4 1 2 3 2 3 1 4 7 11 5 12 19 21 17 18 17 21 16 24 26 27
16 12 4 3 10 7 4 6 9 6 7 6 12 4 14 15 14 12 11 11 10 8 5 6 1 7 8 9 6 6 7 14 17 16 12 12 18 16 12 12 12 17 21 25 24
10 7 2 4 5 7 9 7 4 6 2 4 8 10 14 11 6 10 13 8 6 8 6 1 9 11 10 10 10 12 15 18 18 9 4 11 13 11 8 8 11 17 21 28 19
10 6 5 7 2 5 9 4 1 7 2 7 12 3 5 4 4 14 15 7 6 6 7 6 7 2 10 5 8 13 11 10 12 7 11 12 9 6 4 10 17 19 19 23 16
6 7 3 7 9 6 3 8 3 2 3 2 6 5 5 6 1 15 14 2 4 5 7 6 9 8 6 10 9 12 8 9 8 2 3 3 5 2 3 6 5 16 16 11 15
7 15 14 14 9 6 6 10 10 5 4 4 4 7 10 2 13 6 7 3 4 4 1 5 2 1 4 6 2 7 9 11 13 8 2 6 5 0 7 6 7 8 15 14 10
18 19 16 11 9 9 6 10 6 1 4 4 4 7 5 2 5 6 4 4 6 3 5 7 5 3 4 4 6 7 8 12 6 3 5 0 3 1 4 6 6 3 12 14 17
20 19 17 11 7 9 9 7 3 2 4 2 6 4 1 3 5 5 4 4 3 2 2 3 4 2 2 4 3 6 2 3 3 4 2 2 0 2 12 14 9 7 16 16 18
19 15 16 17 9 8 7 3 4 8 5 3 5 8 3 6 5 5 3 3 7 3 2 1 4 1 2 3 3 5 2 2 4 4 2 4 5 6 17 9 18 24 18 27 21
17 15 16 13 6 6 3 4 5 3 4 4 5 4 2 3 4 5 3 3 1 7 2 3 2 2 3 2 1 2 4 4 3 4 2 2 0 7 18 14 21 17 25 22 21
11 14 16 14 9 7 4 5 3 4 6 2 2 4 3 2 2 2 1 3 2 5 5 2 4 1 4 4 10 7 5 1 2 3 4 4 4 5 11 12 14 13 17 20 21
7 6 9 9 9 10 4 4 3 6 4 3 3 4 4 4 2 1 3 3 4 5 8 2 0 3 2 4 2 2 4 4 2 3 1 2 3 5 10 11 13 11 18 21 24
8 3 6 10 7 4 3 4 6 6 3 3 3 5 3 1 3 4 3 4 2 5 2 4 2 3 3 3 3 3 5 2 3 3 3 3 4 3 8 7 17 15 20 24 24
5 3 4 10 4 3 3 3 3 5 6 6 6 4 2 2 4 3 3 7 9 4 3 1 3 3 7 5 5 4 6 4 3 3 6 4 3 4 6 7 13 16 22 20 23
4 2 4 6 2 3 2 4 1 2 4 4 3 4 3 3 3 3 1 3 3 2 4 0 4 2 3 5 4 6 12 9 5 4 5 4 8 5 5 7 11 18 20 21 22
2 1 1 2 5 3 1 2 3 3 5 9 5 6 4 5 3 3 1 2 4 4 1 3 3 3 4 4 4 5 7 11 13 7 6 11 8 7 7 7 12 17 18 20 20
2 3 1 3 2 2 2 1 4 4 5 5 5 5 9 5 3 4 4 5 2 6 4 2 0 2 5 5 7 5 12 10 11 11 9 7 5 5 12 18 16 17 17 18 17
6 8 2 3 4 2 1 1 3 1 4 6 4 3 7 6 15 15 3 3 3 2 5 2 2 2 3 3 5 5 5 5 3 5 6 6 5 5 5 9 14 16 16 14 11

GFSSW_850_spd_108.txt.gz
Wind_Speed
20 18 17 17 14 16 18 17 22 13 18 17 15 13 9 9 9 11 10 5 9 6 5 5 3 5 5 5 4 4 2 4 4 6 3 8 8 7 9 12 14 6 11 9 12
21 19 18 17 16 15 19 17 17 22 9 23 19 12 9 9 10 15 5 12 8 5 5 9 4 5 3 3 3 3 3 7 5 3 1 9 8 17 9 15 15 15 13 13 13
21 21 22 21 19 18 19 16 17 24 24 22 22 10 10 11 7 6 15 14 10 7 11 9 8 6 1 1 3 3 4 4 4 10 14 12 17 14 8 11 11 16 23 22 18
24 23 21 22 20 17 19 20 16 14 5 20 18 14 12 12 5 6 9 16 12 14 13 11 8 5 2 3 2 3 6 11 6 16 16 12 18 20 22 23 29 33 28 25 20
24 25 23 20 19 16 18 17 16 14 17 17 27 20 17 9 6 11 16 16 12 15 13 10 9 5 3 3 4 4 4 13 21 18 19 20 18 19 25 30 32 34 38 30 26
26 27 24 22 18 15 18 18 14 14 19 19 32 21 17 7 10 15 17 11 10 14 14 9 6 5 3 2 2 4 10 16 18 24 20 19 22 17 23 20 26 30 33 33 23
27 25 22 19 16 13 17 18 18 14 24 22 19 19 10 7 10 18 12 11 12 12 11 7 8 5 2 3 6 10 8 11 15 11 7 10 10 13 30 26 31 34 34 35 31
22 23 20 19 16 12 15 16 16 18 25 22 14 14 3 13 15 15 16 14 11 8 7 4 6 5 3 4 6 3 1 4 4 3 8 9 9 9 18 21 27 33 34 36 33
22 23 19 19 14 10 9 5 4 15 22 23 22 11 3 16 21 13 15 13 12 7 7 3 7 3 0 0 4 2 3 4 7 7 5 6 11 5 15 17 24 27 30 32 31
17 14 7 5 11 1 5 8 21 23 21 21 15 8 9 10 22 18 13 13 10 10 8 4 3 1 3 2 3 2 4 5 9 5 9 14 19 18 21 16 23 27 27 28 29
11 9 10 8 5 2 5 11 6 11 9 6 15 6 16 14 16 13 14 9 10 8 3 5 2 7 9 8 6 4 7 12 15 15 11 9 13 20 20 15 14 25 29 28 29
7 8 8 7 7 1 10 8 4 7 5 13 14 22 20 17 12 13 14 7 5 4 3 1 8 10 6 7 10 9 13 17 16 11 6 10 19 18 17 9 19 23 24 27 29
5 4 7 3 9 14 12 10 13 6 5 6 10 11 8 8 7 14 16 4 4 4 5 5 6 1 6 7 10 12 12 14 9 10 7 9 10 6 4 4 12 16 17 13 16
11 11 9 12 11 10 8 9 9 4 3 4 3 5 4 7 3 15 15 1 2 7 4 6 12 7 7 10 10 11 7 15 12 8 5 3 6 4 5 6 5 12 14 16 14
23 16 18 13 8 10 7 15 9 2 5 2 3 4 11 1 13 8 10 3 2 2 0 5 3 3 4 6 3 7 4 6 8 12 9 10 5 4 5 6 6 8 20 18 16
21 16 12 12 15 13 12 13 6 4 3 3 2 7 4 1 2 6 2 3 3 3 3 9 4 4 5 3 6 8 8 11 8 5 5 2 5 2 3 6 9 9 17 17 13
16 16 15 14 13 10 9 2 4 5 2 1 5 3 1 3 3 3 3 2 3 2 2 4 3 2 1 4 3 2 4 3 3 2 3 4 4 3 13 16 13 10 3 10 9
12 12 17 16 11 7 3 4 7 8 5 3 4 5 2 4 2 5 3 2 6 3 2 2 5 5 2 3 3 4 2 2 4 3 3 1 5 5 19 10 10 17 13 15 17
13 11 16 12 9 8 3 6 4 2 2 5 3 2 2 2 3 2 4 3 2 9 3 2 3 1 3 3 2 1 3 2 3 3 2 3 3 5 19 13 18 15 20 22 27
9 9 15 15 12 8 4 7 2 3 2 3 2 3 2 2 3 2 2 2 1 4 3 1 4 3 3 3 8 5 5 2 1 3 2 5 3 6 11 13 14 13 18 23 24
8 4 14 14 13 13 5 3 3 6 5 3 1 4 4 3 1 1 3 3 3 2 4 2 1 3 2 4 2 1 3 5 3 3 2 2 3 7 7 10 12 12 21 24 25
7 3 15 13 8 5 3 4 5 5 2 3 4 2 3 5 3 1 2 2 5 3 1 4 1 3 5 4 4 4 4 4 2 3 3 2 3 6 9 8 13 19 19 20 24
5 7 15 13 4 2 4 2 2 5 5 5 5 3 1 2 4 4 4 5 6 5 3 4 2 3 7 5 4 3 5 4 3 3 4 3 1 3 5 2 7 13 17 22 24
4 3 8 11 6 2 3 4 4 5 4 7 4 5 3 4 3 2 1 2 1 2 3 1 3 1 4 4 4 7 8 5 4 4 3 2 5 2 5 6 10 18 20 20 21
6 2 3 3 6 4 3 3 3 4 6 12 7 6 2 4 4 4 5 6 2 7 2 2 2 3 3 3 1 3 7 12 8 6 3 9 6 6 6 6 10 16 17 19 18
4 4 3 3 7 7 5 4 4 4 3 4 4 6 6 4 2 3 4 4 1 5 3 2 1 1 5 7 7 4 10 9 8 9 8 5 4 4 8 12 13 14 15 15 14
8 6 4 6 4 3 3 4 5 5 2 2 2 1 4 3 7 11 9 5 0 1 3 2 2 2 3 6 7 5 5 4 2 4 5 5 5 5 4 7 13 13 12 12 10

GFSSW_850_spd_111.txt.gz
Wind_Speed
22 20 16 15 14 11 12 16 15 26 19 8 17 15 13 10 10 11 10 4 9 10 9 7 5 5 6 6 6 5 2 3 3 6 4 5 7 4 5 9 6 7 5 5 10
17 15 14 14 14 16 17 15 19 16 24 12 20 19 14 11 11 14 4 9 11 8 9 8 9 7 6 4 3 3 3 6 4 1 2 8 5 12 6 11 9 12 17 15 14
19 16 17 19 19 17 18 18 20 20 14 20 16 23 14 9 6 6 14 13 12 9 8 10 8 6 4 3 2 2 4 3 4 6 8 7 14 11 6 10 10 10 12 19 21
18 17 19 20 21 20 18 18 16 20 17 18 16 28 13 8 3 1 12 15 11 10 12 10 8 5 3 2 1 1 5 5 5 9 10 8 9 13 19 22 29 32 34 29 26
20 23 20 22 21 21 19 17 15 13 16 16 9 15 13 8 1 7 16 16 13 13 10 8 8 5 4 2 2 2 3 10 14 19 19 20 16 16 23 31 35 38 35 34 28
19 20 22 19 21 19 19 17 17 12 21 22 11 23 16 6 7 16 19 14 11 12 11 9 6 4 4 2 1 3 10 15 15 20 15 13 15 9 21 25 26 28 33 32 29
17 18 17 15 15 14 16 18 18 17 17 22 21 28 15 8 19 18 14 9 11 11 12 8 7 4 3 2 4 7 7 7 10 6 5 4 5 10 28 24 30 31 32 34 33
18 18 20 17 13 11 14 16 17 19 17 18 34 24 7 13 20 15 14 14 14 12 8 6 4 3 1 2 5 4 2 5 3 3 6 6 7 12 17 20 24 27 30 32 32
16 23 12 8 8 10 7 10 7 5 19 25 20 14 8 19 23 17 15 16 12 9 7 5 4 3 2 1 3 2 2 3 7 2 3 6 9 6 19 18 24 31 34 32 31
14 16 14 9 7 5 1 6 15 22 25 21 17 10 14 13 22 19 11 14 11 12 9 3 2 2 2 1 2 0 3 4 7 5 1 12 22 24 31 22 27 30 32 32 32
14 16 15 18 12 7 8 7 13 12 11 3 12 13 17 20 17 13 12 11 6 6 3 2 3 5 7 6 2 1 5 14 14 13 10 15 18 22 27 18 21 28 26 25 25
13 13 11 13 9 12 10 8 9 10 11 14 19 24 26 21 9 13 14 5 4 2 5 2 6 9 5 5 6 8 11 15 14 8 5 13 18 20 18 13 20 23 20 22 22
15 16 13 14 16 13 16 14 14 11 6 10 15 15 10 12 6 13 14 4 3 1 3 5 4 2 6 3 4 10 8 14 13 13 12 11 11 5 4 4 6 9 13 15 18
21 15 11 9 11 11 8 9 8 3 4 7 6 6 7 7 6 12 14 2 2 6 3 5 7 6 2 4 7 10 7 11 11 8 4 6 9 4 5 8 6 13 12 16 19
17 14 15 12 8 11 4 7 2 3 6 5 4 4 4 6 13 6 12 2 0 2 2 6 3 2 1 4 4 7 4 7 9 11 8 8 6 5 6 8 10 13 18 18 17
18 12 12 18 14 11 10 5 3 6 6 3 4 4 1 3 3 5 2 3 2 3 4 8 5 3 5 3 5 7 9 12 10 5 5 1 6 4 5 12 13 12 20 21 15
17 13 13 13 13 8 6 3 5 6 0 3 3 2 0 2 3 2 3 2 3 3 3 5 2 3 3 4 2 4 6 4 4 1 4 2 4 3 16 22 9 9 11 11 6
13 14 14 14 7 2 2 3 9 5 5 4 3 2 2 3 3 4 2 2 5 1 1 3 6 5 3 4 3 3 2 2 4 2 3 2 5 4 15 10 14 15 11 16 15
14 14 19 16 9 4 5 7 3 1 3 4 1 2 2 2 4 3 4 2 0 7 3 2 4 1 4 3 3 1 4 2 3 3 2 3 1 2 18 15 16 20 19 17 24
14 10 26 13 11 8 5 8 2 2 1 2 1 3 2 1 2 1 1 1 0 2 2 1 5 4 2 1 6 5 3 2 2 4 2 3 3 5 14 13 13 12 16 20 24
11 6 24 9 13 14 6 4 3 4 1 2 1 2 1 1 2 1 1 3 3 2 4 2 3 4 1 5 3 1 2 3 2 2 2 3 3 6 8 10 12 14 18 19 22
10 3 22 13 8 5 3 3 4 4 1 3 1 0 3 5 2 1 1 3 7 4 3 6 2 4 6 3 3 3 4 2 2 2 2 1 3 4 5 9 11 12 11 18 22
6 8 19 13 4 4 5 3 2 6 4 4 2 2 1 2 2 3 4 5 8 5 4 4 1 4 7 4 4 2 3 4 0 2 2 3 1 2 4 2 5 9 14 19 22
4 3 9 15 10 3 6 5 6 7 2 6 4 3 4 5 4 2 3 1 6 6 8 2 1 2 3 4 2 6 8 3 2 2 2 2 4 2 3 4 5 12 16 18 20
6 2 3 3 6 4 4 5 6 7 10 13 5 6 3 3 4 5 4 5 1 5 2 0 1 2 4 4 3 2 4 5 4 4 2 6 5 4 6 6 7 12 13 15 15
5 3 3 3 4 6 5 5 7 7 6 6 4 6 6 3 1 2 3 2 1 4 2 3 2 2 3 7 6 3 7 5 5 4 7 4 0 5 5 8 9 11 12 12 12
12 8 3 4 2 3 2 5 5 7 2 4 4 3 5 3 8 13 10 11 5 2 2 1 3 2 4 5 7 5 2 2 1 1 6 5 6 6 4 7 13 12 11 10 10

GFSSW_850_spd_114.txt.gz
Wind_Speed
22 21 19 20 18 14 9 7 9 11 22 14 12 17 17 11 10 11 7 4 8 10 9 8 6 8 9 7 6 5 3 3 5 6 3 3 5 2 3 6 4 5 9 8 10
21 17 15 13 11 11 12 10 9 11 10 20 12 17 16 12 10 13 6 8 11 10 9 9 8 8 5 4 3 4 3 8 2 2 2 5 0 8 5 6 5 16 17 16 17
19 15 14 13 13 13 13 11 12 11 11 8 26 14 18 12 7 4 13 11 8 10 9 7 7 6 4 4 3 2 4 2 2 5 4 6 10 2 3 6 11 8 10 14 20
8 12 13 13 14 14 15 15 12 10 9 11 16 14 15 12 2 2 12 15 13 10 9 10 7 5 3 4 3 1 3 3 4 3 8 6 9 10 18 15 29 34 31 29 28
14 14 14 19 21 17 14 15 12 10 12 6 12 24 25 10 3 6 20 16 9 12 10 7 7 4 4 4 2 1 3 8 8 18 19 16 15 13 17 32 32 31 30 28 27
13 11 12 16 17 15 14 14 14 12 11 6 8 23 19 8 11 17 17 12 10 10 9 7 6 8 7 3 2 2 8 13 12 15 11 8 9 4 14 21 24 25 28 27 26
13 15 15 15 12 10 10 10 13 13 8 9 13 17 10 13 14 17 14 9 10 9 14 13 11 5 5 2 4 6 6 7 3 2 4 2 6 8 22 16 19 24 27 25 24
14 19 16 10 7 4 4 7 10 11 8 11 11 18 6 21 22 17 11 12 10 10 10 8 7 10 5 3 4 4 3 5 2 1 3 4 8 8 16 14 20 26 33 32 30
19 25 17 11 3 5 4 5 5 6 11 12 18 13 6 19 19 17 13 16 14 11 9 8 6 6 4 3 4 5 2 2 7 2 3 3 11 7 18 25 28 35 35 35 33
20 22 22 14 13 6 5 9 14 21 18 13 18 14 13 9 23 19 14 14 13 12 10 4 3 3 1 3 1 3 4 5 6 5 2 7 24 20 32 23 26 33 36 35 34
18 18 17 9 14 11 15 23 14 10 13 4 11 13 19 21 22 15 17 12 13 3 3 3 5 3 6 4 3 3 8 12 13 10 8 12 20 21 27 19 21 30 32 35 33
20 17 18 18 15 13 12 13 11 13 12 29 31 31 26 16 12 13 13 4 3 3 3 3 1 4 4 3 4 6 8 9 11 4 3 12 21 22 19 15 18 23 25 28 27
20 18 16 17 17 18 21 20 17 10 6 13 17 14 9 13 8 10 10 5 3 2 2 3 2 5 4 3 4 5 6 6 10 13 7 9 9 5 3 5 9 10 15 18 20
18 18 8 6 10 12 16 20 7 5 4 8 6 8 9 9 6 10 6 2 1 3 3 3 4 3 3 4 6 4 7 11 12 7 4 4 7 4 5 10 6 18 23 18 19
19 18 17 12 11 12 9 4 3 3 6 9 6 4 10 9 12 2 8 3 2 1 4 5 2 1 2 4 6 7 2 6 9 13 10 7 4 5 5 7 13 19 23 22 18
20 19 13 14 12 10 5 1 4 6 6 4 6 4 3 7 3 4 1 1 1 2 1 6 3 2 5 4 6 5 7 8 4 4 3 1 4 4 8 15 16 16 17 14 12
18 19 19 12 9 3 2 3 5 6 1 3 2 4 2 3 3 2 1 2 1 4 3 5 2 3 4 3 1 2 4 4 5 1 4 2 4 3 12 19 9 5 8 13 21
14 23 23 17 12 8 6 4 10 5 4 2 1 0 4 2 2 1 1 2 4 1 1 3 6 5 4 5 2 2 1 1 3 2 5 1 3 2 13 22 16 9 14 22 32
10 20 28 21 14 9 5 8 3 1 1 3 3 3 3 2 2 1 3 2 3 8 4 2 4 2 4 3 3 2 3 1 3 3 3 3 2 2 17 19 18 23 22 24 18
11 10 27 22 19 15 7 8 4 4 2 2 3 0 2 0 1 1 1 2 1 4 3 1 5 3 0 1 5 5 1 2 1 3 3 2 1 5 13 14 15 14 19 21 14
12 5 22 16 23 21 6 5 3 4 1 2 1 1 2 2 2 2 2 4 3 2 2 2 0 5 1 5 4 2 2 4 2 1 2 3 2 4 8 8 9 14 16 15 19
15 4 17 11 11 4 3 2 5 4 2 1 1 2 2 3 1 1 2 3 4 3 2 4 2 4 7 1 2 4 4 3 2 2 1 1 3 3 6 5 9 11 11 15 19
5 6 21 6 4 3 3 1 2 5 5 5 4 4 3 2 2 3 3 4 7 4 3 3 1 4 4 3 3 1 2 3 1 1 2 2 1 4 4 7 8 2 7 11 15
2 3 8 16 7 3 3 4 5 5 1 5 4 2 4 5 3 2 5 2 4 5 5 3 2 3 4 5 2 6 7 2 3 1 3 1 8 7 6 4 0 3 6 9 13
4 2 3 2 5 4 0 2 4 6 7 14 4 5 2 5 6 5 4 5 2 2 2 2 3 1 5 6 3 4 5 2 3 3 2 5 6 6 6 6 5 3 4 6 11
2 5 5 4 1 3 5 4 3 4 3 4 4 6 5 4 2 4 4 3 2 6 2 2 2 2 4 1 4 4 3 3 3 2 6 5 4 5 6 7 6 8 7 6 7
4 5 1 1 4 3 1 1 2 2 1 3 1 1 3 2 9 14 12 12 7 3 3 2 2 4 5 6 7 5 4 2 2 2 6 5 6 6 5 8 13 12 9 7 7

GFSSW_850_spd_117.txt.gz
Wind_Speed
24 16 18 15 16 20 8 7 5 3 4 17 9 14 11 10 8 7 3 4 8 12 11 11 12 12 11 7 5 5 3 3 4 6 2 3 4 1 1 5 4 5 8 9 11
21 13 12 10 10 7 10 12 5 7 4 5 16 15 20 14 9 6 2 9 11 11 11 11 14 14 7 5 4 4 2 7 2 2 2 4 1 6 4 3 7 15 19 20 21
19 11 6 6 5 6 8 8 6 3 3 4 8 12 15 11 6 2 8 11 11 11 11 10 12 9 6 4 3 2 3 1 0 1 3 5 6 2 4 6 16 16 19 16 19
15 17 4 5 6 4 5 4 5 4 2 6 5 7 22 17 6 3 12 11 15 11 11 11 10 6 4 4 3 3 1 1 2 1 5 5 8 7 16 19 27 23 25 28 29
13 11 10 10 7 9 8 4 5 4 1 4 9 22 18 10 7 9 15 17 11 11 10 9 8 6 5 6 4 2 1 3 7 13 16 16 17 12 15 33 30 29 28 27 23
15 14 12 9 7 4 5 5 5 5 2 2 10 26 19 8 6 13 17 11 12 12 10 7 6 10 10 4 3 1 4 10 9 10 9 7 9 2 13 16 16 18 20 20 21
21 19 16 9 6 3 1 3 6 5 1 2 5 12 14 12 19 18 13 11 10 8 14 13 10 3 7 4 3 1 4 5 1 3 3 2 7 9 14 17 19 22 23 22 27
27 24 18 11 5 7 6 4 6 6 3 5 11 10 7 19 18 19 13 17 13 13 13 11 9 12 5 6 4 3 3 3 1 4 3 2 7 5 9 12 18 23 32 38 42
23 25 21 16 12 9 8 9 6 9 8 11 14 14 7 17 24 20 15 19 15 12 13 10 6 6 4 3 3 6 1 3 8 4 2 1 10 8 22 34 31 25 34 37 38
22 20 19 19 14 15 16 13 23 25 23 15 14 8 9 9 23 20 15 16 15 16 12 5 5 3 3 3 3 2 2 2 6 4 5 12 24 17 28 29 30 31 30 35 35
23 22 20 17 16 22 24 24 13 11 9 5 10 11 15 24 19 18 13 14 14 7 3 4 4 2 3 3 4 1 2 6 6 9 5 8 19 20 25 23 27 27 26 28 31
21 18 20 19 14 15 8 14 16 8 15 31 33 33 22 15 16 13 11 4 3 3 2 4 1 3 2 3 2 1 3 6 9 6 4 11 23 22 15 12 11 16 18 20 25
25 12 15 22 21 22 34 25 21 9 8 14 20 15 13 12 9 9 4 5 4 3 1 3 3 7 2 1 1 3 4 4 7 6 9 7 10 5 3 6 11 13 21 30 25
26 21 3 10 22 25 26 14 5 2 4 7 7 8 8 12 6 5 5 2 2 3 3 2 1 3 2 3 6 3 8 11 9 7 4 2 6 5 5 9 9 24 26 28 22
28 26 16 19 21 12 6 4 5 1 6 10 6 6 11 8 10 2 1 4 3 2 3 3 2 3 2 5 6 6 1 5 6 11 8 3 5 5 8 13 18 23 26 20 16
26 21 16 9 6 4 4 6 6 6 8 5 3 4 4 6 4 3 2 3 2 2 1 5 2 3 5 3 7 4 5 6 5 3 4 4 5 3 6 10 16 20 12 14 19
23 21 15 8 7 6 7 4 6 7 2 5 3 4 4 3 3 2 1 2 2 4 3 3 3 3 5 2 1 3 4 3 4 2 5 4 4 3 12 16 15 10 16 16 22
15 22 18 14 9 5 3 6 10 4 4 2 1 2 3 1 1 1 1 1 3 3 1 3 5 3 4 5 2 2 1 2 3 2 4 2 4 2 13 18 24 22 22 24 21
7 22 23 18 10 11 11 9 3 2 1 1 2 3 3 1 3 1 1 2 1 5 2 3 4 1 4 2 1 2 2 0 3 4 3 2 1 2 14 14 20 23 23 25 29
6 9 22 23 22 15 6 8 3 2 3 2 3 2 3 4 3 4 3 0 2 5 5 2 5 3 2 1 3 4 2 2 2 4 4 2 2 5 11 12 13 13 20 27 32
8 4 16 14 21 16 6 3 0 1 2 2 1 2 3 1 2 1 2 4 2 4 5 1 1 5 2 4 4 2 2 3 3 1 2 4 2 2 6 7 10 14 17 19 25
9 4 10 10 8 5 3 2 1 1 1 1 2 3 4 6 2 3 2 4 5 5 3 5 2 4 6 2 3 2 4 2 1 1 1 1 2 7 7 6 11 13 15 17 20
5 5 14 5 3 3 3 2 2 5 3 1 1 2 1 3 2 3 3 3 9 6 4 3 1 4 3 3 1 3 3 4 0 1 3 2 2 3 7 6 9 6 8 11 14
3 3 8 13 8 5 2 3 3 4 1 2 4 3 3 3 3 2 4 1 3 5 3 4 2 5 4 5 1 4 3 4 5 2 2 4 6 8 11 8 4 2 1 5 9
3 2 3 2 4 4 2 0 3 4 4 8 3 3 1 4 3 4 2 5 1 3 2 2 3 3 6 8 3 5 6 4 6 5 3 5 8 7 8 5 7 5 2 3 6
2 4 5 4 2 2 2 1 1 1 1 4 3 4 3 3 5 4 1 3 2 4 1 1 3 1 5 4 5 5 6 5 5 2 2 6 5 6 7 8 9 10 8 5 5
5 6 2 1 3 1 3 4 4 1 2 1 2 1 2 3 8 13 12 8 5 2 2 1 1 3 4 5 7 5 8 7 4 4 6 5 8 6 5 10 17 15 12 10 8